[[{"header":{"parameterUnit":"m.s-1","parameterCategory":1,"la1":30.6,"la2":29.2853,"lo1":-89.7004,"lo2":-87.6739,"dy":0.0162,"dx":0.0183,"nx":112,"ny":82,"refTime":"2025-04-19T12:00:00:Z","depth":0,"parameterNumber":2,"parameterNumberName":"U-component_of_WINDS"},"data":[0.0,0.0,0.0,0.0,0.0,0.0,0.0,0.0,0.0,0.0,0.0,0.0,0.0,0.0,0.0,0.0,0.0,0.0,0.0,0.0,0.0,0.0,0.0,0.0,0.0,0.0,0.0,0.0,0.0,0.0,0.0,0.0,0.0,0.0,0.0,0.0,0.0,0.0,0.0,0.0,0.0,0.0,0.0,0.0,0.0,0.0,0.0,0.0,0.0,0.0,0.0,0.0,0.0,0.0,0.0,0.0,0.0,0.0,0.0,0.0,0.0,0.0,0.0,0.0,0.0,0.0,0.0,0.0,0.0,0.0,0.0,0.0,0.0,0.0,0.0,0.0,0.0,0.0,0.0,0.0,0.0,0.0,0.0,0.0,0.0,0.0,0.0,0.0,0.0,0.0,-5.4073,-5.4728,-5.7032,-5.8914,-5.9823,-5.8722,-5.7122,-5.5047,0.0,0.0,0.0,0.0,0.0,0.0,0.0,0.0,0.0,0.0,0.0,0.0,0.0,0.0,0.0,0.0,0.0,0.0,0.0,0.0,0.0,0.0,0.0,0.0,0.0,0.0,0.0,0.0,0.0,0.0,0.0,0.0,0.0,0.0,0.0,0.0,0.0,0.0,0.0,0.0,0.0,0.0,0.0,0.0,0.0,0.0,0.0,0.0,0.0,0.0,0.0,0.0,0.0,0.0,0.0,0.0,0.0,0.0,0.0,0.0,0.0,0.0,0.0,0.0,0.0,0.0,0.0,0.0,0.0,0.0,0.0,0.0,0.0,0.0,0.0,0.0,0.0,0.0,0.0,0.0,0.0,0.0,0.0,0.0,0.0,0.0,0.0,0.0,0.0,0.0,0.0,0.0,0.0,0.0,0.0,0.0,0.0,0.0,0.0,0.0,0.0,0.0,0.0,0.0,-5.227,-5.6108,-5.7288,-5.8067,-5.8874,-5.7803,-5.6216,-5.4196,0.0,0.0,0.0,0.0,0.0,0.0,0.0,0.0,0.0,0.0,0.0,0.0,0.0,0.0,0.0,0.0,0.0,0.0,0.0,0.0,0.0,0.0,0.0,0.0,0.0,0.0,0.0,0.0,0.0,0.0,0.0,0.0,0.0,0.0,0.0,0.0,0.0,0.0,0.0,0.0,0.0,0.0,0.0,0.0,0.0,0.0,0.0,0.0,0.0,0.0,0.0,0.0,0.0,0.0,0.0,0.0,0.0,0.0,0.0,0.0,0.0,0.0,0.0,0.0,0.0,0.0,0.0,0.0,0.0,0.0,0.0,0.0,0.0,0.0,0.0,0.0,0.0,0.0,0.0,0.0,0.0,0.0,0.0,0.0,0.0,0.0,0.0,0.0,0.0,0.0,0.0,0.0,0.0,0.0,0.0,0.0,0.0,0.0,0.0,0.0,0.0,0.0,0.0,-5.1116,-5.256,-5.5883,-5.6819,-5.7483,-5.8061,-5.6928,-5.5545,-5.4,-5.2512,0.0,0.0,0.0,0.0,0.0,0.0,0.0,0.0,0.0,0.0,0.0,0.0,0.0,0.0,0.0,0.0,0.0,0.0,0.0,0.0,0.0,0.0,0.0,0.0,0.0,0.0,0.0,0.0,0.0,0.0,0.0,0.0,0.0,0.0,0.0,0.0,0.0,0.0,0.0,0.0,0.0,0.0,0.0,0.0,0.0,0.0,0.0,0.0,0.0,0.0,0.0,0.0,0.0,0.0,0.0,0.0,0.0,0.0,0.0,0.0,0.0,0.0,0.0,0.0,0.0,0.0,0.0,0.0,0.0,0.0,0.0,0.0,0.0,0.0,0.0,0.0,0.0,0.0,0.0,0.0,0.0,0.0,0.0,0.0,0.0,0.0,0.0,0.0,0.0,0.0,0.0,0.0,0.0,0.0,0.0,0.0,0.0,0.0,0.0,0.0,0.0,0.0,-5.2167,-5.3331,-5.5261,-5.6012,-5.6649,-5.7363,-5.5935,-5.4663,-5.3775,-5.1723,0.0,0.0,0.0,0.0,0.0,0.0,0.0,0.0,0.0,0.0,0.0,0.0,0.0,0.0,0.0,0.0,0.0,0.0,0.0,0.0,0.0,0.0,0.0,0.0,0.0,0.0,0.0,0.0,0.0,0.0,0.0,0.0,0.0,0.0,0.0,0.0,0.0,0.0,0.0,0.0,0.0,0.0,0.0,0.0,0.0,0.0,0.0,0.0,0.0,0.0,0.0,0.0,0.0,0.0,0.0,0.0,0.0,0.0,0.0,0.0,0.0,0.0,0.0,0.0,0.0,0.0,0.0,0.0,0.0,0.0,0.0,0.0,0.0,0.0,0.0,0.0,0.0,0.0,0.0,0.0,0.0,0.0,0.0,0.0,0.0,0.0,0.0,0.0,0.0,0.0,0.0,0.0,0.0,0.0,0.0,0.0,0.0,0.0,0.0,0.0,0.0,0.0,-5.1685,-5.3743,-5.4572,-5.4726,-5.5385,-5.6825,-5.4736,-5.3334,-5.3246,-5.1026,0.0,0.0,0.0,0.0,0.0,0.0,0.0,0.0,0.0,0.0,0.0,0.0,0.0,0.0,0.0,0.0,0.0,0.0,0.0,0.0,0.0,0.0,0.0,0.0,0.0,0.0,0.0,0.0,0.0,0.0,0.0,0.0,0.0,0.0,0.0,0.0,0.0,0.0,0.0,0.0,0.0,0.0,0.0,0.0,0.0,0.0,0.0,0.0,0.0,0.0,0.0,0.0,0.0,0.0,0.0,0.0,0.0,0.0,0.0,0.0,0.0,0.0,0.0,0.0,0.0,0.0,0.0,0.0,0.0,0.0,0.0,0.0,0.0,0.0,0.0,0.0,0.0,0.0,0.0,0.0,0.0,0.0,0.0,0.0,0.0,0.0,0.0,0.0,0.0,0.0,0.0,0.0,0.0,0.0,0.0,0.0,0.0,0.0,0.0,0.0,0.0,0.0,-5.0101,-5.2024,-5.3744,-5.4328,-5.4644,-5.4774,-5.3877,-5.2648,-5.1121,0.0,0.0,0.0,0.0,0.0,0.0,0.0,0.0,0.0,0.0,0.0,0.0,0.0,0.0,0.0,0.0,0.0,0.0,0.0,0.0,0.0,0.0,0.0,0.0,0.0,0.0,0.0,0.0,0.0,0.0,0.0,0.0,0.0,0.0,0.0,0.0,0.0,0.0,0.0,0.0,0.0,0.0,0.0,0.0,0.0,0.0,0.0,0.0,0.0,0.0,0.0,0.0,0.0,0.0,0.0,0.0,0.0,0.0,0.0,0.0,0.0,0.0,0.0,0.0,0.0,0.0,0.0,0.0,0.0,0.0,0.0,0.0,0.0,0.0,0.0,0.0,0.0,0.0,0.0,0.0,0.0,0.0,0.0,0.0,0.0,0.0,0.0,0.0,0.0,0.0,0.0,0.0,0.0,0.0,0.0,0.0,0.0,0.0,0.0,0.0,0.0,0.0,-4.7206,-4.9083,-5.0994,-5.2806,-5.3448,-5.3695,-5.3502,-5.2997,-5.1829,-4.982,0.0,0.0,0.0,0.0,0.0,0.0,0.0,0.0,0.0,0.0,0.0,0.0,0.0,0.0,0.0,0.0,0.0,0.0,0.0,0.0,0.0,0.0,0.0,0.0,0.0,0.0,0.0,0.0,0.0,0.0,0.0,0.0,0.0,0.0,0.0,0.0,0.0,0.0,0.0,0.0,0.0,0.0,0.0,0.0,0.0,0.0,0.0,0.0,0.0,0.0,0.0,0.0,0.0,0.0,0.0,0.0,0.0,0.0,0.0,0.0,0.0,0.0,0.0,0.0,0.0,0.0,0.0,0.0,0.0,0.0,0.0,0.0,0.0,0.0,0.0,0.0,0.0,0.0,0.0,0.0,0.0,0.0,0.0,0.0,0.0,0.0,0.0,0.0,0.0,0.0,0.0,0.0,0.0,0.0,0.0,0.0,0.0,0.0,0.0,0.0,0.0,0.0,-4.6322,-4.892,-5.1062,-5.1786,-5.1852,-5.2298,-5.3345,-5.1988,-5.0647,0.0,0.0,0.0,0.0,0.0,0.0,0.0,0.0,0.0,0.0,0.0,0.0,0.0,0.0,0.0,0.0,0.0,0.0,0.0,0.0,0.0,0.0,0.0,0.0,0.0,0.0,0.0,0.0,0.0,0.0,0.0,0.0,0.0,0.0,0.0,0.0,0.0,0.0,0.0,0.0,0.0,0.0,0.0,0.0,0.0,0.0,0.0,0.0,0.0,0.0,0.0,0.0,0.0,0.0,0.0,0.0,0.0,0.0,0.0,0.0,0.0,0.0,0.0,0.0,0.0,0.0,0.0,0.0,0.0,0.0,0.0,0.0,0.0,0.0,0.0,0.0,0.0,0.0,0.0,0.0,0.0,0.0,0.0,0.0,0.0,0.0,0.0,0.0,0.0,0.0,0.0,0.0,0.0,0.0,0.0,0.0,0.0,0.0,0.0,0.0,0.0,0.0,0.0,-4.5436,-4.7584,-4.9305,-5.0052,-5.0117,-4.9856,-4.9181,-4.8828,-4.7815,-4.5826,0.0,0.0,0.0,0.0,0.0,0.0,0.0,0.0,0.0,0.0,0.0,0.0,0.0,0.0,0.0,0.0,0.0,0.0,0.0,0.0,0.0,0.0,0.0,0.0,0.0,0.0,0.0,0.0,0.0,0.0,0.0,0.0,0.0,0.0,0.0,0.0,0.0,0.0,0.0,0.0,0.0,0.0,0.0,0.0,0.0,0.0,0.0,0.0,0.0,0.0,0.0,0.0,0.0,0.0,0.0,0.0,0.0,0.0,0.0,0.0,0.0,0.0,0.0,0.0,0.0,0.0,0.0,0.0,0.0,0.0,0.0,0.0,0.0,0.0,0.0,0.0,0.0,0.0,0.0,0.0,0.0,0.0,0.0,0.0,0.0,0.0,0.0,0.0,0.0,0.0,0.0,0.0,0.0,0.0,0.0,0.0,0.0,0.0,0.0,0.0,0.0,0.0,-4.4107,-4.6003,-4.7567,-4.8301,-4.8403,-4.8072,-4.7361,-4.7151,-4.619,-4.4135,0.0,0.0,0.0,0.0,0.0,0.0,0.0,0.0,0.0,0.0,0.0,0.0,0.0,0.0,0.0,0.0,0.0,0.0,0.0,0.0,0.0,0.0,0.0,0.0,0.0,0.0,0.0,0.0,0.0,0.0,0.0,0.0,0.0,0.0,0.0,0.0,0.0,0.0,0.0,0.0,0.0,0.0,0.0,0.0,0.0,0.0,0.0,0.0,0.0,0.0,0.0,0.0,0.0,0.0,0.0,0.0,0.0,0.0,0.0,0.0,0.0,0.0,0.0,0.0,0.0,0.0,0.0,0.0,0.0,0.0,0.0,0.0,0.0,0.0,0.0,0.0,0.0,0.0,0.0,0.0,0.0,0.0,0.0,0.0,0.0,0.0,0.0,0.0,0.0,0.0,0.0,0.0,0.0,0.0,0.0,0.0,0.0,0.0,0.0,0.0,0.0,0.0,-4.2611,-4.4325,-4.5866,-4.6562,-4.6655,-4.6733,-4.6907,-4.6323,-4.5338,-4.3856,0.0,0.0,0.0,0.0,0.0,0.0,0.0,0.0,0.0,0.0,0.0,0.0,0.0,0.0,0.0,0.0,0.0,0.0,0.0,0.0,0.0,0.0,0.0,0.0,0.0,0.0,0.0,0.0,0.0,0.0,0.0,0.0,0.0,0.0,0.0,0.0,0.0,0.0,0.0,0.0,0.0,0.0,0.0,0.0,0.0,0.0,0.0,0.0,0.0,0.0,0.0,0.0,0.0,0.0,0.0,0.0,0.0,0.0,0.0,0.0,-4.7831,-4.9763,0.0,0.0,0.0,0.0,0.0,0.0,0.0,0.0,0.0,0.0,0.0,0.0,0.0,0.0,0.0,0.0,0.0,0.0,0.0,0.0,0.0,0.0,0.0,0.0,0.0,0.0,0.0,0.0,0.0,0.0,0.0,0.0,0.0,0.0,0.0,0.0,0.0,0.0,0.0,0.0,-4.1759,-4.3457,-4.467,-4.4831,-4.4861,-4.4669,-4.4209,-4.3735,-4.3063,-4.2181,-4.1147,0.0,0.0,0.0,0.0,0.0,0.0,0.0,0.0,0.0,0.0,0.0,0.0,0.0,0.0,0.0,0.0,0.0,0.0,0.0,0.0,0.0,0.0,0.0,0.0,0.0,0.0,0.0,0.0,0.0,0.0,0.0,0.0,0.0,0.0,0.0,0.0,0.0,0.0,0.0,0.0,0.0,0.0,0.0,0.0,0.0,0.0,0.0,0.0,0.0,0.0,0.0,0.0,0.0,0.0,0.0,0.0,0.0,0.0,0.0,-4.517,-4.6815,0.0,0.0,0.0,0.0,0.0,0.0,0.0,0.0,0.0,0.0,0.0,0.0,0.0,0.0,0.0,0.0,0.0,0.0,0.0,0.0,0.0,0.0,0.0,0.0,0.0,0.0,0.0,0.0,0.0,0.0,0.0,0.0,0.0,0.0,0.0,0.0,0.0,0.0,0.0,0.0,-4.1048,-4.2698,-4.3798,-4.3798,-4.3798,-4.3678,-4.3319,-4.2561,-4.1949,-4.1599,-4.0155,0.0,0.0,0.0,0.0,0.0,0.0,0.0,0.0,0.0,0.0,0.0,0.0,0.0,0.0,0.0,0.0,0.0,0.0,0.0,0.0,0.0,0.0,0.0,0.0,0.0,0.0,0.0,0.0,0.0,0.0,0.0,0.0,0.0,0.0,0.0,0.0,0.0,0.0,0.0,0.0,0.0,0.0,0.0,0.0,0.0,0.0,0.0,0.0,0.0,0.0,0.0,0.0,0.0,-4.3085,-4.3079,-4.297,-4.2385,-4.2433,-4.2807,-4.227,-4.3175,-4.5132,-4.5932,0.0,0.0,0.0,0.0,0.0,0.0,0.0,0.0,0.0,0.0,0.0,0.0,0.0,0.0,0.0,0.0,0.0,0.0,0.0,0.0,0.0,0.0,-3.9769,-3.9347,-3.9392,-3.9794,-4.0689,0.0,0.0,0.0,0.0,0.0,0.0,0.0,0.0,0.0,0.0,0.0,-4.0562,-4.2161,-4.329,-4.329,-4.329,-4.329,-4.329,-4.2132,-4.1452,-4.1572,-3.9671,-3.868,0.0,0.0,0.0,0.0,0.0,0.0,0.0,0.0,0.0,0.0,0.0,0.0,0.0,0.0,0.0,0.0,0.0,0.0,0.0,0.0,0.0,0.0,0.0,0.0,0.0,0.0,0.0,0.0,0.0,0.0,0.0,0.0,-5.1635,-5.1635,0.0,0.0,0.0,0.0,0.0,0.0,0.0,0.0,0.0,0.0,0.0,0.0,0.0,-4.2849,-4.3249,-4.2163,-4.1557,-4.1557,-4.1557,-4.1355,-4.0897,-4.0821,-4.0567,-4.0211,-4.0084,0.0,-4.3787,-4.3901,0.0,0.0,0.0,0.0,0.0,0.0,0.0,0.0,0.0,0.0,0.0,0.0,0.0,0.0,0.0,0.0,0.0,0.0,0.0,0.0,0.0,0.0,-4.0271,-3.8597,-3.8999,-3.9794,-3.9918,-3.8663,-3.7158,-3.5947,-3.5751,-3.592,0.0,0.0,0.0,0.0,0.0,0.0,-4.0371,-4.2111,-4.329,-4.329,-4.329,-4.329,-4.329,-4.2132,-4.143,-4.1423,-3.9529,-3.8736,-3.9453,-3.8403,0.0,0.0,0.0,0.0,0.0,0.0,0.0,0.0,0.0,0.0,0.0,0.0,0.0,0.0,0.0,0.0,0.0,0.0,0.0,0.0,0.0,0.0,0.0,0.0,0.0,0.0,0.0,0.0,0.0,-5.034,-5.0135,-4.9042,-4.8608,-4.8044,0.0,0.0,0.0,0.0,0.0,0.0,0.0,0.0,0.0,-4.2655,-4.206,-4.1875,-4.2131,-4.1597,-4.1275,-4.1275,-4.1275,-4.1175,-4.0924,-4.0651,-4.0551,-4.0576,-3.9973,-4.0492,-4.1865,-4.2266,-4.2433,-4.2499,0.0,0.0,0.0,0.0,-4.1654,-4.1314,-4.2251,-4.2389,-4.1929,-4.1278,0.0,0.0,0.0,0.0,0.0,0.0,0.0,-4.0087,-3.9585,-3.9566,-3.9596,-3.907,-3.9347,-3.9645,-3.9362,-3.8312,-3.7366,-3.7179,-3.7167,-3.6736,-3.5255,-3.5013,0.0,0.0,0.0,-3.8321,-3.8921,-4.0989,-4.2345,-4.2345,-4.29,-4.2942,-4.2008,-4.1047,-4.011,-3.9079,-3.7539,-3.7055,-3.7991,-3.7523,-3.7548,0.0,0.0,0.0,0.0,0.0,0.0,0.0,0.0,0.0,0.0,0.0,0.0,0.0,0.0,0.0,0.0,0.0,0.0,0.0,0.0,0.0,0.0,0.0,0.0,0.0,0.0,0.0,0.0,-4.9331,-4.881,-4.711,-4.6988,-4.655,0.0,0.0,0.0,0.0,0.0,0.0,-4.2161,-4.2081,-4.176,-4.0963,-4.0908,-4.1146,-4.1702,-4.1702,-4.1702,-4.1702,-4.1702,-4.1681,-4.153,-4.0978,-4.0877,-4.1025,-4.0124,-3.9923,-4.0327,-4.0873,-4.1403,-4.18,-4.18,-4.1376,-4.0918,-4.1537,-4.1376,-4.0999,-4.2145,-4.2226,-4.1672,-4.1214,-4.0864,-4.0353,-3.8944,0.0,0.0,0.0,0.0,-3.9641,-4.0083,-3.9622,-3.9195,-3.9597,-3.9697,-3.9572,-3.917,-3.8517,-3.7998,-3.8078,-3.8064,-3.7358,-3.5207,-3.5004,0.0,-3.5217,-3.6396,-3.751,-3.8075,-3.9943,-4.1169,-4.1169,-4.1802,-4.1674,-4.0449,-3.9596,-3.858,-3.73,-3.6156,-3.5857,-3.6618,-3.6843,-3.7088,-3.7372,0.0,0.0,0.0,0.0,0.0,0.0,0.0,0.0,0.0,0.0,0.0,0.0,0.0,0.0,0.0,0.0,0.0,0.0,0.0,0.0,0.0,0.0,0.0,0.0,0.0,0.0,0.0,0.0,0.0,-4.6477,-4.6739,0.0,0.0,0.0,0.0,-4.328,-4.2133,-4.0769,-3.922,-3.9109,-3.9348,-3.9873,-3.9896,-4.0837,-4.2886,-4.2886,-4.2886,-4.2886,-4.2886,-4.2665,-4.2137,-4.1555,-4.0974,-4.0526,-3.9948,-3.9722,-3.9722,-3.98,-3.9826,-3.9853,-3.9853,-3.9499,-3.907,-3.9625,-3.9499,-3.9095,-3.9676,-3.9878,-3.9827,-3.9802,-3.907,-3.8187,-3.8037,-3.7707,0.0,0.0,-3.8087,-3.8919,-3.8969,-3.9296,-3.9672,-3.9697,-3.9697,-3.9697,-3.9672,-3.8793,-3.7712,-3.6723,-3.6067,-3.5805,-3.6122,0.0,-3.5854,-3.7455,-3.7786,-3.8103,-3.8751,-3.9542,-4.0,-4.0,-3.9532,-3.9186,-3.9073,-3.7993,-3.73,-3.7191,-3.6515,-3.6196,-3.6235,-3.6608,-3.6814,-3.6859,-3.6704,0.0,0.0,0.0,0.0,0.0,0.0,0.0,0.0,0.0,0.0,0.0,0.0,0.0,0.0,0.0,0.0,0.0,0.0,0.0,0.0,0.0,0.0,0.0,0.0,0.0,0.0,0.0,0.0,-4.4874,-4.5463,0.0,-4.2866,-4.2233,-4.1444,-4.0392,-3.9861,-3.9556,-3.9323,-3.9049,-3.9017,-3.9199,-3.8961,-3.9162,-3.9873,-4.0961,-4.1476,-4.1476,-4.214,-4.2414,-4.2187,-4.1229,-4.0902,-4.1003,-4.0099,-3.9898,-4.0199,-3.9848,-3.9697,-3.9697,-3.9697,-3.9572,-3.9421,-3.9622,-3.9572,-3.9421,-3.9622,-3.9697,-3.9697,-3.9697,-3.917,-3.8567,-3.8567,-3.8417,-3.8266,-3.8266,-3.8818,-3.9396,-3.9396,-3.9546,-3.9697,-3.9697,-3.9697,-3.9697,-3.9697,-3.8793,-3.7889,-3.7487,-3.6684,-3.5919,-3.5392,-3.5366,-3.5526,-3.5789,-3.6119,-3.6605,-3.7222,-3.8111,-3.8738,-3.8738,-3.8901,-3.8568,-3.7488,-3.6623,-3.5698,-3.4643,-3.4324,-3.4526,-3.5197,-3.5344,-3.5586,-3.5853,-3.6395,-3.6085,0.0,0.0,0.0,0.0,0.0,0.0,0.0,0.0,0.0,0.0,0.0,0.0,0.0,0.0,0.0,0.0,0.0,0.0,0.0,0.0,0.0,0.0,0.0,0.0,0.0,-4.537,-4.5037,-4.3922,-4.3782,-4.3084,-4.1389,-4.0844,-4.0158,-3.9065,-3.8965,-3.8913,-3.8685,-3.831,-3.813,-3.813,-3.8192,-3.8223,-3.8223,-4.0361,-4.1037,-4.033,-4.162,-4.2112,-4.1856,-4.0927,-4.0701,-4.0949,-4.0099,-3.9898,-4.0199,-3.9848,-3.9697,-3.9697,-3.9697,-3.9697,-3.9697,-3.9697,-3.9697,-3.9697,-3.9697,-3.9697,-3.9697,-3.9697,-3.9446,-3.9145,-3.9145,-3.9145,-3.9145,-3.9145,-3.9421,-3.9697,-3.9697,-3.9697,-3.9697,-3.9697,-3.9697,-3.9647,-3.9446,-3.8668,-3.7939,-3.7764,-3.6985,-3.6179,-3.5403,-3.5579,-3.5705,-3.5328,-3.5579,-3.5956,-3.6355,-3.6903,-3.7208,-3.7208,-3.7263,-3.6844,-3.5722,-3.5089,-3.4281,-3.3179,-3.3111,-3.3352,-3.3809,-3.4196,-3.446,-3.4512,-3.5321,-3.4867,-3.3152,0.0,0.0,0.0,0.0,0.0,0.0,0.0,0.0,0.0,0.0,0.0,0.0,0.0,0.0,0.0,0.0,0.0,0.0,0.0,0.0,0.0,0.0,0.0,-4.5451,-4.4036,-4.3072,-4.3622,-4.17,-4.0558,-4.1046,-4.0106,-3.9477,-3.9415,-3.9415,-3.8666,-3.7106,-3.6687,-3.6436,-3.6478,-3.7588,-3.8164,-3.8223,-4.1362,-4.1879,-3.9807,-4.1422,-4.1831,-4.125,-4.0752,-4.0501,-4.045,-3.9923,-3.9697,-3.9697,-3.9697,-3.9697,-3.9697,-3.9697,-3.9697,-3.9697,-3.9697,-3.9697,-3.9697,-3.9697,-3.9697,-3.9697,-3.9697,-3.9697,-3.9697,-3.9697,-3.9697,-3.9697,-3.9697,-3.9697,-3.9697,-3.9697,-3.9697,-3.9697,-3.9697,-3.9697,-3.9546,-3.9045,-3.8417,-3.7839,-3.7287,-3.6782,-3.6405,-3.6405,-3.6405,-3.6405,-3.6405,-3.6405,0.0,-3.6405,-3.5881,-3.5508,-3.5508,-3.455,-3.3897,-3.3897,-3.3395,-3.3111,-3.3111,-3.3068,-3.2817,-3.2265,-3.3238,-3.3516,-3.3027,-3.338,-3.2925,-3.1598,0.0,0.0,0.0,0.0,0.0,0.0,0.0,0.0,0.0,0.0,0.0,0.0,0.0,0.0,0.0,0.0,0.0,0.0,0.0,0.0,0.0,-4.1456,-4.1546,-4.1288,-4.1107,-4.108,-4.1215,-4.108,-4.0548,-3.9452,-3.9024,-3.835,-3.7075,-3.6942,-3.6602,-3.5924,-3.5466,-3.5581,-3.6499,-3.6489,-3.7023,-3.8164,-4.0245,-4.0755,-3.9807,-4.0997,-4.1279,-4.0727,-4.0174,-3.9923,-3.9898,-3.9747,-3.9697,-3.9697,-3.9697,-3.9697,-3.9697,-3.9697,-3.9697,-3.9697,-3.9697,-3.9697,-3.9697,-3.9697,-3.9697,-3.9697,-3.9697,-3.9697,-3.9697,-3.9697,-3.9697,-3.9697,-3.9697,-3.9697,-3.9697,-3.9697,-3.9697,-3.9697,-3.9697,-3.9697,-3.9546,-3.9045,-3.8417,-3.7839,-3.7287,-3.6782,-3.6405,-3.6405,-3.6405,-3.6405,-3.6405,-3.6405,-3.6405,-3.6405,-3.5881,-3.5508,-3.5508,-3.455,-3.3897,-3.3897,-3.3395,-3.3111,-3.3111,-3.2692,-3.2566,-3.2817,-3.271,-3.2916,-3.3582,-3.3235,-3.2508,0.0,0.0,0.0,0.0,0.0,0.0,0.0,0.0,0.0,0.0,0.0,0.0,0.0,0.0,0.0,0.0,0.0,0.0,0.0,0.0,0.0,0.0,-4.0208,-3.9628,-3.8694,-3.9325,-4.0059,-4.0628,-3.9715,-3.919,-3.9649,-3.8353,-3.7709,-3.8154,-3.6696,-3.5961,-3.6415,-3.5856,-3.5756,-3.6499,-3.7323,-3.7963,-3.8223,-4.0263,-4.0644,-3.9418,-4.0449,-4.0701,-4.0149,-3.9848,-3.9697,-3.9697,-3.9697,-3.9697,-3.9697,-3.9697,-3.9697,-3.9697,0.0,0.0,0.0,0.0,-3.9697,-3.9697,-3.9697,-3.9697,-3.9697,-3.9697,-3.9697,-3.9697,-3.9697,-3.9697,-3.9697,-3.9697,-3.9697,-3.9697,-3.9697,-3.9697,-3.9647,-3.9396,-3.9346,-3.912,-3.8341,-3.7889,-3.7487,-3.6983,-3.6631,0.0,-3.6405,-3.6405,-3.6405,-3.6405,-3.6405,-3.6405,-3.6405,-3.568,-3.5157,-3.5157,-3.4223,-3.3545,-3.3545,-3.3269,0.0,0.0,0.0,-3.2616,-3.2717,-3.2164,0.0,0.0,0.0,0.0,0.0,-3.1849,0.0,0.0,-3.2057,-3.1964,0.0,0.0,0.0,0.0,0.0,0.0,0.0,0.0,0.0,0.0,0.0,0.0,0.0,0.0,0.0,0.0,-3.9537,-3.8112,-3.7398,-3.834,-3.9449,-4.0561,-3.8129,-3.7508,-4.0602,-3.8287,-3.7888,-4.0988,-3.7937,-3.6572,-3.8015,-3.7255,0.0,0.0,0.0,-3.9989,-3.8757,-4.1023,-4.1175,-3.9165,-4.0088,-4.0224,-3.9697,-3.9697,-3.9697,-3.9697,-3.9697,-3.9697,-3.9697,-3.9697,-3.9697,-3.9697,-3.9697,-3.9697,-3.9697,-3.9697,-3.9697,-3.9697,-3.9697,0.0,0.0,-3.9697,-3.9697,-3.9697,-3.9697,-3.9697,-3.9697,-3.9697,-3.9697,-3.9697,-3.9697,-3.9647,-3.9471,-3.8994,-3.8869,-3.8467,-3.7412,-3.7186,-3.701,-3.6505,-3.6405,-3.6405,-3.6405,-3.6405,-3.6405,-3.6405,-3.6405,-3.6405,-3.6405,-3.5454,-3.4781,-3.4781,-3.3822,0.0,-3.3212,-3.3119,-3.3111,-3.3111,-3.3111,-3.2817,-3.224,-3.1813,-3.1537,-3.1486,-3.1486,-3.1461,-3.1386,-3.1938,-3.1964,-3.1486,-3.1486,-3.1461,0.0,0.0,0.0,0.0,0.0,0.0,0.0,0.0,0.0,0.0,0.0,0.0,0.0,0.0,0.0,-4.1586,-3.9568,-3.7834,-3.7395,-3.7783,-3.7997,-3.7634,-3.7867,-3.8353,-3.9059,-3.9758,-4.0472,-4.1117,-4.0074,-3.9379,-3.9361,-3.8808,-3.8844,-3.9802,-4.035,-4.1076,-4.2069,-4.2133,-4.1747,-4.0819,-4.0617,0.0,-3.9697,-3.9697,-3.9697,-3.9697,-3.9697,-3.9697,-3.9697,-3.9697,-3.9697,-3.9697,-3.9697,-3.9697,-3.9697,-3.9697,-3.9697,-3.9697,-3.9697,-3.9697,-3.9697,-3.9697,-3.9697,-3.9697,-3.9697,-3.9697,0.0,-3.9697,-3.9697,-3.9697,-3.9697,-3.9371,-3.9045,-3.8944,-3.8517,-3.799,-3.7337,-3.7186,-3.701,-3.6505,-3.6405,-3.6405,-3.6405,-3.6405,-3.6405,-3.6405,-3.6405,-3.6405,-3.6405,-3.578,-3.5332,-3.5332,-3.4399,-3.3746,-3.3746,-3.3345,-3.3111,-3.3111,-3.3111,-3.2817,-3.224,-3.2566,-3.2541,-3.2064,-3.2064,-3.1838,-3.1386,-3.1938,-3.2164,-3.2064,-3.2064,-3.1813,0.0,0.0,0.0,0.0,0.0,0.0,0.0,0.0,0.0,0.0,0.0,-4.6122,-4.627,0.0,-4.3014,-4.3775,-4.2097,-4.0654,-4.0724,-4.0654,-3.9973,-3.8145,-3.8497,-3.9491,-4.0988,-4.1181,-4.1884,-4.3606,-4.1427,-4.0259,-4.0953,-4.0214,-4.0036,-4.0592,-4.1362,-4.2058,-4.2559,-4.2032,-4.148,-4.0874,-4.0375,-3.9948,-3.9697,-3.9697,-3.9697,-3.9697,-3.9697,-3.9697,-3.9697,-3.9697,-3.9697,-3.9697,-3.9697,-3.9697,-3.9697,-3.9697,-3.9697,-3.9697,-3.9697,-3.9697,-3.9697,-3.9697,-3.9697,-3.9697,-3.9697,-3.9697,-3.9697,-3.9697,-3.9697,-3.9697,-3.9697,-3.927,-3.8793,-3.8517,-3.8015,-3.7437,-3.6933,-3.6832,-3.6732,-3.6455,-3.6405,-3.6405,-3.6405,-3.6405,-3.6405,-3.6405,-3.6405,-3.6405,-3.6405,-3.5881,-3.5508,-3.5508,-3.4756,-3.4198,-3.3922,-3.3395,-3.3111,-3.3111,-3.3111,-3.2943,-3.2641,-3.2918,-3.2943,-3.2641,-3.2641,-3.2516,-3.224,-3.2516,-3.2641,-3.2641,-3.2641,-3.2491,0.0,0.0,0.0,0.0,0.0,0.0,0.0,-4.0686,-4.2127,-4.3014,-4.4415,-4.5853,-4.7344,-4.6085,-4.5181,-4.6138,-4.4792,-4.3645,-4.4049,-4.3758,-4.277,-4.0772,-4.038,-4.111,-4.3443,-4.2769,-4.331,-4.597,-4.2708,-4.121,-4.2519,-4.1605,-4.1076,-4.1076,-4.2319,-4.271,-4.2213,-4.1605,-4.1,-4.0501,-3.9948,-3.9697,-3.9697,-3.9697,-3.9697,-3.9697,-3.9697,-3.9697,-3.9697,-3.9697,-3.9697,-3.9697,-3.9697,-3.9697,-3.9697,-3.9697,-3.9697,-3.9697,-3.9697,-3.9697,-3.9697,-3.9697,-3.9697,-3.9697,-3.9697,-3.9697,-3.9697,-3.9697,-3.9697,-3.9672,-3.9572,-3.912,-3.8567,-3.799,-3.7412,-3.6958,-3.6505,-3.6405,-3.6405,-3.6405,-3.6405,-3.6405,-3.6405,-3.6405,-3.6405,-3.6405,-3.6405,-3.6405,-3.6405,-3.5981,-3.5658,-3.5658,-3.5157,-3.4625,-3.3947,-3.3395,-3.3111,-3.3111,-3.3111,-3.3111,-3.3111,-3.3111,-3.3111,-3.3111,-3.3111,-3.3111,-3.3111,-3.3111,-3.3111,-3.3111,-3.3111,-3.3111,-4.5843,-4.423,-4.2245,-4.0372,-3.9842,-3.9966,0.0,-4.1043,-4.1711,-4.3978,-4.4857,-4.6078,-4.8857,-4.7426,-4.6251,-4.7341,-4.5552,-4.4049,-4.4094,-4.4049,-4.4301,-4.5155,-4.4484,-4.3836,-4.3716,-4.4951,-4.5714,-4.5623,-4.4618,-4.3929,-4.3687,-4.3062,-4.2737,-4.2737,-4.293,-4.271,-4.2213,-4.1605,-4.1,-4.0501,-3.9948,-3.9697,-3.9697,-3.9697,-3.9697,-3.9697,-3.9697,-3.9697,-3.9697,-3.9697,-3.9697,-3.9697,-3.9697,-3.9697,-3.9697,-3.9697,-3.9697,-3.9697,-3.9697,-3.9697,-3.9697,-3.9697,-3.9697,-3.9697,-3.9697,-3.9697,-3.9697,-3.9697,-3.9697,-3.9572,-3.9094,-3.8542,-3.7965,-3.7412,-3.6908,-3.648,-3.643,-3.6405,-3.6405,-3.6405,-3.6405,-3.6405,-3.6405,-3.6405,-3.6405,-3.6405,-3.6405,-3.6405,-3.6405,-3.6355,-3.6329,-3.6329,-3.578,-3.4981,-3.3997,-3.3395,-3.3111,-3.3111,-3.3111,-3.3111,-3.3111,-3.3111,-3.3111,-3.3111,-3.3111,-3.3111,-3.3111,-3.3111,-3.3111,-3.3111,-3.3111,-3.3111,-4.5294,-4.377,-4.2014,-3.9662,-3.9174,-3.9215,-3.8666,-3.9474,-4.071,-4.2059,-4.4124,-4.6281,-4.813,-4.824,-4.8338,-4.9166,-4.8161,-4.7335,-4.7335,-4.7335,-4.722,-4.7106,-4.6718,-4.6252,-4.5736,-4.6052,-4.6075,-4.5522,-4.4945,-4.4392,-4.384,-4.3263,-4.2986,-4.2986,-4.2986,-4.2559,-4.1681,-4.1401,-4.0849,-4.0023,-3.9798,-3.9697,-3.9697,-3.9697,-3.9697,-3.9697,-3.9697,-3.9697,-3.9697,-3.9697,-3.9697,-3.9697,-3.9697,-3.9697,-3.9697,-3.9697,-3.9697,-3.9697,-3.9697,-3.9697,-3.9697,-3.9697,-3.9697,-3.9697,-3.9697,-3.9697,-3.9697,-3.9697,-3.9471,-3.917,-3.8969,-3.8191,-3.7462,-3.7236,-3.6807,-3.6405,-3.6405,-3.6405,-3.6405,-3.6405,-3.6405,-3.6405,-3.6405,-3.6405,-3.6405,-3.6405,-3.6405,-3.6405,-3.6405,-3.6405,-3.6405,-3.6405,-3.5579,-3.4831,-3.4424,-3.3571,-3.3111,-3.3111,-3.3111,-3.3111,-3.3111,-3.3111,-3.3111,-3.3111,-3.3111,-3.3111,-3.3111,-3.3111,-3.3111,-3.3111,-3.3111,-3.3111,-4.412,-4.3044,-4.184,-3.8666,-3.8253,-3.8343,-3.7164,-3.8176,-3.9723,-4.1124,-4.3602,-4.6072,-4.8069,-4.9068,-4.9766,-5.0318,-4.9967,-4.959,-4.959,-4.9464,-4.9063,-4.8234,-4.7883,-4.7556,-4.7179,-4.6627,-4.6024,-4.5296,-4.4869,-4.4317,-4.3614,-4.3187,-4.2986,-4.2986,-4.2986,-4.2459,-4.13,-4.1275,-4.0724,-3.9697,-3.9697,-3.9697,-3.9697,-3.9697,-3.9697,-3.9697,-3.9697,-3.9697,-3.9697,-3.9697,-3.9697,-3.9697,-3.9697,-3.9697,-3.9697,-3.9697,-3.9697,-3.9697,-3.9697,-3.9697,-3.9697,-3.9697,-3.9697,-3.9697,-3.9697,-3.9697,-3.9697,-3.9697,-3.9295,-3.8894,-3.8668,-3.7914,-3.7136,-3.6985,-3.6707,-3.6405,-3.6405,-3.6405,-3.6405,-3.6405,-3.6405,-3.6405,-3.6405,-3.6405,-3.6405,-3.6405,-3.6405,-3.6405,-3.6405,-3.6405,-3.6355,-3.6157,-3.5278,-3.463,-3.45,-3.3621,-3.3111,-3.3111,-3.3111,-3.3111,-3.3111,-3.3111,-3.3111,-3.3111,-3.3111,-3.3111,-3.3111,-3.3111,-3.3111,-3.3111,-3.3111,-3.2896,-4.1804,-4.1223,-4.0892,-3.7024,-3.671,-3.7336,-3.7285,-3.7598,-3.901,-4.2608,-4.3758,-4.5415,-4.9545,-4.9902,-4.9766,-5.0318,-4.9967,-4.959,-4.959,-4.9138,-4.8786,-4.8736,-4.7807,-4.7093,-4.7068,-4.6627,-4.5849,-4.4744,-4.4644,-4.4141,-4.3062,-4.2986,-4.2986,-4.2986,-4.2986,-4.2459,-4.13,-4.1275,-4.0724,-3.9697,-3.9697,-3.9697,-3.9697,-3.9697,-3.9697,-3.9697,-3.9697,-3.9697,-3.9697,-3.9697,-3.9697,-3.9697,-3.9697,-3.9697,-3.9697,-3.9697,-3.9697,-3.9697,-3.9697,-3.9697,-3.9697,-3.9697,-3.9697,-3.9697,-3.9697,-3.9697,-3.9697,-3.9697,-3.9295,-3.8793,-3.8191,-3.7613,-3.7061,-3.6556,-3.6405,-3.6405,-3.6405,-3.6405,-3.6405,-3.6405,-3.6405,-3.6405,-3.6405,-3.6405,-3.6405,-3.6405,-3.6405,-3.6405,-3.6405,-3.6405,-3.6157,-3.5583,-3.5006,-3.45,-3.3972,-3.3395,-3.3111,-3.3111,-3.3111,-3.3111,-3.3111,-3.3111,-3.3111,-3.3111,-3.3111,-3.3111,-3.3111,-3.3111,-3.3111,-3.3111,-3.3111,-3.2413,-4.3284,-4.2832,-4.2701,-4.1283,-4.113,-4.1452,-4.1774,-4.1898,-4.2354,-4.3596,-4.4684,-4.5869,-4.7678,-4.859,-4.9238,-4.9791,-4.9715,-4.959,-4.959,-4.9439,-4.9038,-4.8284,-4.7883,-4.738,-4.6652,-4.6075,-4.5447,-4.4694,-4.4292,-4.3765,-4.3011,-4.2986,-4.2986,-4.2986,-4.2986,-4.2459,-4.13,-4.1275,-4.0724,-3.9697,-3.9697,-3.9697,-3.9697,-3.9697,-3.9697,-3.9697,-3.9697,-3.9697,-3.9697,-3.9697,-3.9697,-3.9697,-3.9697,-3.9697,-3.9697,-3.9697,-3.9077,-3.8348,-3.9362,-3.9697,-3.9697,-3.9697,-3.9697,-3.9697,-3.9697,-3.9697,-3.9697,-3.9697,-3.9295,-3.8743,-3.8165,-3.7588,-3.7036,-3.6531,-3.6405,-3.6405,-3.6405,-3.6405,-3.6405,-3.6405,-3.6405,-3.6405,-3.6405,-3.6405,-3.6405,-3.6405,-3.6405,-3.6405,-3.6405,-3.6405,-3.6157,-3.5558,-3.5006,-3.45,-3.3947,-3.3395,-3.3111,-3.3111,-3.3111,-3.3111,-3.3111,-3.3111,-3.3111,-3.3111,-3.3111,-3.3111,-3.3111,-3.3111,-3.2655,-3.1865,-3.2698,-3.2103,-4.4381,-4.4669,-4.5023,-4.371,-4.3984,-4.4435,-4.4163,-4.4116,-4.4254,-4.4709,-4.5415,-4.624,-4.7037,-4.7873,-4.8636,-4.9213,-4.9289,-4.9364,-4.9565,-4.9238,-4.8736,-4.7983,-4.7581,-4.7079,-4.6376,-4.5623,-4.502,-4.4644,-4.4292,-4.3765,-4.3011,-4.2986,-4.2986,-4.2986,-4.2986,-4.2459,-4.13,-4.1275,-4.0724,-3.9697,-3.9697,-3.9697,-3.9697,-3.9697,-3.9697,-3.9697,-3.9697,-3.9697,-3.9697,-3.9697,-3.9697,-3.9697,-3.9697,-3.9697,-3.9697,-3.9697,-3.9077,-3.84,-3.9362,-3.9362,-3.9025,-3.9517,-3.9697,-3.9697,-3.9697,-3.9697,-3.9697,-3.9697,-3.9295,-3.8743,-3.8165,-3.7588,-3.7036,-3.6531,-3.6405,-3.6405,-3.6405,-3.6405,-3.6405,-3.6405,-3.6405,-3.6405,-3.6405,-3.6405,-3.6405,-3.6405,-3.6405,-3.6405,-3.6405,-3.6405,-3.6081,-3.5282,-3.4881,-3.4424,-3.3671,-3.3294,-3.3111,-3.3111,-3.3111,-3.3111,-3.3111,-3.3111,-3.3111,-3.3111,-3.3111,-3.3111,-3.3111,-3.3111,-3.2438,-3.1223,-3.2064,-3.1598,-4.5233,-4.6644,-4.7802,-4.4738,-4.5459,-4.6471,-4.4868,-4.4482,-4.4822,-4.5893,-4.6103,-4.6432,-4.7596,-4.7883,-4.8083,-4.8611,-4.8761,-4.8987,-4.9515,-4.8661,-4.7933,-4.7908,-4.6979,-4.6351,-4.6301,-4.5321,-4.4644,-4.4618,-4.4568,-4.4091,-4.3037,-4.2986,-4.2986,-4.2986,-4.2986,-4.2459,-4.13,-4.1225,-4.0727,-3.9697,-3.9697,-3.9697,-3.9697,-3.9697,-3.9697,-3.9697,-3.9697,-3.9697,-3.9697,-3.9697,-3.9697,-3.9697,-3.9697,-3.9697,-3.9697,-3.9697,-3.9645,-3.9594,-3.9697,-3.8792,-3.7796,-3.9077,-3.9594,-3.9697,-3.9645,-3.9645,-3.9697,-3.9697,-3.932,-3.8768,-3.8191,-3.7638,-3.7086,-3.6581,-3.643,-3.6405,-3.6405,-3.6405,-3.6405,-3.6405,-3.6405,-3.6405,-3.6405,-3.6405,-3.6405,-3.6405,-3.6405,-3.6405,-3.6405,-3.6405,-3.5956,-3.4876,-3.4751,-3.4299,-3.3219,-3.3136,-3.3111,-3.3111,-3.3111,-3.3111,-3.3111,-3.3111,-3.3111,-3.3111,-3.3111,-3.3111,-3.3111,-3.3111,-3.2438,-3.1223,-3.1267,-3.0923,-4.7906,-4.9352,-5.0681,-5.1391,-5.2005,-5.1989,-5.0358,-4.9698,-4.9166,-4.8291,-4.7392,-4.6799,-4.6681,-4.738,-4.7832,-4.7581,-4.8586,-4.9439,-4.9565,-4.8987,-4.8385,-4.7958,-4.733,-4.6753,-4.6351,-4.5673,-4.5095,-4.4644,-4.3865,-4.3263,-4.2986,-4.2986,-4.2986,-4.2986,-4.2986,-4.2459,-4.13,-4.0526,-3.9973,-3.9697,-3.9697,-3.9697,-3.9697,-3.9697,-3.9697,-3.9697,-3.9697,-3.9697,-3.9697,-3.9697,-3.9697,-3.9697,-3.9697,-3.9697,-3.9697,-3.9697,-3.9025,-3.8243,-3.931,-3.9465,-3.8868,-3.6996,-3.7926,-3.9465,-3.84,-3.8844,-3.9697,-3.9697,-3.9597,-3.9346,-3.8793,-3.8241,-3.7663,-3.7111,-3.6707,-3.6405,-3.6405,-3.6405,-3.6405,-3.6405,-3.6405,-3.6405,-3.6405,-3.6405,-3.6405,-3.6405,-3.6405,-3.6405,-3.6405,-3.6405,-3.6107,-3.5357,-3.4931,-3.4449,-3.3746,-3.3319,-3.3111,-3.3111,-3.3111,-3.3111,-3.3111,-3.3111,-3.3111,-3.3111,-3.3111,-3.3111,-3.3111,-3.3111,-3.2438,-3.1223,-3.2196,-3.1971,-4.973,-5.1403,-5.2902,-5.4066,-5.4664,-5.4558,-5.2962,-5.1629,-5.0375,-4.8936,-4.7846,-4.6742,-4.5773,-4.6677,-4.7481,-4.7118,-4.8309,-4.9314,-4.9565,-4.8912,-4.8259,-4.7933,-4.723,-4.6652,-4.6351,-4.5573,-4.497,-4.4644,-4.3815,-4.3237,-4.2986,-4.2986,-4.2986,-4.2986,-4.2986,-4.2459,-4.13,-4.0249,-3.9697,-3.9697,-3.9697,-3.9697,-3.9697,-3.9697,-3.9697,-3.9697,-3.9697,-3.9697,-3.9697,-3.9697,-3.9697,-3.9697,-3.9697,-3.9697,-3.9697,-3.9697,-3.9181,-3.8453,-3.8687,-3.9129,-3.9413,-3.7767,-3.8372,-3.9542,-3.8739,-3.9025,-3.9697,-3.9697,-3.9697,-3.9572,-3.907,-3.8617,-3.8191,-3.7387,-3.6983,-3.6707,-3.6455,-3.6405,-3.6405,-3.6405,-3.6405,-3.6405,-3.6405,-3.6405,-3.6405,-3.6405,-3.5906,-3.5715,-3.631,-3.6405,-3.6157,-3.5558,-3.5232,-3.4806,-3.4299,-3.3746,-3.3445,-3.3445,-3.3219,-3.3111,-3.3111,-3.3111,-3.3111,-3.3111,-3.3111,-3.2828,-3.2283,-3.2853,-3.2152,-3.0463,-3.193,-3.2349,-5.0996,-5.2908,-5.4505,-5.4918,-5.551,-5.5618,-5.4085,-5.1936,-4.9982,-4.8743,-4.7581,-4.6266,-4.4794,-4.5899,-4.6968,-4.6968,-4.7933,-4.8887,-4.9515,-4.856,-4.7832,-4.7908,-4.6954,-4.6301,-4.6301,-4.5296,-4.4618,-4.4618,-4.4041,-4.3489,-4.3011,-4.2986,-4.2986,-4.2986,-4.2836,-4.2308,-4.13,-4.0249,-3.9697,-3.9697,-3.9697,-3.9697,-3.9697,-3.9697,-3.9697,-3.9697,-3.9697,-3.9697,-3.9697,-3.9697,-3.9697,-3.9697,-3.9697,-3.9697,-3.9697,-3.9697,-3.9569,-3.9233,-3.819,-3.853,-3.9362,-3.9206,-3.9362,-3.9645,-3.9258,-3.9258,-3.9413,-3.9413,-3.9413,-3.9365,-3.9094,-3.8919,-3.8668,-3.7638,-3.7337,-3.7136,-3.6631,-3.6455,-3.6405,-3.6405,-3.6405,-3.6405,-3.6405,-3.6405,-3.6405,-3.6405,-3.5427,-3.509,-3.6263,-3.6263,-3.5993,-3.5658,-3.5533,-3.5307,-3.4831,-3.4324,-3.3997,-3.3997,-3.3571,-3.3294,-3.3294,-3.3294,-3.3269,-3.3237,-3.3269,-3.2654,-3.1273,-3.2455,-3.1862,-2.9597,-3.1365,-3.2458,-5.2355,-5.374,-5.5035,-5.7637,-5.7967,-5.7247,-5.5758,-5.2967,-5.0344,-4.8789,-4.663,-4.4819,-4.4091,-4.5321,-4.6451,-4.6451,-4.7355,-4.841,-4.9439,-4.8259,-4.7431,-4.7857,-4.6954,-4.6301,-4.6301,-4.5296,-4.4618,-4.4618,-4.3689,-4.3087,-4.2986,-4.2986,-4.2986,-4.2986,-4.2108,-4.1476,-4.1275,-4.0249,-3.9697,-3.9697,-3.9697,-3.9697,-3.9697,-3.9697,-3.9697,-3.9697,-3.9697,-3.9697,-3.9697,-3.9697,-3.9697,-3.9697,-3.9697,-3.9697,-3.9697,-3.9697,-3.8921,-3.8031,-3.8973,-3.8687,-3.769,-3.6433,-3.7713,-3.9258,-3.678,-3.6918,-3.7849,-3.7849,-3.7849,-3.8166,-3.9289,-3.922,-3.8869,-3.8668,-3.8216,-3.7713,-3.7161,-3.6732,-3.6405,-3.6405,-3.6405,-3.6405,-3.6405,-3.6405,-3.6405,-3.6405,-3.6216,-3.6168,-3.6358,-3.5427,-3.5138,-3.6138,-3.5805,-3.5458,-3.5357,-3.4856,-3.4575,-3.4575,-3.45,-3.4424,-3.4424,-3.4424,-3.4223,-3.3771,-3.4198,-3.3547,-3.1774,-3.2454,-3.1996,-3.051,-3.1949,-3.2888,-5.3114,-5.4165,-5.518,-5.8331,-5.8351,-5.7272,-5.6279,0.0,0.0,-4.8736,-4.6892,-4.5232,-4.3683,-4.4744,-4.5874,-4.5874,-4.6552,-4.7456,-4.856,-4.7556,-4.6903,-4.7431,-4.6803,-4.6301,-4.6301,-4.5296,-4.4618,-4.4618,-4.3614,-4.2986,-4.2986,-4.2986,-4.2986,-4.2986,-4.1907,-4.1275,-4.1275,-4.0249,-3.9697,-3.9697,-3.9697,-3.9697,-3.9697,-3.9697,-3.9697,-3.9697,-3.9697,-3.9697,-3.9697,-3.9697,-3.9697,-3.9697,-3.9697,-3.9697,-3.9697,-3.9697,-3.9258,-3.8739,-3.9465,-3.9258,-3.853,-3.782,-3.853,-3.931,-3.7103,-3.6918,-3.7346,-3.6541,-3.6918,-3.769,-3.8348,-3.8931,-3.922,-3.8994,-3.8442,-3.7864,-3.7312,-3.6985,-3.6757,-3.6455,-3.6405,-3.6405,-3.6405,-3.6405,-3.6405,-3.6405,-3.5186,-3.4557,-3.5259,-3.3552,-3.3353,-3.6096,-3.554,-3.5178,-3.5909,-3.5433,-3.5107,-3.5107,-3.4831,-3.468,-3.468,-3.468,-3.46,-3.4324,-3.3871,-3.2905,-3.1389,-3.1572,-3.1019,-2.9759,-3.2058,-3.3221,-5.3582,-5.4386,-5.518,-5.8331,-5.8082,-5.6944,-5.6368,-5.3921,-5.1104,-4.8594,-4.7163,-4.5634,-4.3391,-4.4166,-4.5221,-4.5447,-4.5849,-4.6552,-4.7732,-4.6979,-4.6527,-4.7079,-4.6652,-4.6301,-4.6301,-4.5397,-4.4744,-4.4644,-4.3614,-4.2986,-4.2986,-4.2986,-4.2986,-4.2986,-4.2032,-4.1401,-4.1275,-4.035,-3.9798,-3.9697,-3.9697,-3.9697,-3.9697,-3.9697,-3.9697,-3.9697,-3.9697,-3.9697,-3.9697,-3.9697,-3.9697,-3.9697,-3.9697,-3.9697,-3.9697,-3.9697,-3.9517,-3.9258,-3.9569,-3.9465,-3.931,-3.9594,-3.9697,-3.9362,-3.7583,-3.7026,-3.6811,-3.5617,-3.6108,-3.7186,-3.7796,-3.8844,-3.9597,-3.9145,-3.8617,-3.8065,-3.7638,-3.7437,-3.7186,-3.6681,-3.6581,-3.6556,-3.643,-3.6405,-3.631,-3.6001,-3.4142,-3.3055,-3.3871,-3.1796,-3.1622,-3.5138,-3.4872,-3.4921,-3.631,-3.5981,-3.5683,-3.5683,-3.5303,-3.5077,-3.5077,-3.5077,-3.5027,-3.4856,-3.3663,-3.2535,-3.1488,-3.09,-3.011,-2.9187,-3.1667,-3.2802,-5.3773,-5.4386,-5.518,-5.8331,-5.8082,-5.6944,-5.6368,0.0,-5.0612,-4.851,-4.6516,-4.4694,-4.3265,-4.3514,-4.4292,-4.5321,-4.5522,-4.6125,-4.7682,-4.6979,-4.6527,-4.7079,-4.6652,-4.6301,-4.6301,-4.5773,-4.5196,-4.4669,-4.3614,-4.2986,-4.2986,-4.2986,-4.2986,-4.2986,-4.2464,-4.1831,-4.13,-4.0752,-4.0199,-3.9697,-3.9697,-3.9697,-3.9697,-3.9697,-3.9697,-3.9697,-3.9697,-3.9697,-3.9697,-3.9697,-3.9697,-3.9697,-3.9697,-3.9697,-3.9697,-3.9697,-3.8844,-3.7902,-3.9258,-3.8792,-3.7902,-3.9258,-3.9697,-3.9181,-3.6325,-3.5508,-3.5453,-3.5343,-3.5398,-3.6108,-3.8816,-3.9594,-3.9672,-3.9622,-3.9195,-3.8768,-3.8718,-3.8291,-3.7764,-3.7211,-3.7111,-3.6983,-3.648,-3.6405,-3.6026,-3.4775,-3.4385,-3.3773,-3.2632,-3.1235,-3.0927,-3.2532,-3.3723,-3.4921,-3.631,-3.6355,-3.6329,-3.6329,-3.6279,-3.6254,-3.6254,-3.6254,-3.5981,-3.5433,-3.463,-3.3908,-3.3267,-3.1293,-3.0284,-3.0181,-3.043,-3.0606,-5.4597,-5.5451,-5.6337,-5.858,-5.8082,-5.6825,-5.5807,-5.3911,-5.1707,-4.9259,-4.7414,-4.5872,-4.4507,-4.3751,-4.3664,0.0,0.0,0.0,-4.6225,-4.5773,-4.5497,-4.6075,-4.625,-4.6301,-4.6301,-4.5799,-4.5121,-4.4192,-4.3413,-4.2986,-4.2986,-4.2986,-4.2986,-4.2986,-4.2489,-4.1882,-4.13,-4.0802,-4.0249,-3.9697,-3.9697,-3.9697,-3.9697,-3.9697,-3.9697,-3.9697,-3.9697,-3.9697,-3.9697,-3.9697,-3.9697,-3.9697,-3.9697,-3.9697,-3.9697,-3.9697,-3.9362,-3.8921,-3.9517,-3.931,-3.8792,-3.8477,-3.8348,-3.7979,-3.5945,-3.4681,-3.3957,-3.3957,-3.4626,-3.5781,-3.7873,-3.9025,-3.9697,-3.9697,-3.9521,-3.927,-3.8994,-3.8693,-3.8366,-3.7789,-3.7412,-3.7111,-3.6933,-3.5937,-3.5017,-3.4483,-3.3005,-3.1746,-3.1184,-2.9911,-2.9618,-3.0979,-3.1593,-3.2805,-3.5017,-3.521,-3.5523,-3.6358,-3.6405,-3.6405,-3.6405,-3.6405,-3.5901,-3.487,-3.3705,-3.2592,-3.1589,-2.9933,-2.9112,-2.9112,-2.9911,-3.0307,-5.5107,-5.6075,-5.6872,-5.8629,-5.8082,-5.6765,-5.5478,-5.4162,-5.2445,-4.9765,-4.8389,-4.7173,-4.5369,-4.4289,-4.3741,0.0,0.0,-4.394,-4.5296,-4.5271,-4.5271,-4.5673,-4.5924,-4.6125,-4.6301,-4.5648,-4.4895,-4.4116,-4.3388,-4.2986,-4.2986,-4.2986,-4.2986,-4.2986,-4.2665,-4.2057,-4.13,-4.0953,-4.04,-3.9697,-3.9697,-3.9697,-3.9697,-3.9697,-3.9697,-3.9697,-3.9697,-3.9697,-3.9697,-3.9697,-3.9697,-3.9697,-3.9697,-3.9697,-3.9697,-3.9697,-3.9697,-3.9697,-3.9697,-3.9697,-3.9465,-3.7954,-3.753,-3.724,-3.5727,-3.457,-3.3733,-3.3733,-3.5123,-3.6834,-3.7849,-3.8921,-3.9697,-3.9697,-3.9697,-3.9597,-3.9195,-3.912,-3.8842,-3.784,-3.732,-3.6825,-3.6258,-3.4932,-3.3834,-3.3434,-3.1629,-3.0172,-2.9755,-2.89,-2.8654,-2.9618,-2.9702,-3.0824,-3.3575,-3.3773,-3.4362,-3.5715,-3.581,-3.6026,-3.6358,-3.6026,-3.5571,-3.4969,-3.3204,-3.2028,-3.1542,-2.9755,-2.89,-2.89,-2.946,-2.9702,-5.5269,-5.5787,-5.635,-5.854,-5.8082,-5.6765,-5.5478,-5.4162,-5.2445,-4.9765,-4.921,-4.8339,-4.5502,-4.4994,-4.4718,-4.3916,0.0,0.0,-4.5397,-4.5949,-4.6301,-4.6301,-4.5824,-4.5723,-4.625,-4.5296,-4.4618,-4.4618,-4.3589,-4.2986,-4.2986,-4.2986,-4.2986,-4.2986,-4.2961,-4.2434,-4.13,-4.1275,-4.0777,-3.9697,-3.9697,-3.9697,-3.9697,-3.9697,-3.9697,-3.9697,-3.9697,-3.9697,-3.9697,-3.9697,-3.9697,-3.9697,-3.9697,-3.9697,-3.9697,-3.9697,-3.9697,-3.9697,-3.9697,-3.9697,-3.9465,-3.7954,-3.753,-3.724,-3.5727,-3.5288,-3.5288,-3.5288,-3.737,-3.9645,-3.9697,-3.9697,-3.9697,-3.9697,-3.9697,-3.9697,-3.9697,-3.9697,-3.9084,-3.71,-3.672,-3.6085,-3.3982,-3.328,-3.2553,-3.1212,-3.0622,-2.9807,-2.8495,-2.8281,-2.8301,-2.8301,-2.8301,-2.9408,-3.2079,-3.2331,-3.2955,-3.4337,-3.4434,-3.5017,-3.6358,-3.5138,-3.5017,-3.6358,-3.3677,-3.3005,-3.4337,-3.1593,-3.0255,-3.0276,-2.8953,-2.8301,-5.4525,-5.5374,-5.613,-5.6362,-5.5374,-5.3937,-5.2705,-5.2041,-5.1249,-4.9519,-4.921,-4.8638,-4.6785,-4.5661,-4.4848,-4.4421,-4.4192,0.0,-4.5347,-4.5648,-4.5748,-4.5748,-4.5924,-4.6125,-4.6301,-4.5296,-4.4618,-4.4618,-4.3614,-4.2986,-4.2986,-4.2986,-4.2986,-4.2986,-4.2986,-4.2459,-4.13,-4.1275,-4.0724,-3.9697,-3.9697,-3.9697,-3.9697,-3.9697,-3.9697,-3.9697,-3.9697,-3.9697,-3.9697,-3.9697,-3.9697,-3.9697,-3.9697,-3.9697,-3.9697,-3.9697,-3.9697,-3.9697,-3.9697,-3.9697,-3.9465,-3.7954,-3.753,-3.724,-3.5727,-3.5288,-3.5508,-3.6541,-3.819,-3.9697,-3.9697,-3.9697,-3.9465,-3.8453,-3.8973,-3.9413,-3.84,-3.8973,-3.9183,-3.758,-3.693,-3.615,-3.4432,-3.2996,-3.1785,-3.1116,-3.0064,-2.9079,-2.8374,-2.8301,-2.8301,-2.8301,-2.8301,-2.9006,-3.0773,-3.0927,-3.152,-3.2905,-3.2955,-3.3155,-3.3601,-3.3204,-3.2733,-3.223,-3.1367,-3.0721,-3.0224,-2.9355,-2.8953,-2.89,-2.8495,-2.8301,-5.3794,-5.482,-5.5388,-5.5239,-5.3943,-5.2382,-5.1315,-5.0503,-4.9609,-4.8588,-4.8389,-4.7959,-4.6578,-4.5608,-4.4824,-4.4093,-4.389,-4.4116,-4.502,-4.5347,-4.5497,-4.5497,-4.5974,-4.6225,-4.6024,-4.5372,-4.4869,-4.4644,-4.379,-4.3187,-4.2986,-4.2986,-4.2986,-4.2986,-4.2816,-4.2233,-4.13,-4.1075,-4.0576,-3.9697,-3.9697,-3.9697,-3.9697,-3.9697,-3.9697,-3.9697,-3.9697,-3.9697,0.0,-3.9697,-3.9697,-3.9697,-3.9697,-3.9697,-3.9697,-3.9697,-3.9697,-3.9697,-3.9697,-3.9697,-3.9465,-3.7954,-3.753,-3.74,-3.7049,-3.6565,-3.6433,-3.7902,-3.8973,-3.9697,-3.9697,-3.9697,-3.9362,-3.7849,-3.8635,-3.931,-3.7796,-3.8635,-3.9077,-3.7026,-3.6393,-3.5519,-3.3471,-3.1982,-3.1003,-3.0717,-2.9789,-2.9004,-2.8574,-2.8535,-2.8476,-2.832,-2.8301,-2.8654,-2.946,-2.9565,-3.012,-3.1469,-3.152,-3.1774,-3.228,-3.1825,-3.1367,-3.1081,-3.0566,-2.9911,-2.9059,-2.8548,-2.8301,-2.8301,-2.8301,-2.8301,0.0,-5.3814,-5.4042,-5.4509,-5.318,-5.1615,-5.0829,-4.9253,0.0,-4.7078,-4.7043,-4.6682,-4.5262,-4.5074,-4.4615,-4.329,-4.3489,-4.4066,-4.4618,-4.5171,-4.5547,-4.5547,-4.5999,-4.61,-4.5598,-4.5522,-4.5246,-4.4669,-4.4116,-4.3564,-4.3011,-4.2986,-4.2986,-4.2986,-4.2464,-4.1856,-4.13,-4.0802,-4.0249,-3.9697,-3.9697,-3.9697,-3.9697,-3.9697,-3.9697,-3.9697,-3.9697,-3.9697,-3.9697,-3.9697,-3.9697,-3.9697,-3.9697,-3.9697,-3.9697,-3.9697,-3.9697,-3.9697,-3.9697,-3.9697,-3.9465,-3.8084,-3.769,-3.7902,-3.9285,-3.8739,-3.7954,-3.931,-3.9697,-3.9697,-3.9697,-3.9697,-3.931,-3.7743,-3.853,-3.9258,-3.769,-3.8582,-3.8816,-3.5836,-3.5288,-3.437,-3.1383,-3.0527,-3.0234,-3.0195,-2.9863,-2.9453,-2.9023,-2.8945,-2.8769,-2.8379,-2.832,-2.8301,-2.8301,-2.8301,-2.8847,-3.0224,-3.0307,-3.0927,-3.223,-3.1133,-3.0979,-3.2129,-3.0824,-3.0172,-3.0172,-2.89,-2.8301,-2.8301,-2.8301,-2.8301,-4.8192,0.0,-5.0817,-4.9354,-4.893,-4.8464,0.0,-4.6437,-4.6249,-4.5635,-4.6317,-4.6682,-4.5262,-4.4994,-4.472,-4.3739,-4.4066,-4.4644,-4.5196,-4.5773,-4.6125,-4.6125,-4.6225,-4.625,-4.6125,-4.5723,-4.5246,-4.4669,-4.4116,-4.3564,-4.3011,-4.2986,-4.2986,-4.2986,-4.2032,-4.1455,-4.1275,-4.0802,-4.0249,-3.9697,-3.9697,-3.9697,-3.9697,-3.9697,-3.9697,-3.9697,-3.9697,-3.9697,-3.9697,-3.9697,-3.9697,-3.9697,-3.9697,-3.9697,-3.9697,-3.9697,-3.9697,-3.9697,-3.9697,-3.9697,-3.9645,-3.931,-3.9181,-3.9258,-3.9569,-3.9465,-3.9258,-3.9594,-3.9697,-3.9697,-3.9697,-3.9697,-3.9025,-3.6433,-3.782,-3.8973,-3.6379,-3.7873,-3.8816,-3.5836,-3.5288,-3.437,-3.1383,-3.0801,-3.0605,-3.0254,-3.0117,-2.9902,-2.9473,-2.9121,-2.8887,-2.8789,-2.8476,-2.8301,-2.8301,-2.8301,-2.8847,-3.0224,-3.0307,-3.0927,-3.223,-3.1977,-3.1469,-3.0773,-2.946,-2.8741,-2.8741,-2.8441,-2.8301,-2.8301,-2.8301,-2.8301,-4.4994,-4.6928,-4.8511,-4.7383,-4.6824,-4.6302,-4.5208,-4.4796,-4.4458,-4.4123,-4.4671,-4.4994,-4.4209,-4.4071,-4.4032,-4.3803,-4.4041,-4.4543,-4.5372,-4.5974,-4.6301,-4.6301,-4.6301,-4.6301,-4.6301,-4.605,-4.5522,-4.4694,-4.4342,-4.384,-4.3011,-4.2986,-4.2986,-4.2986,-4.2158,-4.1605,-4.1275,-4.0551,-3.9998,-3.9697,-3.9697,-3.9697,-3.9697,-3.9697,-3.9697,-3.9697,-3.9697,-3.9697,-3.9697,-3.9697,-3.9697,-3.9697,-3.9697,-3.9697,-3.9697,-3.9697,-3.9697,-3.9697,-3.9697,-3.9697,-3.9697,-3.9697,-3.9697,-3.9697,-3.9697,-3.9697,-3.9697,-3.9697,-3.9697,-3.9697,-3.9697,-3.9181,-3.8295,-3.6703,-3.753,-3.8243,-3.6649,-3.8084,-3.9025,-3.6757,-3.5781,-3.457,-3.2322,-3.1325,-3.0801,-3.0547,-3.0508,-3.0351,-2.9922,-2.9648,-2.9434,-2.9238,-2.8828,-2.8574,-2.8574,-2.8398,-2.8847,-3.0224,-3.0307,-3.0927,-3.223,-3.228,-3.1977,-3.1235,-2.9911,-2.9197,-2.9197,-2.8601,-2.8301,-2.8301,-2.8301,-2.8301,-4.2936,-4.4671,-4.6474,-4.6474,-4.5714,-4.4941,-4.4725,0.0,-4.2986,-4.2986,-4.2986,-4.2986,-4.2986,-4.3037,-4.3263,-4.374,-4.394,-4.4418,-4.5472,-4.6024,-4.6301,-4.6301,-4.6301,-4.6301,-4.6301,-4.6225,-4.5748,-4.4694,-4.4543,-4.4066,-4.3037,-4.2986,-4.2986,-4.2986,-4.2489,-4.1882,-4.13,-4.0325,-3.9772,-3.9697,-3.9697,-3.9697,-3.9697,-3.9697,-3.9697,-3.9697,-3.9697,-3.9697,-3.9697,-3.9697,-3.9697,-3.9697,-3.9697,-3.9697,-3.9697,-3.9697,-3.9697,-3.9697,-3.9697,-3.9697,-3.9697,-3.9697,-3.9697,-3.9697,-3.9697,-3.9697,-3.9697,-3.9697,-3.9697,-3.9645,-3.9413,-3.8453,-3.74,-3.6918,-3.6972,-3.7079,-3.6865,-3.7979,-3.8635,-3.7423,-3.6162,-3.4847,-3.336,-3.2035,-3.117,-3.0957,-3.0898,-3.0742,-3.0351,-3.0234,-3.0059,-2.9707,-2.9277,-2.9023,-2.9023,-2.8633,-2.8947,-3.0329,-3.0349,-3.103,-3.2532,-3.223,-3.2079,-3.228,-3.0979,-3.0307,-3.0307,-2.9355,-2.89,-2.89,-2.89,-2.89,-4.2735,-4.3295,-4.3657,-4.3657,-4.4318,-4.4671,-4.3547,-4.3129,-4.2986,-4.2986,-4.2986,-4.2986,-4.2986,-4.3363,-4.3689,-4.379,-4.4593,-4.5447,-4.61,-4.625,-4.6301,-4.6301,-4.6301,-4.6301,-4.6301,-4.5899,-4.5347,-4.4669,-4.4192,-4.3639,-4.3011,-4.2986,-4.2986,-4.2986,-4.2489,-4.1882,-4.13,-4.0701,-4.0149,-3.9697,-3.9697,-3.9697,-3.9697,-3.9697,-3.9697,-3.9697,-3.9697,-3.9697,-3.9697,-3.9697,-3.9697,-3.9697,-3.9697,-3.9697,-3.9697,-3.9697,-3.9697,-3.9697,-3.9697,-3.9697,-3.9697,-3.9697,-3.9697,-3.9697,-3.9697,-3.9697,-3.9697,-3.9697,-3.9697,-3.9413,-3.819,-3.769,-3.6865,-3.4403,-3.4736,-3.5288,-3.4069,-3.4958,-3.589,-3.5672,-3.5453,-3.4847,-3.336,-3.2907,-3.2358,-3.1112,-3.0898,-3.0859,-3.0801,-3.0449,-3.0176,-3.0098,-2.9726,-2.9473,-2.9473,-2.9082,-2.9405,-3.081,-3.0538,-3.144,-3.397,-3.1847,-3.1133,-3.228,-3.0979,-3.0307,-3.0307,-3.1235,-3.1673,-3.1673,-3.1673,-3.1673,-4.1957,-4.2308,-4.259,-4.259,-4.3436,-4.4126,-4.3204,-4.2986,-4.2986,-4.2986,-4.2986,-4.2737,-4.1842,-4.2086,-4.2272,-4.1934,-4.2631,-4.3593,-4.4719,-4.489,-4.522,-4.618,-4.6301,-4.6301,-4.6301,-4.5799,-4.5246,-4.4669,-4.4116,-4.3564,-4.3011,-4.2986,-4.2986,-4.2986,-4.2791,-4.2183,-4.13,-4.1025,-4.0526,-3.9697,-3.9697,-3.9697,-3.9697,-3.9697,-3.9697,-3.9697,-3.9697,-3.9697,-3.9697,-3.9697,-3.9697,-3.9697,-3.9697,-3.9697,-3.9697,-3.9697,-3.9697,-3.9697,-3.9697,-3.9697,-3.9697,-3.9697,-3.9697,-3.9697,-3.9697,-3.9129,-3.853,-3.853,-3.853,-3.8348,-3.769,-3.6302,-3.4991,-3.4403,-3.4181,-3.4125,-3.4236,-3.4792,-3.5508,-3.6325,-3.5836,-3.5343,-3.5431,-3.4847,-3.409,-3.336,-3.3268,-3.3268,-3.3268,-3.2401,-3.1767,-3.1767,-3.0648,-2.9902,-2.9902,-2.9512,-2.9644,-3.0559,-3.1086,-3.2303,-3.4337,-3.2454,-3.2381,-3.4484,-3.2431,-3.1774,-3.2504,-3.2381,-3.228,-3.228,-3.228,-3.228,-4.1455,-4.1731,-4.2037,-4.2162,-4.2841,-4.3363,-4.3212,-4.3062,-4.3011,-4.3137,-4.3162,-4.2662,-4.0904,-4.0764,-4.0773,-4.0567,-4.0934,-4.182,-4.3458,-4.3731,-4.4374,-4.612,-4.6301,-4.6301,-4.6301,-4.5698,-4.5095,-4.4644,-4.3991,-4.3413,-4.3011,-4.2986,-4.2986,-4.2986,-4.2986,-4.2459,-4.13,-4.1275,-4.0724,-3.9697,-3.9697,-3.9697,-3.9697,-3.9697,-3.9697,-3.9697,-3.9697,-3.9697,-3.9697,-3.9697,-3.9697,-3.9697,-3.9697,-3.9697,-3.9697,-3.9697,-3.9697,-3.9697,-3.9697,-3.9697,-3.9697,-3.9697,-3.9697,-3.9697,-3.9697,-3.8687,-3.753,-3.753,-3.7026,-3.6487,-3.6487,-3.477,-3.3304,-3.409,-3.3417,-3.2907,-3.4035,-3.4258,-3.4792,-3.6649,-3.5781,-3.5233,-3.6703,-3.6054,-3.5178,-3.4847,-3.5068,-3.5288,-3.5288,-3.4292,-3.3473,-3.3134,-3.1767,-3.0693,-3.0252,-3.0221,-3.0348,-3.0632,-3.1611,-3.2746,-3.4009,-3.3088,-3.3665,-3.6104,-3.4061,-3.3584,-3.4791,-3.3584,-3.301,-3.3095,-3.2656,-3.2527,-4.1861,-4.1756,-4.153,-4.2087,-4.2263,-4.259,-4.3514,-4.3338,-4.3112,-4.3639,-4.374,-4.3109,-4.0976,-4.0154,-4.0095,-4.0957,-4.1158,-4.182,-4.3458,-4.3731,-4.4374,-4.612,-4.6301,-4.6301,-4.6301,-4.5321,-4.4669,-4.4618,-4.3639,-4.3011,-4.2986,-4.2986,-4.2986,-4.2986,-4.2986,-4.2459,-4.13,-4.1275,-4.0724,-3.9697,-3.9697,-3.9697,-3.9697,-3.9697,-3.9697,-3.9697,-3.9697,-3.9697,-3.9697,-3.9697,-3.9697,-3.9697,-3.9697,-3.9697,-3.9697,-3.9697,-3.9697,-3.9697,-3.9697,-3.9697,-3.9697,-3.9697,-3.9697,-3.9697,-3.9697,-3.8687,-3.753,-3.753,-3.554,-3.3417,-3.3417,-3.3247,-3.2794,-3.1498,-3.1112,-3.1112,-3.117,-3.1228,-3.2055,-3.4902,-3.4292,-3.3733,-3.5178,-3.5343,-3.4847,-3.3452,-3.4403,-3.5288,-3.5288,-3.5233,-3.4626,-3.3247,-3.2979,-3.2189,-3.0348,-3.1416,-3.2057,-3.1683,-3.177,-3.2201,-3.3048,-3.3151,-3.3793,-3.5274,-3.5101,-3.5289,-3.589,-3.5289,-3.5162,-3.5482,-3.3765,-3.3168,-4.0526,-4.0978,-4.125,-4.1178,-4.0898,-4.0869,-4.1541,-4.1054,-4.0563,-4.1018,-4.1111,-4.056,-3.8736,-3.7402,-3.68,-3.7505,-3.7769,-3.8531,-4.0278,-4.1478,-4.2769,-4.4497,-4.5671,-4.6301,-4.6301,-4.5296,-4.4618,-4.4618,-4.3614,-4.2986,-4.2986,-4.2986,-4.2986,-4.2986,-4.2986,-4.2459,-4.13,-4.1275,-4.0724,-3.9697,-3.9697,-3.9697,-3.9697,-3.9697,-3.9697,-3.9697,-3.9697,-3.9697,-3.9697,-3.9697,-3.9697,-3.9697,-3.9697,-3.9697,-3.9697,-3.9697,-3.9697,-3.9697,-3.9697,-3.9697,-3.9697,-3.9697,-3.9697,-3.9697,-3.9697,-3.8687,-3.7293,-3.6379,-3.4681,-3.3077,-3.3077,-3.2416,-3.1614,-3.1054,-3.0898,-3.0898,-3.0898,-3.0898,-3.1498,-3.3529,-3.3473,-3.3564,-3.5068,-3.6054,-3.6487,-3.5922,-3.7103,-3.8031,-3.8031,-3.7263,-3.6433,-3.5868,-3.5013,-3.3781,-3.2169,-3.2523,-3.3168,-3.3934,-3.3451,-3.3667,-3.4834,-3.409,-3.4732,-3.6899,-3.6126,-3.6223,-3.7269,-3.6122,-3.5666,-3.5754,-3.4129,-3.3451,-4.0224,-4.0651,-4.0868,-4.0191,-3.9378,-3.8849,-3.9098,-3.9017,-3.9036,-3.9467,-3.9011,-3.8282,-3.7255,-3.5775,-3.4844,-3.5312,-3.5742,-3.6606,-3.8353,-3.9627,-4.1245,-4.3482,-4.4767,-4.5597,-4.6015,-4.5196,-4.4543,-4.4367,-4.3514,-4.2986,-4.2986,-4.2986,-4.2986,-4.2986,-4.2986,-4.2459,-4.13,-4.1275,-4.0724,-3.9697,-3.9697,-3.9697,-3.9697,-3.9697,-3.9697,-3.9697,-3.9697,-3.9697,-3.9697,-3.9697,-3.9697,-3.9697,-3.9697,-3.9697,-3.9697,-3.9697,-3.9697,-3.9697,-3.9697,-3.9697,-3.9697,-3.9697,-3.9697,-3.9697,-3.9697,-3.8687,-3.7186,-3.5727,-3.4236,-3.2964,-3.253,-3.1652,-3.0898,-3.0898,-3.0898,-3.0898,-3.0898,-3.0898,-3.1325,-3.2794,-3.2737,-3.2871,-3.4348,-3.5431,-3.6248,-3.6757,-3.8084,-3.9181,-3.9645,-3.8792,-3.7849,-3.6918,-3.589,-3.4681,-3.3247,-3.3957,-3.4958,-3.5945,-3.5892,-3.5949,-3.6196,-3.5784,-3.6425,-3.8216,-3.7365,-3.7236,-3.7837,-3.6189,-3.5231,-3.4918,-3.3299,-3.2619,-4.1275,-4.0874,-4.0255,-3.9156,-3.7711,-3.6509,-3.6329,-3.7616,-3.8998,-3.9551,-3.7984,-3.6625,-3.7022,-3.5775,-3.4863,-3.5312,-3.5742,-3.6606,-3.8353,-3.8597,-3.9888,-4.3271,-4.3731,-4.4157,-4.5404,-4.497,-4.4392,-4.384,-4.3288,-4.2986,-4.2986,-4.2986,-4.2986,-4.2986,-4.2986,-4.2459,-4.13,-4.1275,-4.0724,-3.9697,-3.9697,-3.9697,-3.9697,-3.9697,-3.9697,-3.9697,-3.9697,-3.9697,-3.9697,-3.9697,-3.9697,-3.9697,-3.9697,-3.9697,-3.9697,-3.9697,-3.9697,-3.9697,-3.9697,-3.9697,-3.9697,-3.9697,-3.9697,-3.9697,-3.9697,-3.8687,-3.7186,-3.5727,-3.4292,-3.2794,-3.1325,-3.0937,-3.0898,-3.0898,-3.0898,-3.0898,-3.0898,-3.0898,-3.1325,-3.2794,-3.1883,-3.1383,-3.2794,-3.3077,-3.3564,-3.5068,-3.6541,-3.8031,-3.9517,-3.9697,-3.8582,-3.5617,-3.5343,-3.4736,-3.3304,-3.5813,-3.753,-3.753,-3.8868,-3.8778,-3.682,-3.8107,-3.8919,-3.8919,-3.8868,-3.843,-3.753,-3.555,-3.4087,-3.3056,-3.1114,-3.0449,-4.03,-3.9562,-3.8851,-3.8428,-3.7164,-3.5997,-3.5809,-3.587,-3.6163,-3.6938,-3.638,-3.5745,-3.5864,-3.5507,-3.5234,-3.5371,-3.5742,-3.6152,-3.6674,-3.7842,-3.9431,-4.1693,-4.2654,-4.3747,-4.5379,-4.4618,-4.3966,-4.3815,-4.3288,-4.2986,-4.2986,-4.2986,-4.2986,-4.2986,-4.2986,-4.2459,-4.13,-4.1275,-4.0724,-3.9697,-3.9697,-3.9697,-3.9697,-3.9697,-3.9697,-3.9697,-3.9697,-3.9697,-3.9697,-3.9697,-3.9697,-3.9697,-3.9697,-3.9697,-3.9697,-3.9697,-3.9697,-3.9697,-3.9697,-3.9697,-3.9697,-3.9697,-3.9697,-3.9697,-3.9697,-3.9413,-3.8739,-3.7263,-3.6541,-3.5595,-3.3077,-3.2473,-3.2207,-3.117,-3.0898,-3.0898,-3.0898,-3.0898,-3.0995,-3.1498,-3.1228,-3.1054,-3.1498,-3.2416,-3.3247,-3.3677,-3.5868,-3.8031,-3.9517,-3.9697,-3.8973,-3.7026,-3.7767,-3.782,-3.6302,-3.7026,-3.7954,-3.8973,-3.8477,-3.8327,-3.8778,-3.9216,-3.9446,-3.9446,-3.8442,-3.781,-3.7506,-3.4857,-3.338,-3.3077,-3.1454,-3.0762,-4.0784,-3.9663,-3.8524,-3.8464,-3.7037,-3.5665,-3.5554,-3.5221,-3.5176,-3.5879,-3.5684,-3.5391,-3.5391,-3.5391,-3.5391,-3.5391,-3.5742,-3.6016,-3.6016,-3.7508,-3.9256,-4.0988,-4.2203,-4.3482,-4.4969,-4.4342,-4.3714,-4.3489,-4.3162,-4.2986,-4.2986,-4.2986,-4.2986,-4.2986,-4.2986,-4.2459,-4.13,-4.1275,-4.0724,-3.9697,-3.9697,-3.9697,-3.9697,-3.9697,-3.9697,-3.9697,-3.9697,-3.9697,-3.9697,-3.9697,-3.9697,-3.9722,-3.9923,-4.0023,-4.0049,-4.0275,-4.035,-4.035,-4.035,-4.035,-4.035,-4.035,-4.0199,-4.0023,-4.0023,-3.9873,-3.9413,-3.7902,-3.753,-3.6811,-3.3845,-3.3077,-3.2758,-3.1267,-3.0898,-3.0898,-3.0898,-3.0898,-3.0898,-3.0898,-3.0898,-3.0898,-3.0898,-3.1652,-3.2416,-3.3021,-3.5595,-3.7796,-3.8687,-3.9362,-3.9129,-3.769,-3.8792,-3.9077,-3.7636,-3.8031,-3.8739,-3.9645,-3.8868,-3.8792,-3.9645,-3.9697,-3.9413,-3.8868,-3.7954,-3.6918,-3.5759,-3.3957,-3.2794,-3.2207,-3.1325,-3.0898,-4.2084,-4.0489,-3.8906,-3.8837,-3.7213,-3.558,-3.5488,-3.5449,-3.5566,-3.5937,-3.5723,-3.5449,-3.5449,-3.5449,-3.5449,-3.5449,-3.5762,-3.6016,-3.6016,-3.7374,-3.9038,-4.0921,-4.1985,-4.3108,-4.4419,-4.4041,-4.3514,-4.3011,-4.2986,-4.2986,-4.2986,-4.2986,-4.2986,-4.2986,-4.2936,-4.2409,-4.13,-4.1225,-4.0727,-3.9697,-3.9697,-3.9697,-3.9697,-3.9697,-3.9697,-3.9697,-3.9697,-3.9697,-3.9697,-3.9697,-3.9697,-3.9747,-4.03,-4.0526,-4.0576,-4.1075,-4.1275,-4.1275,-4.1275,-4.1275,-4.1275,-4.1275,-4.0949,-4.0576,-4.0526,-4.0174,-3.9488,-3.8084,-3.769,-3.7026,-3.4236,-3.3395,-3.2907,-3.1441,-3.0995,-3.0898,-3.0898,-3.0898,-3.0898,-3.0898,-3.0898,-3.0898,-3.0898,-3.0898,-3.1383,-3.2851,-3.5376,-3.7186,-3.7453,-3.8687,-3.9025,-3.7849,-3.8921,-3.9129,-3.7796,-3.8921,-3.9697,-3.9697,-3.9697,-3.9697,-3.9697,-3.9697,-3.9025,-3.753,-3.737,-3.5922,-3.3077,-3.2964,-3.2207,-3.0898,-3.0898,-3.0937,-4.1147,-4.0006,-3.8892,-3.8326,-3.6792,-3.5514,-3.581,-3.5879,-3.5918,-3.5996,-3.5937,-3.5879,-3.5879,-3.5879,-3.5879,-3.5879,-3.5957,-3.6016,-3.6016,-3.6336,-3.7565,-4.0177,-4.0338,-4.1187,-4.3729,-4.3489,-4.3112,-4.2986,-4.2986,-4.2986,-4.2986,-4.2986,-4.2986,-4.2986,-4.2615,-4.2007,-4.13,-4.0849,-4.035,-3.9697,-3.9697,-3.9697,-3.9697,-3.9697,-3.9697,-3.9697,-3.9697,-3.9697,-3.9697,-3.9697,-3.9697,-3.9747,-4.03,-4.0526,-4.0576,-4.1075,-4.1275,-4.1275,-4.1275,-4.1275,-4.1275,-4.1275,-4.12,-4.1025,-4.0651,-4.0425,-4.0197,-3.9434,-3.9233,-3.8792,-3.7026,-3.5727,-3.4459,-3.2964,-3.171,-3.0898,-3.0898,-3.0898,-3.0898,-3.0898,-3.0898,-3.0898,-3.0898,-3.0898,-3.1383,-3.2851,-3.362,-3.488,-3.7186,-3.7796,-3.8295,-3.9129,-3.9517,-3.9569,-3.9233,-3.9517,-3.9697,-3.9697,-3.9697,-3.9697,-3.9697,-3.9697,-3.9025,-3.753,-3.6379,-3.4902,-3.3077,-3.194,-3.1228,-3.0898,-3.0898,-3.1498,-4.2372,-4.0666,-3.8761,-3.7835,-3.7252,-3.6777,-3.6161,-3.5859,-3.5723,-3.5723,-3.5879,-3.5957,-3.5762,-3.5723,-3.5644,-3.543,-3.5391,-3.5391,-3.5391,-3.6084,-3.7212,-3.8719,-3.982,-4.1008,-4.2501,-4.2868,-4.2986,-4.2986,-4.2986,-4.2986,-4.2986,-4.2986,-4.2986,-4.2986,-4.2489,-4.1882,-4.13,-4.0802,-4.0249,-3.9697,-3.9697,-3.9697,-3.9697,-3.9697,-3.9697,-3.9697,-3.9697,-3.9697,-3.9697,-3.9697,-3.9848,-4.0149,-4.0701,-4.1078,-4.1379,-4.1932,-4.2133,-4.2133,-4.2133,-4.2133,-4.2133,-4.2133,-4.1932,-4.1681,-4.1379,-4.0927,-4.045,-4.0174,-3.9898,-3.9362,-3.7849,-3.6918,-3.5781,-3.362,-3.1977,-3.0898,-3.0898,-3.0898,-3.0898,-3.0898,-3.0898,-3.0898,-3.0898,-3.0898,-3.117,-3.194,-3.3247,-3.4459,-3.5266,-3.7263,-3.8582,-3.8635,-3.931,-3.9697,-3.9697,-3.9697,-3.9697,-3.9697,-3.9697,-3.9362,-3.8687,-3.931,-3.9025,-3.753,-3.5343,-3.3845,-3.3077,-3.1594,-3.0898,-3.0898,-3.0898,-3.171,-4.3826,-4.1526,-3.8998,-3.8295,-3.8487,-3.8406,-3.6756,-3.6095,-3.5751,-3.536,-3.5547,-3.5684,-3.5332,-3.5273,-3.5137,-3.4766,-3.4707,-3.4707,-3.4707,-3.5949,-3.6915,-3.715,-3.9187,-4.0621,-4.0822,-4.1629,-4.215,-4.215,-4.2432,-4.2625,-4.2625,-4.2849,-4.2986,-4.2986,-4.2489,-4.1882,-4.13,-4.0802,-4.0249,-3.9697,-3.9697,-3.9697,-3.9697,-3.9798,-3.9798,-3.9697,-3.9697,-3.9697,-3.9697,-3.9798,-4.0099,-4.0576,-4.1229,-4.1756,-4.2263,-4.2816,-4.2986,-4.2986,-4.2986,-4.2986,-4.2986,-4.2986,-4.2715,-4.2338,-4.2238,-4.153,-4.0752,-4.0576,-4.0199,-3.9538,-3.8214,-3.769,-3.6865,-3.4459,-3.253,-3.1228,-3.0937,-3.0898,-3.0898,-3.0898,-3.0898,-3.0898,-3.0898,-3.0898,-3.0898,-3.0898,-3.2985,-3.4292,-3.3564,-3.6649,-3.8687,-3.7954,-3.8973,-3.9697,-3.9697,-3.9697,-3.9697,-3.9697,-3.9697,-3.9129,-3.7902,-3.8792,-3.8739,-3.7506,-3.4825,-3.336,-3.3077,-3.1594,-3.0898,-3.0898,-3.0898,-3.171,-4.3065,-4.1447,-4.0526,-4.1794,-4.1109,-3.9642,-3.7989,-3.7577,-3.704,-3.5192,-3.4844,-3.4863,-3.4805,-3.4785,-3.4766,-3.4707,-3.4707,-3.4707,-3.4707,-3.4884,-3.544,-3.6499,-3.6936,-3.7526,-3.8537,-3.8744,-3.8817,-3.8817,-4.0129,-4.0937,-4.0937,-4.2263,-4.2986,-4.2986,-4.2489,-4.1882,-4.13,-4.0802,-4.0249,-3.9697,-3.9697,-3.9697,-3.9722,-4.0199,-4.0149,-3.9697,-3.9697,-3.9697,-3.9747,-4.0199,-4.045,-4.0626,-4.1656,-4.2137,-4.2263,-4.2816,-4.2986,-4.2986,-4.2986,-4.2986,-4.2986,-4.2986,-4.2936,-4.2841,-4.2363,-4.2112,-4.1785,-4.0777,-4.0475,-4.0247,-3.959,-3.8477,-3.74,-3.7026,-3.4825,-3.2473,-3.117,-3.0898,-3.0898,-3.0898,-3.0898,-3.0898,-3.0898,-3.0898,-3.0898,-3.0898,-3.1228,-3.2322,-3.4681,-3.5508,-3.678,-3.9129,-3.9569,-3.9697,-3.9697,-3.9697,-3.9697,-3.9697,-3.9697,-3.9645,-3.9413,-3.8348,-3.769,-3.753,-3.5836,-3.4403,-3.3077,-3.1594,-3.0898,-3.0898,-3.0898,-3.171,-4.4272,-4.3493,-4.2925,-4.306,-4.2209,-4.0637,-3.8018,-3.7253,-3.6577,-3.4764,-3.4141,-3.4062,-3.4297,-3.4336,-3.4277,-3.4023,-3.3984,-3.3984,-3.3984,-3.3984,-3.4162,-3.4705,-3.5521,-3.6283,-3.6803,-3.7686,-3.8223,-3.8223,-3.9698,-4.0592,-4.0592,-4.215,-4.2986,-4.2986,-4.2133,-4.158,-4.1275,-4.0475,-3.9923,-3.9697,-3.9697,-3.9848,-4.0174,-4.04,-4.0375,-4.0174,-4.0475,-4.0626,-4.0626,-4.0824,-4.1153,-4.148,-4.2011,-4.2389,-4.2715,-4.2886,-4.2986,-4.2986,-4.2986,-4.2986,-4.2986,-4.2986,-4.2986,-4.2992,-4.274,-4.2464,-4.2037,-4.1204,-4.0752,-4.04,-3.9848,-3.9258,-3.853,-3.769,-3.589,-3.3901,-3.2416,-3.1498,-3.0898,-3.0898,-3.0898,-3.0898,-3.0898,-3.0898,-3.0898,-3.0898,-3.1594,-3.2322,-3.2758,-3.5013,-3.6379,-3.6054,-3.819,-3.9362,-3.853,-3.9233,-3.9697,-3.9697,-3.9697,-3.9362,-3.853,-3.7849,-3.7079,-3.6271,-3.5617,-3.457,-3.3077,-3.2473,-3.171,-3.0898,-3.0898,-3.171,-4.5529,-4.5138,-4.4547,-4.3862,-4.3233,-4.1994,-3.8901,-3.7627,-3.6623,-3.4906,-3.395,-3.3516,-3.3848,-3.3906,-3.3809,-3.3476,-3.3418,-3.3418,-3.3418,-3.3418,-3.3418,-3.3418,-3.4425,-3.5211,-3.5211,-3.6295,-3.6963,-3.6963,-3.8876,-3.9942,-3.9802,-4.1703,-4.2816,-4.2816,-4.1831,-4.1275,-4.1275,-4.0249,-3.9697,-3.9697,-3.9697,-3.9973,-4.0526,-4.0651,-4.0802,-4.0953,-4.1175,-4.1275,-4.13,-4.1505,-4.1781,-4.2213,-4.2363,-4.2665,-4.2986,-4.2986,-4.2986,-4.2986,-4.2986,-4.2986,-4.2986,-4.2986,-4.2986,-4.2986,-4.2986,-4.274,-4.2313,-4.1706,-4.1254,-4.0802,-4.0249,-3.9998,-3.9613,-3.8489,-3.7012,-3.5233,-3.3021,-3.1652,-3.0898,-3.0898,-3.0898,-3.0898,-3.0898,-3.0898,-3.0898,-3.0898,-3.1825,-3.2264,-3.1556,-3.4348,-3.5813,-3.4382,-3.7133,-3.8844,-3.8137,-3.9077,-3.9697,-3.9697,-3.9697,-3.9206,-3.8084,-3.769,-3.6972,-3.589,-3.5508,-3.457,-3.3077,-3.2737,-3.1998,-3.0898,-3.0898,-3.1498,-4.601,-4.5268,-4.4425,-4.4758,-4.4778,-4.4116,-4.1749,-4.0011,-3.8282,-3.6178,-3.4507,-3.3437,-3.3457,-3.3457,-3.3437,-3.3418,-3.3418,-3.3418,-3.3418,-3.3418,-3.3418,-3.3418,-3.3481,-3.3544,-3.3544,-3.3607,-3.367,-3.367,-3.6539,-3.8081,-3.761,-4.0555,-4.2263,-4.2263,-4.163,-4.1275,-4.1275,-4.0249,-3.9697,-3.9697,-3.9697,-3.9973,-4.0526,-4.1,-4.158,-4.2087,-4.1555,-4.1275,-4.1326,-4.1907,-4.2187,-4.2263,-4.2791,-4.2961,-4.2986,-4.2986,-4.2986,-4.2986,-4.2986,-4.2986,-4.2986,-4.2986,-4.2986,-4.2986,-4.2986,-4.2961,-4.2866,-4.2313,-4.2137,-4.1986,-4.1404,-4.0852,-4.0423,-4.037,-3.8843,-3.6217,-3.194,-3.0937,-3.0898,-3.0898,-3.0898,-3.0898,-3.0898,-3.0898,-3.0898,-3.0898,-3.0937,-3.1498,-3.2815,-3.3191,-3.4348,-3.6972,-3.7477,-3.8137,-3.9465,-3.9645,-3.9697,-3.9697,-3.9697,-3.9697,-3.9594,-3.8243,-3.7477,-3.74,-3.5999,-3.457,-3.3077,-3.171,-3.1015,-3.0898,-3.0898,-3.0937,-4.6771,-4.6235,-4.5514,-4.5707,-4.5051,-4.388,-4.2016,-4.0775,-3.9518,-3.7708,-3.6051,-3.4902,-3.4902,-3.407,-3.3418,-3.3418,-3.3418,-3.3418,-3.3418,-3.3418,-3.3418,-3.3418,-3.3418,-3.3418,-3.3418,-3.3418,-3.3839,-3.484,-3.6963,-3.8571,-3.9384,-4.123,-4.2213,-4.2213,-4.1279,-4.0651,-4.03,-3.9898,-3.9873,-4.0224,-4.0224,-4.0701,-4.158,-4.1781,-4.2158,-4.2715,-4.2484,-4.2384,-4.2409,-4.261,-4.274,-4.271,-4.2911,-4.2986,-4.2986,-4.2986,-4.2986,-4.2986,-4.2986,-4.2986,-4.2986,-4.2986,-4.2986,-4.2986,-4.2986,-4.2986,-4.2861,-4.2363,-4.2213,-4.2087,-4.148,-4.115,-4.0521,-3.854,-3.8005,-3.7029,-3.3461,-3.2506,-3.2301,-3.2301,-3.2301,-3.1977,-3.1054,-3.0898,-3.0898,-3.0898,-3.0898,-3.1112,-3.1594,-3.253,-3.3134,-3.3247,-3.5836,-3.7317,-3.6942,-3.8582,-3.9697,-3.9697,-3.9697,-3.9697,-3.9697,-3.8295,-3.7026,-3.6108,-3.4626,-3.362,-3.3077,-3.2587,-3.1825,-3.0898,-3.0898,-3.0898,-4.686,-4.6786,-4.655,-4.6541,-4.5651,-4.4579,-4.3702,-4.2198,-4.0763,-3.9872,-3.8037,-3.6578,-3.6578,-3.5273,-3.4007,-3.3481,-3.3418,-3.3418,-3.3418,-3.3418,-3.3418,-3.3418,-3.3418,-3.3418,-3.3418,-3.3418,-3.3839,-3.4902,-3.7023,-3.8571,-3.9465,-4.123,-4.2137,-4.1882,-4.1354,-4.0802,-4.0249,-4.0249,-4.0425,-4.0802,-4.0802,-4.1279,-4.2213,-4.2213,-4.2514,-4.2986,-4.2986,-4.2986,-4.2986,-4.2986,-4.2986,-4.2986,-4.2986,-4.2986,-4.2986,-4.2986,-4.2986,-4.2986,-4.2986,-4.2986,-4.2986,-4.2986,-4.2986,-4.2986,-4.2986,-4.2986,-4.2911,-4.259,-4.2489,-4.2414,-4.1982,-4.1756,-4.0933,-3.8096,-3.8017,-3.7981,-3.589,-3.4218,-3.3077,-3.3077,-3.2701,-3.2035,-3.1054,-3.0898,-3.0898,-3.0898,-3.0898,-3.0898,-3.0898,-3.1767,-3.2379,-3.2379,-3.5013,-3.6757,-3.678,-3.8582,-3.9697,-3.9697,-3.9697,-3.9697,-3.9697,-3.782,-3.6541,-3.6054,-3.3642,-3.2587,-3.3077,-3.2587,-3.1883,-3.0898,-3.0898,-3.117,0.0,0.0,0.0,-4.7195,-4.6677,-4.6329,-4.6929,-4.4335,-4.1982,-4.2645,-4.0425,-3.832,-3.832,-3.7002,-3.5335,-3.3713,-3.3418,-3.3418,-3.3418,-3.3418,-3.3418,-3.3418,-3.3418,-3.3418,-3.3418,-3.3418,-3.3418,-3.3481,-3.6356,-3.794,-3.7529,-4.0475,-4.1907,-4.13,-4.1856,-4.1882,-4.13,-4.1275,-4.13,-4.13,-4.13,-4.1656,-4.2238,-4.2238,-4.2514,-4.2986,-4.2986,-4.2986,-4.2986,-4.2986,-4.2986,-4.2986,-4.2986,-4.2986,-4.2986,-4.2986,-4.2986,-4.2986,-4.2986,-4.2986,-4.2986,-4.2986,-4.2986,-4.2986,-4.2986,-4.2986,-4.2986,-4.2986,-4.2986,-4.2986,-4.2986,-4.264,-4.1679,-3.9411,-3.9046,-3.9157,-3.8911,-3.5927,-3.3268,-3.3212,-3.1998,-3.1015,-3.0898,-3.0898,-3.0898,-3.0898,-3.0898,-3.0898,-3.0898,-3.0898,-3.1998,-3.4902,-3.5288,-3.6511,-3.9362,-3.9697,-3.9697,-3.9697,-3.9697,-3.9697,-3.9697,-3.6888,-3.5999,-3.7423,-3.3134,-3.1652,-3.3021,-3.1594,-3.0898,-3.0898,-3.0898,-3.171,-4.5574,0.0,0.0,0.0,0.0,0.0,-4.6405,-4.5249,-4.4318,-4.5012,-4.2789,-4.0877,-4.1379,-3.9313,-3.7023,-3.5396,-3.4133,-3.3418,-3.3418,-3.3418,-3.3418,-3.3418,-3.3418,-3.3418,-3.3418,-3.3418,-3.3902,-3.5026,-3.599,-3.744,-3.9628,-4.131,-4.1907,-4.13,-4.148,-4.1505,-4.1275,-4.1275,-4.153,-4.1932,-4.1932,-4.2208,-4.2816,-4.2816,-4.2891,-4.2986,-4.2986,-4.2986,-4.2986,-4.2986,-4.2986,-4.2986,-4.2986,-4.2986,-4.2986,-4.2986,-4.2986,-4.2986,-4.2986,-4.2986,-4.2986,-4.2986,-4.2986,-4.2986,-4.2986,-4.2986,-4.2986,-4.2986,-4.2986,-4.2986,-4.2986,-4.2861,-4.2047,-3.9071,-3.9935,-4.0703,-3.8321,-3.7644,-3.7015,-3.5557,-3.4928,-3.3876,-3.1326,-3.0898,-3.0898,-3.0898,-3.0898,-3.0898,-3.0898,-3.0898,-3.1594,-3.3529,-3.4681,-3.6054,-3.7979,-3.9077,-3.9697,-3.9697,-3.9697,-3.9697,-3.9697,-3.7926,-3.6595,-3.5945,-3.3642,-3.215,-3.1498,-3.1112,-3.0898,-3.0898,-3.0898,-3.171,0.0,0.0,0.0,-4.716,0.0,0.0,-4.7349,-4.6471,-4.5825,-4.6792,-4.5135,-4.3755,-4.4437,-4.2103,-3.9756,-3.8857,-3.6838,-3.4922,-3.3607,-3.3418,-3.3418,-3.3418,-3.3418,-3.3418,-3.3418,-3.3418,-3.3776,-3.4736,-3.6051,-3.8201,-4.1419,-4.219,-4.2359,-4.2032,-4.2032,-4.2032,-4.2032,-4.2032,-4.2183,-4.2564,-4.2564,-4.2715,-4.2986,-4.2986,-4.2986,-4.2986,-4.2986,-4.2986,-4.2986,-4.2986,-4.2986,-4.2986,-4.2986,-4.2986,-4.2986,-4.2986,-4.2986,-4.2986,-4.2986,-4.2986,-4.2986,-4.2986,-4.2986,-4.2986,-4.2986,-4.2986,-4.2986,-4.2986,-4.2986,-4.2986,-4.2986,-4.2986,-4.2206,-3.8994,-4.0411,-4.1657,-3.8443,-3.9309,-4.0033,-3.7771,-3.6162,-3.4525,-3.2476,-3.1444,-3.0898,-3.0898,-3.0898,-3.0898,-3.0898,-3.0898,-3.1498,-3.2964,-3.4403,-3.589,-3.7346,-3.8844,-3.9697,-3.9697,-3.9697,-3.9697,-3.9697,-3.8295,-3.6811,-3.5343,-3.3845,-3.2358,-3.0898,-3.0898,-3.0898,-3.0898,-3.0898,-3.1383,0.0,0.0,0.0,-4.7983,-4.7728,0.0,-4.882,-4.7652,-4.6662,-4.7969,-4.7108,-4.6334,-4.6994,-4.4838,-4.2924,-4.2734,-4.0411,-3.7484,-3.4213,-3.3729,-3.3686,-3.3555,-3.3516,-3.3496,-3.3496,-3.3457,-3.3481,-3.365,-3.666,-3.9698,-4.2569,-4.2905,-4.2986,-4.2986,-4.2986,-4.2986,-4.2986,-4.2986,-4.2986,-4.2986,-4.2986,-4.2986,-4.2986,-4.2986,-4.2986,-4.2986,-4.2986,-4.2986,-4.2986,-4.2986,-4.2986,-4.2986,-4.2986,-4.2986,-4.2986,-4.2986,-4.2986,-4.2986,-4.2986,-4.2986,-4.2986,-4.2986,-4.2986,-4.2986,-4.2986,-4.2986,-4.2986,-4.2986,-4.2986,-4.2986,-4.2986,-4.2986,-4.2263,-3.917,-4.065,-4.1899,-3.8876,-4.0592,-4.1966,-3.9491,-3.6612,-3.4511,-3.4295,-3.2615,-3.1308,-3.1308,-3.1133,-3.1035,-3.1035,-3.0996,-3.15,-3.2991,-3.4336,-3.5727,-3.7346,-3.8687,-3.9517,-3.9697,-3.9697,-3.9697,-3.9697,-3.8137,-3.6649,-3.5343,-3.3677,-3.2322,-3.117,-3.0995,-3.0898,-3.0898,-3.0898,-3.0898,-4.4511,-4.5241,-4.6061,-4.7241,-4.7399,0.0,-4.7638,-4.7404,-4.7317,-4.8119,-4.7131,-4.6415,-4.709,-4.5752,-4.4238,-4.2996,-4.2141,-4.0337,-3.6455,-3.5914,-3.5554,-3.4544,-3.416,-3.3945,-3.3945,-3.3633,-3.3965,-3.5211,-3.832,-4.0419,-4.1019,-4.2319,-4.2986,-4.2986,-4.2986,-4.2986,-4.2986,-4.2986,-4.2986,-4.2986,-4.2986,-4.2986,-4.2986,-4.2986,-4.2986,-4.2986,-4.2986,-4.2986,-4.2986,-4.2986,-4.2986,-4.2986,-4.2986,-4.2986,-4.2986,-4.2986,-4.2986,-4.2986,-4.2986,-4.2986,-4.2986,-4.2986,-4.2986,-4.2986,-4.2986,-4.2986,-4.2986,-4.2986,-4.2986,-4.2986,-4.2986,-4.2986,-4.2488,-4.0592,-4.0592,-4.0534,-3.8639,-3.9698,-4.0521,-3.8742,-3.8597,-3.8284,-3.6598,-3.4911,-3.3779,-3.3779,-3.2774,-3.1914,-3.1914,-3.1621,-3.1958,-3.345,-3.3572,-3.4626,-3.724,-3.7743,-3.8453,-3.9645,-3.9697,-3.9697,-3.9697,-3.7156,-3.5563,-3.5288,-3.2721,-3.1767,-3.2701,-3.1498,-3.0898,-3.0898,-3.0898,-3.0898,-4.3807,-4.463,-4.5553,-4.6211,-4.6814,0.0,0.0,-4.7309,-4.7489,-4.8147,-4.7748,-4.7444,-4.8089,-4.7071,-4.5993,-4.5548,-4.4826,-4.3419,-4.0813,-3.9138,-3.7987,-3.7361,-3.6366,-3.5608,-3.5448,-3.5098,-3.5831,-3.8045,-3.9698,-4.0961,-4.1728,-4.2569,-4.2986,-4.2986,-4.2986,-4.2986,-4.2986,-4.2986,-4.2986,-4.2986,-4.2986,-4.2986,-4.2986,-4.2986,-4.2986,-4.2986,-4.2986,-4.2986,-4.2986,-4.2986,-4.2986,-4.2986,-4.2986,-4.2986,-4.2986,-4.2986,-4.2986,-4.2986,-4.2986,-4.2986,-4.2986,-4.2986,-4.2986,-4.2986,-4.2986,-4.2986,-4.2986,-4.2986,-4.2986,-4.2986,-4.2986,-4.2986,-4.2375,-3.9989,-3.9989,-3.9931,-3.7544,-3.826,-3.917,-3.8342,-3.8671,-3.8445,-3.6436,-3.5838,-3.5183,-3.3593,-3.3354,-3.3075,-3.2289,-3.1973,-3.2116,-3.2852,-3.3451,-3.4218,-3.548,-3.6944,-3.8006,-3.8582,-3.931,-3.9362,-3.8635,-3.721,-3.6054,-3.5288,-3.3155,-3.2358,-3.3077,-3.3098,-3.2701,-3.1977,-3.1208,-3.0898,-4.3074,-4.3882,-4.4794,-4.5252,-4.6166,-4.7019,0.0,0.0,0.0,-4.7997,-4.8087,-4.8267,-4.885,-4.7992,-4.7369,-4.7938,-4.7015,-4.5926,-4.5019,-4.2786,-4.0921,-4.0152,-3.8594,-3.7507,-3.7292,-3.7286,-3.8271,-4.0584,-4.0856,-4.1493,-4.2905,-4.2986,-4.2986,-4.2986,-4.2986,-4.2986,-4.2986,-4.2986,-4.2986,-4.2986,-4.2986,-4.2986,-4.2986,-4.2986,-4.2986,-4.2986,-4.2986,-4.2986,-4.2986,-4.2986,-4.2986,-4.2986,-4.2986,-4.2986,-4.2986,-4.2986,-4.2986,-4.2986,-4.2986,-4.2986,-4.2986,-4.2986,-4.2986,-4.2986,-4.2986,-4.2986,-4.2986,-4.2986,-4.2986,-4.2986,-4.2986,-4.2986,-4.2319,-3.9756,-3.9873,-3.9873,-3.7303,-3.7484,-3.8104,-3.7805,-3.8223,-3.8148,-3.6503,-3.6524,-3.591,-3.3679,-3.3899,-3.3839,-3.2586,-3.2344,-3.2285,-3.2285,-3.3295,-3.3962,-3.3859,-3.6005,-3.7481,-3.7732,-3.8514,-3.8571,-3.7673,-3.7019,-3.5945,-3.4481,-3.3304,-3.2815,-3.3077,-3.4013,-3.3979,-3.3077,-3.1883,-3.1325,-4.1518,-4.1936,-4.2544,-4.484,-4.5508,-4.5913,-4.7019,0.0,-4.7339,-4.7399,0.0,-4.7429,-4.7519,0.0,0.0,-4.739,-4.7102,-4.6851,-4.6736,-4.6334,-4.4637,-4.0963,-3.9424,-3.8903,-3.9343,-3.985,-4.0446,-4.1258,-4.1727,-4.2293,-4.2961,-4.2986,-4.2986,-4.2986,-4.2986,-4.2986,-4.2986,-4.2986,-4.2986,-4.2986,-4.2986,-4.2986,-4.2986,-4.2986,-4.2986,-4.2986,-4.2986,-4.2986,-4.2986,-4.2986,-4.2986,-4.2986,-4.2986,-4.2986,-4.2986,-4.2986,-4.2986,-4.2986,-4.2986,-4.2986,-4.2986,-4.2986,-4.2986,-4.2986,-4.2986,-4.2986,-4.2986,-4.2986,-4.2986,-4.2986,-4.2986,-4.2986,-4.293,-4.2544,-4.1476,-4.0476,-4.0105,-3.9111,-3.7805,-3.6335,-3.8379,-4.0279,-4.0035,-3.771,-3.6307,-3.7352,-3.5251,-3.345,-3.3281,-3.2949,-3.2734,-3.2734,-3.2566,-3.2955,-3.4202,-3.4651,-3.5945,-3.8556,-3.7225,-3.6884,-3.8166,-3.5213,-3.2907,-3.1441,-3.1228,-3.1767,-3.3077,-3.194,-3.1998,-3.3077,-3.2907,-3.2851,-4.0364,-4.1279,-4.2263,-4.3012,-4.4537,-4.5895,-4.6164,-4.677,-4.7309,-4.7309,0.0,0.0,0.0,0.0,0.0,0.0,-4.7807,-4.777,-4.777,-4.7348,-4.6349,-4.4401,-4.2256,-4.0644,-4.0184,-4.0105,-4.0779,-4.2193,-4.2252,-4.2439,-4.2936,-4.2986,-4.2986,-4.2986,-4.2986,-4.2986,-4.2986,-4.2986,-4.2986,-4.2986,-4.2986,-4.2986,-4.2986,-4.2986,-4.2986,-4.2986,-4.2986,-4.2986,-4.2986,-4.2986,-4.2986,-4.2986,-4.2986,-4.2986,-4.2986,-4.2986,-4.2986,-4.2986,-4.2986,-4.2986,-4.2986,-4.2986,-4.2986,-4.2986,-4.2986,-4.2986,-4.2986,-4.2986,-4.2986,-4.2986,-4.2986,-4.2986,-4.2737,-4.1842,-4.1076,-4.0361,-3.9405,-3.7963,-3.6578,-3.5928,-3.6881,-3.8082,-3.9053,-3.9639,-3.9265,-3.7122,-3.6478,-3.5827,-3.4902,-3.3806,-3.3164,-3.3164,-3.3817,-3.443,-3.4802,-3.6531,-3.7976,-3.8967,-3.8254,-3.7613,-3.7389,-3.606,-3.4418,-3.2537,-3.344,-3.3635,-3.3077,-3.336,-3.3304,-3.3077,-3.3077,-3.3077,-3.9747,-4.0773,-4.185,-4.165,-4.3257,-4.5007,-4.5321,-4.6238,-4.7095,-4.7252,-4.7459,0.0,0.0,0.0,-4.7459,-4.7938,0.0,-4.8027,-4.8027,-4.755,-4.708,-4.669,-4.4864,-4.3288,-4.2513,-4.1916,-4.2173,-4.367,-4.2987,-4.2645,-4.2992,-4.2986,-4.2986,-4.2986,-4.2986,-4.2986,-4.2986,-4.2986,-4.2986,-4.2986,-4.2986,-4.2986,-4.2986,-4.2986,-4.2986,-4.2986,-4.2986,-4.2986,-4.2986,-4.2986,-4.2986,-4.2986,-4.2986,-4.2986,-4.2986,-4.2986,-4.2986,-4.2986,-4.2986,-4.2986,-4.2986,-4.2986,-4.2986,-4.2986,-4.2986,-4.2986,-4.2986,-4.2986,-4.2986,-4.2986,-4.2986,-4.2986,-4.2737,-4.1558,-4.1248,-4.0961,-3.9756,-3.7903,-3.6478,-3.6478,-3.6478,-3.6721,-3.7445,-3.9464,-3.9989,-3.6941,-3.6721,-3.6478,-3.5273,-3.4133,-3.3418,-3.3418,-3.4445,-3.519,-3.5344,-3.7428,-3.87,-3.87,-3.9069,-3.855,-3.6859,-3.6436,-3.5533,-3.3938,-3.4632,-3.431,-3.2843,-3.3912,-3.4054,-3.3245,-3.3572,-3.3677,-3.9848,-4.0151,-4.0716,-4.1426,-4.1667,-4.2377,-4.484,-4.5924,-4.6579,-4.7181,-4.7818,-4.8057,-4.7429,-4.7309,-4.7309,0.0,-4.7339,0.0,0.0,-4.7296,-4.7052,-4.6293,-4.6594,-4.7032,-4.7581,-4.6566,-4.5885,-4.584,-4.4177,-4.3097,-4.3022,-4.2986,-4.2986,-4.2986,-4.2986,-4.2986,-4.2986,-4.2986,-4.2986,-4.2986,-4.2986,-4.2986,-4.2986,-4.2986,-4.2986,-4.2986,-4.2986,-4.2986,-4.2986,-4.2986,-4.2986,-4.2986,-4.2986,-4.2986,-4.2986,-4.2986,-4.2986,-4.2986,-4.2986,-4.2986,-4.2986,-4.2986,-4.2986,-4.2986,-4.2986,-4.2986,-4.2986,-4.2986,-4.2986,-4.2986,-4.2986,-4.2986,-4.2986,-4.293,-4.2905,-4.2905,-4.2849,-4.0361,-3.8104,-3.8104,-3.8104,-3.7626,-3.6173,-3.599,-3.6517,-3.7925,-3.552,-3.3544,-3.3481,-3.3418,-3.3418,-3.3418,-3.3418,-3.407,-3.5662,-3.5907,-3.6424,-3.7565,-3.9101,-3.9038,-3.6973,-3.5395,-3.4538,-3.448,-3.3055,-3.2311,-3.225,-3.2311,-3.2754,-3.3707,-3.4734,-3.5233,-4.03,-4.0902,-4.1487,-4.1,-4.1775,-4.2693,-4.2879,-4.4687,-4.6304,-4.6104,-4.7259,-4.8087,-4.7429,-4.7309,0.0,0.0,0.0,-4.7309,0.0,-4.7309,-4.7374,-4.7569,-4.7337,-4.6694,-4.563,-4.5962,-4.5816,-4.4811,-4.4177,-4.362,-4.3048,-4.2986,-4.2986,-4.2986,-4.2986,-4.2986,-4.2986,-4.2986,-4.2986,-4.2986,-4.2986,-4.2986,-4.2986,-4.2986,-4.2986,-4.2986,-4.2986,-4.2986,-4.2986,-4.2986,-4.2986,-4.2986,-4.2986,-4.2986,-4.2986,-4.2986,-4.2986,-4.2986,-4.2986,-4.3212,-4.3514,-4.3514,-4.3765,-4.4066,-4.4066,-4.4066,-4.4066,-4.4066,-4.4066,-4.4066,-4.4066,-4.4066,-4.4066,-4.4066,-4.379,-4.3514,-4.3514,-4.0998,-3.8656,-3.8656,-3.8008,-3.7294,-3.6729,-3.6666,-3.7391,-3.9439,-3.7985,-3.6599,-3.6599,-3.5643,-3.455,-3.3544,-3.5294,-3.6356,-3.5867,-3.7783,-3.9628,-4.1063,-4.0697,-3.9603,-3.7825,-3.7237,-3.5798,-3.3396,-3.3922,-3.3538,-3.2229,-3.2229,-3.2373,-3.2734,-3.4064,-3.4902,-4.0852,-4.148,-4.1986,-4.1028,-4.1664,-4.2424,-4.1968,-4.3645,-4.5419,-4.5712,-4.6719,-4.7688,-4.7939,-4.7608,-4.7369,0.0,0.0,0.0,0.0,-4.7309,-4.7459,-4.7878,-4.7729,-4.73,-4.6453,-4.6794,-4.6743,-4.5949,-4.5059,-4.4256,-4.3771,-4.324,-4.2986,-4.2986,-4.2986,-4.2986,-4.2986,-4.2986,-4.2986,-4.2986,-4.2986,-4.2986,-4.2986,-4.2986,-4.2986,-4.2986,-4.2986,-4.2986,-4.2986,-4.2986,-4.2986,-4.2986,-4.3187,-4.3263,-4.3237,-4.3062,-4.3112,-4.3288,-4.3489,-4.379,-4.4091,-4.4091,-4.4342,-4.4618,-4.4618,-4.4618,-4.4618,-4.4618,-4.4618,-4.4618,-4.4618,-4.4618,-4.4618,-4.4618,-4.4342,-4.4091,-4.4091,-4.1958,-3.9901,-3.9293,-3.855,-3.7847,-3.7212,-3.7594,-3.8258,-3.9024,-3.8252,-3.734,-3.656,-3.6112,-3.5376,-3.4383,-3.6112,-3.7363,-3.7484,-3.9931,-4.1899,-4.2905,-4.2012,-4.0707,-3.9111,-3.8521,-3.6811,-3.3899,-3.4309,-3.3942,-3.2617,-3.2617,-3.2539,-3.2444,-3.3959,-3.5033]},{"header":{"parameterUnit":"m.s-1","parameterCategory":1,"la1":30.6,"la2":29.2853,"lo1":-89.7004,"lo2":-87.6739,"dy":0.0162,"dx":0.0183,"nx":112,"ny":82,"refTime":"2025-04-19T12:00:00:Z","depth":0,"parameterNumber":3,"parameterNumberName":"V-component_of_WINDS"},"data":[0.0,0.0,0.0,0.0,0.0,0.0,0.0,0.0,0.0,0.0,0.0,0.0,0.0,0.0,0.0,0.0,0.0,0.0,0.0,0.0,0.0,0.0,0.0,0.0,0.0,0.0,0.0,0.0,0.0,0.0,0.0,0.0,0.0,0.0,0.0,0.0,0.0,0.0,0.0,0.0,0.0,0.0,0.0,0.0,0.0,0.0,0.0,0.0,0.0,0.0,0.0,0.0,0.0,0.0,0.0,0.0,0.0,0.0,0.0,0.0,0.0,0.0,0.0,0.0,0.0,0.0,0.0,0.0,0.0,0.0,0.0,0.0,0.0,0.0,0.0,0.0,0.0,0.0,0.0,0.0,0.0,0.0,0.0,0.0,0.0,0.0,0.0,0.0,0.0,0.0,2.2467,2.0598,1.9499,1.7591,1.4362,1.4913,1.4706,1.2835,0.0,0.0,0.0,0.0,0.0,0.0,0.0,0.0,0.0,0.0,0.0,0.0,0.0,0.0,0.0,0.0,0.0,0.0,0.0,0.0,0.0,0.0,0.0,0.0,0.0,0.0,0.0,0.0,0.0,0.0,0.0,0.0,0.0,0.0,0.0,0.0,0.0,0.0,0.0,0.0,0.0,0.0,0.0,0.0,0.0,0.0,0.0,0.0,0.0,0.0,0.0,0.0,0.0,0.0,0.0,0.0,0.0,0.0,0.0,0.0,0.0,0.0,0.0,0.0,0.0,0.0,0.0,0.0,0.0,0.0,0.0,0.0,0.0,0.0,0.0,0.0,0.0,0.0,0.0,0.0,0.0,0.0,0.0,0.0,0.0,0.0,0.0,0.0,0.0,0.0,0.0,0.0,0.0,0.0,0.0,0.0,0.0,0.0,0.0,0.0,0.0,0.0,0.0,0.0,2.4792,2.3169,2.1562,1.9853,1.7859,1.6234,1.5524,1.6053,0.0,0.0,0.0,0.0,0.0,0.0,0.0,0.0,0.0,0.0,0.0,0.0,0.0,0.0,0.0,0.0,0.0,0.0,0.0,0.0,0.0,0.0,0.0,0.0,0.0,0.0,0.0,0.0,0.0,0.0,0.0,0.0,0.0,0.0,0.0,0.0,0.0,0.0,0.0,0.0,0.0,0.0,0.0,0.0,0.0,0.0,0.0,0.0,0.0,0.0,0.0,0.0,0.0,0.0,0.0,0.0,0.0,0.0,0.0,0.0,0.0,0.0,0.0,0.0,0.0,0.0,0.0,0.0,0.0,0.0,0.0,0.0,0.0,0.0,0.0,0.0,0.0,0.0,0.0,0.0,0.0,0.0,0.0,0.0,0.0,0.0,0.0,0.0,0.0,0.0,0.0,0.0,0.0,0.0,0.0,0.0,0.0,0.0,0.0,0.0,0.0,0.0,0.0,2.5555,2.5,2.4881,2.339,2.1707,1.9992,1.8703,1.7647,1.6832,1.7252,0.0,0.0,0.0,0.0,0.0,0.0,0.0,0.0,0.0,0.0,0.0,0.0,0.0,0.0,0.0,0.0,0.0,0.0,0.0,0.0,0.0,0.0,0.0,0.0,0.0,0.0,0.0,0.0,0.0,0.0,0.0,0.0,0.0,0.0,0.0,0.0,0.0,0.0,0.0,0.0,0.0,0.0,0.0,0.0,0.0,0.0,0.0,0.0,0.0,0.0,0.0,0.0,0.0,0.0,0.0,0.0,0.0,0.0,0.0,0.0,0.0,0.0,0.0,0.0,0.0,0.0,0.0,0.0,0.0,0.0,0.0,0.0,0.0,0.0,0.0,0.0,0.0,0.0,0.0,0.0,0.0,0.0,0.0,0.0,0.0,0.0,0.0,0.0,0.0,0.0,0.0,0.0,0.0,0.0,0.0,0.0,0.0,0.0,0.0,0.0,0.0,0.0,2.6509,2.6011,2.6506,2.5452,2.39,2.1804,2.1052,1.9761,1.7537,1.7999,0.0,0.0,0.0,0.0,0.0,0.0,0.0,0.0,0.0,0.0,0.0,0.0,0.0,0.0,0.0,0.0,0.0,0.0,0.0,0.0,0.0,0.0,0.0,0.0,0.0,0.0,0.0,0.0,0.0,0.0,0.0,0.0,0.0,0.0,0.0,0.0,0.0,0.0,0.0,0.0,0.0,0.0,0.0,0.0,0.0,0.0,0.0,0.0,0.0,0.0,0.0,0.0,0.0,0.0,0.0,0.0,0.0,0.0,0.0,0.0,0.0,0.0,0.0,0.0,0.0,0.0,0.0,0.0,0.0,0.0,0.0,0.0,0.0,0.0,0.0,0.0,0.0,0.0,0.0,0.0,0.0,0.0,0.0,0.0,0.0,0.0,0.0,0.0,0.0,0.0,0.0,0.0,0.0,0.0,0.0,0.0,0.0,0.0,0.0,0.0,0.0,0.0,2.954,2.9867,2.8408,2.811,2.6789,2.3683,2.2602,2.1278,1.9314,1.8446,0.0,0.0,0.0,0.0,0.0,0.0,0.0,0.0,0.0,0.0,0.0,0.0,0.0,0.0,0.0,0.0,0.0,0.0,0.0,0.0,0.0,0.0,0.0,0.0,0.0,0.0,0.0,0.0,0.0,0.0,0.0,0.0,0.0,0.0,0.0,0.0,0.0,0.0,0.0,0.0,0.0,0.0,0.0,0.0,0.0,0.0,0.0,0.0,0.0,0.0,0.0,0.0,0.0,0.0,0.0,0.0,0.0,0.0,0.0,0.0,0.0,0.0,0.0,0.0,0.0,0.0,0.0,0.0,0.0,0.0,0.0,0.0,0.0,0.0,0.0,0.0,0.0,0.0,0.0,0.0,0.0,0.0,0.0,0.0,0.0,0.0,0.0,0.0,0.0,0.0,0.0,0.0,0.0,0.0,0.0,0.0,0.0,0.0,0.0,0.0,0.0,0.0,2.8926,2.9734,2.9944,2.9039,2.7842,2.6346,2.4766,2.2824,2.0395,0.0,0.0,0.0,0.0,0.0,0.0,0.0,0.0,0.0,0.0,0.0,0.0,0.0,0.0,0.0,0.0,0.0,0.0,0.0,0.0,0.0,0.0,0.0,0.0,0.0,0.0,0.0,0.0,0.0,0.0,0.0,0.0,0.0,0.0,0.0,0.0,0.0,0.0,0.0,0.0,0.0,0.0,0.0,0.0,0.0,0.0,0.0,0.0,0.0,0.0,0.0,0.0,0.0,0.0,0.0,0.0,0.0,0.0,0.0,0.0,0.0,0.0,0.0,0.0,0.0,0.0,0.0,0.0,0.0,0.0,0.0,0.0,0.0,0.0,0.0,0.0,0.0,0.0,0.0,0.0,0.0,0.0,0.0,0.0,0.0,0.0,0.0,0.0,0.0,0.0,0.0,0.0,0.0,0.0,0.0,0.0,0.0,0.0,0.0,0.0,0.0,0.0,2.8224,2.9347,3.0414,3.1494,3.0548,2.9306,2.7926,2.6423,2.4168,2.0891,0.0,0.0,0.0,0.0,0.0,0.0,0.0,0.0,0.0,0.0,0.0,0.0,0.0,0.0,0.0,0.0,0.0,0.0,0.0,0.0,0.0,0.0,0.0,0.0,0.0,0.0,0.0,0.0,0.0,0.0,0.0,0.0,0.0,0.0,0.0,0.0,0.0,0.0,0.0,0.0,0.0,0.0,0.0,0.0,0.0,0.0,0.0,0.0,0.0,0.0,0.0,0.0,0.0,0.0,0.0,0.0,0.0,0.0,0.0,0.0,0.0,0.0,0.0,0.0,0.0,0.0,0.0,0.0,0.0,0.0,0.0,0.0,0.0,0.0,0.0,0.0,0.0,0.0,0.0,0.0,0.0,0.0,0.0,0.0,0.0,0.0,0.0,0.0,0.0,0.0,0.0,0.0,0.0,0.0,0.0,0.0,0.0,0.0,0.0,0.0,0.0,0.0,2.9653,3.1391,3.2608,3.3071,3.3113,3.1657,2.8141,2.728,2.5183,0.0,0.0,0.0,0.0,0.0,0.0,0.0,0.0,0.0,0.0,0.0,0.0,0.0,0.0,0.0,0.0,0.0,0.0,0.0,0.0,0.0,0.0,0.0,0.0,0.0,0.0,0.0,0.0,0.0,0.0,0.0,0.0,0.0,0.0,0.0,0.0,0.0,0.0,0.0,0.0,0.0,0.0,0.0,0.0,0.0,0.0,0.0,0.0,0.0,0.0,0.0,0.0,0.0,0.0,0.0,0.0,0.0,0.0,0.0,0.0,0.0,0.0,0.0,0.0,0.0,0.0,0.0,0.0,0.0,0.0,0.0,0.0,0.0,0.0,0.0,0.0,0.0,0.0,0.0,0.0,0.0,0.0,0.0,0.0,0.0,0.0,0.0,0.0,0.0,0.0,0.0,0.0,0.0,0.0,0.0,0.0,0.0,0.0,0.0,0.0,0.0,0.0,0.0,2.9225,3.172,3.357,3.3999,3.4043,3.3312,3.1634,3.0142,2.7885,2.4559,0.0,0.0,0.0,0.0,0.0,0.0,0.0,0.0,0.0,0.0,0.0,0.0,0.0,0.0,0.0,0.0,0.0,0.0,0.0,0.0,0.0,0.0,0.0,0.0,0.0,0.0,0.0,0.0,0.0,0.0,0.0,0.0,0.0,0.0,0.0,0.0,0.0,0.0,0.0,0.0,0.0,0.0,0.0,0.0,0.0,0.0,0.0,0.0,0.0,0.0,0.0,0.0,0.0,0.0,0.0,0.0,0.0,0.0,0.0,0.0,0.0,0.0,0.0,0.0,0.0,0.0,0.0,0.0,0.0,0.0,0.0,0.0,0.0,0.0,0.0,0.0,0.0,0.0,0.0,0.0,0.0,0.0,0.0,0.0,0.0,0.0,0.0,0.0,0.0,0.0,0.0,0.0,0.0,0.0,0.0,0.0,0.0,0.0,0.0,0.0,0.0,0.0,2.9611,3.2437,3.448,3.4932,3.4925,3.4448,3.3086,3.1804,2.9568,2.6127,0.0,0.0,0.0,0.0,0.0,0.0,0.0,0.0,0.0,0.0,0.0,0.0,0.0,0.0,0.0,0.0,0.0,0.0,0.0,0.0,0.0,0.0,0.0,0.0,0.0,0.0,0.0,0.0,0.0,0.0,0.0,0.0,0.0,0.0,0.0,0.0,0.0,0.0,0.0,0.0,0.0,0.0,0.0,0.0,0.0,0.0,0.0,0.0,0.0,0.0,0.0,0.0,0.0,0.0,0.0,0.0,0.0,0.0,0.0,0.0,0.0,0.0,0.0,0.0,0.0,0.0,0.0,0.0,0.0,0.0,0.0,0.0,0.0,0.0,0.0,0.0,0.0,0.0,0.0,0.0,0.0,0.0,0.0,0.0,0.0,0.0,0.0,0.0,0.0,0.0,0.0,0.0,0.0,0.0,0.0,0.0,0.0,0.0,0.0,0.0,0.0,0.0,3.0535,3.3477,3.5513,3.589,3.5962,3.5216,3.3458,3.2662,3.0581,2.6744,0.0,0.0,0.0,0.0,0.0,0.0,0.0,0.0,0.0,0.0,0.0,0.0,0.0,0.0,0.0,0.0,0.0,0.0,0.0,0.0,0.0,0.0,0.0,0.0,0.0,0.0,0.0,0.0,0.0,0.0,0.0,0.0,0.0,0.0,0.0,0.0,0.0,0.0,0.0,0.0,0.0,0.0,0.0,0.0,0.0,0.0,0.0,0.0,0.0,0.0,0.0,0.0,0.0,0.0,0.0,0.0,0.0,0.0,0.0,0.0,3.6289,3.4764,0.0,0.0,0.0,0.0,0.0,0.0,0.0,0.0,0.0,0.0,0.0,0.0,0.0,0.0,0.0,0.0,0.0,0.0,0.0,0.0,0.0,0.0,0.0,0.0,0.0,0.0,0.0,0.0,0.0,0.0,0.0,0.0,0.0,0.0,0.0,0.0,0.0,0.0,0.0,0.0,3.1754,3.4722,3.6823,3.6873,3.6898,3.6578,3.572,3.3863,3.223,3.0928,2.8611,0.0,0.0,0.0,0.0,0.0,0.0,0.0,0.0,0.0,0.0,0.0,0.0,0.0,0.0,0.0,0.0,0.0,0.0,0.0,0.0,0.0,0.0,0.0,0.0,0.0,0.0,0.0,0.0,0.0,0.0,0.0,0.0,0.0,0.0,0.0,0.0,0.0,0.0,0.0,0.0,0.0,0.0,0.0,0.0,0.0,0.0,0.0,0.0,0.0,0.0,0.0,0.0,0.0,0.0,0.0,0.0,0.0,0.0,0.0,3.9788,3.8335,0.0,0.0,0.0,0.0,0.0,0.0,0.0,0.0,0.0,0.0,0.0,0.0,0.0,0.0,0.0,0.0,0.0,0.0,0.0,0.0,0.0,0.0,0.0,0.0,0.0,0.0,0.0,0.0,0.0,0.0,0.0,0.0,0.0,0.0,0.0,0.0,0.0,0.0,0.0,0.0,3.1783,3.473,3.6832,3.6832,3.6832,3.6732,3.643,3.4774,3.3293,3.2282,3.0053,0.0,0.0,0.0,0.0,0.0,0.0,0.0,0.0,0.0,0.0,0.0,0.0,0.0,0.0,0.0,0.0,0.0,0.0,0.0,0.0,0.0,0.0,0.0,0.0,0.0,0.0,0.0,0.0,0.0,0.0,0.0,0.0,0.0,0.0,0.0,0.0,0.0,0.0,0.0,0.0,0.0,0.0,0.0,0.0,0.0,0.0,0.0,0.0,0.0,0.0,0.0,0.0,0.0,4.4518,4.4415,4.4303,4.3891,4.3845,4.4135,4.3676,4.2893,4.1811,4.0637,0.0,0.0,0.0,0.0,0.0,0.0,0.0,0.0,0.0,0.0,0.0,0.0,0.0,0.0,0.0,0.0,0.0,0.0,0.0,0.0,0.0,0.0,4.0824,4.1013,4.097,3.9534,3.506,0.0,0.0,0.0,0.0,0.0,0.0,0.0,0.0,0.0,0.0,0.0,3.1834,3.4523,3.6405,3.6405,3.6405,3.6405,3.6405,3.5353,3.4094,3.2699,3.1134,2.9479,0.0,0.0,0.0,0.0,0.0,0.0,0.0,0.0,0.0,0.0,0.0,0.0,0.0,0.0,0.0,0.0,0.0,0.0,0.0,0.0,0.0,0.0,0.0,0.0,0.0,0.0,0.0,0.0,0.0,0.0,0.0,0.0,4.2375,4.2375,0.0,0.0,0.0,0.0,0.0,0.0,0.0,0.0,0.0,0.0,0.0,0.0,0.0,4.6354,4.6889,4.7972,4.8549,4.8549,4.8549,4.8207,4.7674,4.7585,4.7288,4.677,4.6725,0.0,4.3218,4.3047,0.0,0.0,0.0,0.0,0.0,0.0,0.0,0.0,0.0,0.0,0.0,0.0,0.0,0.0,0.0,0.0,0.0,0.0,0.0,0.0,0.0,0.0,4.3949,4.4499,4.3887,4.2955,4.2249,3.9172,3.6198,3.4866,3.4675,3.4161,0.0,0.0,0.0,0.0,0.0,0.0,3.3501,3.5257,3.6405,3.6405,3.6405,3.6405,3.6405,3.5353,3.461,3.4375,3.2803,3.1368,3.0205,2.9004,0.0,0.0,0.0,0.0,0.0,0.0,0.0,0.0,0.0,0.0,0.0,0.0,0.0,0.0,0.0,0.0,0.0,0.0,0.0,0.0,0.0,0.0,0.0,0.0,0.0,0.0,0.0,0.0,0.0,4.4439,4.4846,4.5235,4.513,4.4704,0.0,0.0,0.0,0.0,0.0,0.0,0.0,0.0,0.0,4.7166,4.775,4.8172,4.8466,4.9028,4.9299,4.9299,4.9299,4.9179,4.888,4.8446,4.8327,4.8356,4.7638,4.6889,4.609,4.5029,4.3845,4.2685,0.0,0.0,0.0,0.0,4.1928,4.1495,4.2436,4.2574,4.2205,4.164,0.0,0.0,0.0,0.0,0.0,0.0,0.0,4.252,4.32,4.4428,4.565,4.6254,4.607,4.5607,4.5181,4.3399,4.1047,3.8165,3.7575,3.6736,3.4344,3.4034,0.0,0.0,0.0,3.5656,3.6215,3.6907,3.7381,3.7381,3.6803,3.6514,3.6759,3.6077,3.5721,3.6045,3.4776,3.3511,3.2447,3.1,2.96,0.0,0.0,0.0,0.0,0.0,0.0,0.0,0.0,0.0,0.0,0.0,0.0,0.0,0.0,0.0,0.0,0.0,0.0,0.0,0.0,0.0,0.0,0.0,0.0,0.0,0.0,0.0,0.0,4.5901,4.6624,4.6802,4.709,4.6754,0.0,0.0,0.0,0.0,0.0,0.0,4.8181,4.8303,4.8787,4.9913,4.9958,4.9914,4.9808,4.9808,4.9808,4.9808,4.9808,4.9673,4.9494,4.8835,4.8716,4.9,4.7818,4.7578,4.7953,4.6505,4.5084,4.3856,4.3856,4.3506,4.3024,4.3675,4.3506,4.3109,4.4121,4.4206,4.3817,4.3336,4.2968,4.243,4.1128,0.0,0.0,0.0,0.0,4.4414,4.4909,4.5782,4.6711,4.7189,4.7309,4.716,4.6681,4.5903,4.4294,4.0923,4.0024,3.9024,3.6378,3.6248,0.0,3.5603,3.6635,3.7675,3.8325,3.8488,3.8559,3.8559,3.7639,3.7196,3.7555,3.6924,3.6692,3.7056,3.6156,3.5237,3.4446,3.2812,3.1398,3.0196,0.0,0.0,0.0,0.0,0.0,0.0,0.0,0.0,0.0,0.0,0.0,0.0,0.0,0.0,0.0,0.0,0.0,0.0,0.0,0.0,0.0,0.0,0.0,0.0,0.0,0.0,0.0,0.0,0.0,4.6275,4.6841,0.0,0.0,0.0,0.0,4.7232,4.8362,4.9567,5.0653,5.0739,5.1048,5.1729,5.176,5.157,5.1109,5.1109,5.1109,5.1109,5.1109,5.0734,5.0106,4.9523,4.894,4.8297,4.7608,4.7339,4.7339,4.7222,4.7149,4.7076,4.7076,4.6658,4.6152,4.6808,4.6658,4.6181,4.6867,4.7106,4.7046,4.7016,4.6152,4.5108,4.503,4.4542,0.0,0.0,4.509,4.6177,4.6237,4.6728,4.7279,4.7309,4.7309,4.7309,4.7279,4.6232,4.4844,4.3379,4.2604,4.1646,3.9855,0.0,3.8617,3.8114,3.8117,3.8353,3.892,3.9455,3.9826,3.9826,3.9188,3.8761,3.8818,3.7745,3.7056,3.711,3.6515,3.6117,3.6077,3.4513,3.366,3.3553,3.1487,0.0,0.0,0.0,0.0,0.0,0.0,0.0,0.0,0.0,0.0,0.0,0.0,0.0,0.0,0.0,0.0,0.0,0.0,0.0,0.0,0.0,0.0,0.0,0.0,0.0,0.0,0.0,0.0,5.0057,5.105,0.0,5.0973,5.1347,5.1986,5.2759,5.3259,5.3825,5.4623,5.4242,5.4073,5.4326,5.3872,5.3533,5.3396,5.2664,5.226,5.226,5.112,5.0435,5.0166,4.9134,4.8745,4.8865,4.7788,4.7549,4.7908,4.7489,4.7309,4.7309,4.7309,4.716,4.698,4.7219,4.716,4.698,4.7219,4.7309,4.7309,4.7309,4.6681,4.5963,4.5963,4.5783,4.5603,4.5603,4.6262,4.695,4.695,4.713,4.7309,4.7309,4.7309,4.7309,4.7309,4.6232,4.5155,4.4676,4.3718,4.2524,4.1074,4.1045,4.0958,4.0364,4.0646,4.1102,4.1703,4.1318,4.1,4.1,3.9759,3.8991,3.9332,3.8592,3.8282,3.8559,3.8373,3.7927,3.7252,3.668,3.5898,3.485,3.3423,3.2136,0.0,0.0,0.0,0.0,0.0,0.0,0.0,0.0,0.0,0.0,0.0,0.0,0.0,0.0,0.0,0.0,0.0,0.0,0.0,0.0,0.0,0.0,0.0,0.0,0.0,5.1394,5.2615,5.2229,5.4066,5.5021,5.4061,5.4572,5.5272,5.605,5.6167,5.6487,5.7352,5.6663,5.6265,5.6265,5.5182,5.4589,5.4589,5.3077,5.2407,5.256,5.094,5.0076,4.9883,4.8775,4.8506,4.891,4.7788,4.7549,4.7908,4.7489,4.7309,4.7309,4.7309,4.7309,4.7309,4.7309,4.7309,4.7309,4.7309,4.7309,4.7309,4.7309,4.701,4.6651,4.6651,4.6651,4.6651,4.6651,4.698,4.7309,4.7309,4.7309,4.7309,4.7309,4.7309,4.7249,4.701,4.6082,4.5214,4.5005,4.4077,4.3021,4.2192,4.2402,4.2551,4.2102,4.2402,4.2851,4.323,4.2452,4.1872,4.1872,4.04,3.951,3.9848,3.9314,3.909,3.9367,3.9373,3.8964,3.8047,3.7647,3.6873,3.5583,3.4333,3.2943,3.146,0.0,0.0,0.0,0.0,0.0,0.0,0.0,0.0,0.0,0.0,0.0,0.0,0.0,0.0,0.0,0.0,0.0,0.0,0.0,0.0,0.0,0.0,0.0,5.0589,5.3658,5.513,5.2683,5.559,5.6861,5.4469,5.5839,5.6905,5.6948,5.6948,5.7459,5.8525,5.7866,5.747,5.7397,5.5595,5.463,5.4589,5.235,5.1486,5.1878,5.0698,4.9853,4.9269,4.8566,4.8267,4.8207,4.7578,4.7309,4.7309,4.7309,4.7309,4.7309,4.7309,4.7309,4.7309,4.7309,4.7309,4.7309,4.7309,4.7309,4.7309,4.7309,4.7309,4.7309,4.7309,4.7309,4.7309,4.7309,4.7309,4.7309,4.7309,4.7309,4.7309,4.7309,4.7309,4.713,4.6429,4.5783,4.5095,4.4436,4.3738,4.329,4.329,4.329,4.329,4.329,4.329,0.0,4.329,4.2761,4.241,4.241,4.1175,4.0397,4.0397,3.9798,3.9373,3.9373,3.9409,3.911,3.8452,3.7405,3.6576,3.5964,3.4341,3.2925,3.1875,0.0,0.0,0.0,0.0,0.0,0.0,0.0,0.0,0.0,0.0,0.0,0.0,0.0,0.0,0.0,0.0,0.0,0.0,0.0,0.0,0.0,5.5138,5.6532,5.5166,5.632,5.7064,5.6338,5.7592,5.8586,5.8766,5.9239,5.9909,6.0798,6.0879,6.0765,6.0533,5.9761,5.8781,5.743,5.6322,5.541,5.463,5.3165,5.2281,5.1878,5.0289,4.9194,4.8536,4.7878,4.7578,4.7549,4.7369,4.7309,4.7309,4.7309,4.7309,4.7309,4.7309,4.7309,4.7309,4.7309,4.7309,4.7309,4.7309,4.7309,4.7309,4.7309,4.7309,4.7309,4.7309,4.7309,4.7309,4.7309,4.7309,4.7309,4.7309,4.7309,4.7309,4.7309,4.7309,4.713,4.6429,4.5783,4.5095,4.4436,4.3738,4.329,4.329,4.329,4.329,4.329,4.329,4.329,4.329,4.2761,4.241,4.241,4.1175,4.0397,4.0397,3.9798,3.9373,3.9373,3.896,3.8811,3.911,3.8383,3.7533,3.6568,3.5718,3.4633,0.0,0.0,0.0,0.0,0.0,0.0,0.0,0.0,0.0,0.0,0.0,0.0,0.0,0.0,0.0,0.0,0.0,0.0,0.0,0.0,0.0,0.0,5.7824,5.9729,6.0013,5.9696,5.9111,5.8293,5.9437,6.0204,5.9903,6.0787,6.1235,6.0912,6.1528,6.1509,6.0604,5.9527,5.8491,5.743,5.5726,5.4723,5.4589,5.2709,5.1673,5.1487,4.9728,4.8506,4.7848,4.7489,4.7309,4.7309,4.7309,4.7309,4.7309,4.7309,4.7309,4.7309,0.0,0.0,0.0,0.0,4.7309,4.7309,4.7309,4.7309,4.7309,4.7309,4.7309,4.7309,4.7309,4.7309,4.7309,4.7309,4.7309,4.7309,4.7309,4.7309,4.7249,4.695,4.689,4.6621,4.5693,4.5155,4.4676,4.3977,4.3559,0.0,4.329,4.329,4.329,4.329,4.329,4.329,4.329,4.2521,4.1991,4.1991,4.0786,3.9978,3.9978,3.9649,0.0,0.0,0.0,3.8871,3.899,3.8332,0.0,0.0,0.0,0.0,0.0,3.6078,0.0,0.0,3.4679,3.5189,0.0,0.0,0.0,0.0,0.0,0.0,0.0,0.0,0.0,0.0,0.0,0.0,0.0,0.0,0.0,0.0,6.0304,6.2041,6.4288,6.3183,6.1478,5.9572,6.102,6.1358,5.9214,6.0828,6.1078,5.8947,6.0126,6.0418,5.9243,5.792,0.0,0.0,0.0,5.3309,5.4211,5.1573,5.0396,5.0696,4.9065,4.7938,4.7309,4.7309,4.7309,4.7309,4.7309,4.7309,4.7309,4.7309,4.7309,4.7309,4.7309,4.7309,4.7309,4.7309,4.7309,4.7309,4.7309,0.0,0.0,4.7309,4.7309,4.7309,4.7309,4.7309,4.7309,4.7309,4.7309,4.7309,4.7309,4.7249,4.704,4.6471,4.6219,4.5843,4.4586,4.4317,4.4107,4.3409,4.329,4.329,4.329,4.329,4.329,4.329,4.329,4.329,4.329,4.2252,4.1542,4.1542,4.0307,0.0,3.9493,3.9469,3.9373,3.9373,3.9373,3.911,3.8422,3.7913,3.7584,3.7524,3.7524,3.7494,3.7404,3.8063,3.8093,3.7524,3.7524,3.7494,0.0,0.0,0.0,0.0,0.0,0.0,0.0,0.0,0.0,0.0,0.0,0.0,0.0,0.0,0.0,5.953,6.256,6.4713,6.4607,6.4788,6.4345,6.2788,6.1642,6.0787,6.0289,5.9784,5.9302,5.8857,5.8581,5.8109,5.727,5.6465,5.5346,5.3789,5.3183,5.2575,5.1835,5.0771,4.9974,4.9627,4.8729,0.0,4.7309,4.7309,4.7309,4.7309,4.7309,4.7309,4.7309,4.7309,4.7309,4.7309,4.7309,4.7309,4.7309,4.7309,4.7309,4.7309,4.7309,4.7309,4.7309,4.7309,4.7309,4.7309,4.7309,4.7309,0.0,4.7309,4.7309,4.7309,4.7309,4.692,4.6429,4.6309,4.5903,4.5274,4.4496,4.4317,4.4107,4.3409,4.329,4.329,4.329,4.329,4.329,4.329,4.329,4.329,4.329,4.2641,4.2201,4.2201,4.0995,4.0217,4.0217,3.9738,3.9373,3.9373,3.9373,3.911,3.8422,3.8811,3.8781,3.8212,3.8212,3.7943,3.7404,3.8063,3.8332,3.8212,3.8212,3.7913,0.0,0.0,0.0,0.0,0.0,0.0,0.0,0.0,0.0,0.0,0.0,5.3175,5.4899,0.0,5.8798,5.9838,6.2118,6.3814,6.377,6.3814,6.3506,6.2707,6.1757,6.0521,5.8947,5.8812,5.8314,5.7086,5.715,5.6834,5.5852,5.4844,5.3859,5.29,5.235,5.1591,5.072,5.0092,4.9434,4.882,4.8117,4.7608,4.7309,4.7309,4.7309,4.7309,4.7309,4.7309,4.7309,4.7309,4.7309,4.7309,4.7309,4.7309,4.7309,4.7309,4.7309,4.7309,4.7309,4.7309,4.7309,4.7309,4.7309,4.7309,4.7309,4.7309,4.7309,4.7309,4.7309,4.7309,4.7309,4.68,4.6232,4.5903,4.5304,4.4616,4.3917,4.3798,4.3678,4.3349,4.329,4.329,4.329,4.329,4.329,4.329,4.329,4.329,4.329,4.2761,4.241,4.241,4.1512,4.0756,4.0427,3.9798,3.9373,3.9373,3.9373,3.926,3.8901,3.923,3.926,3.8901,3.8901,3.8751,3.8422,3.8751,3.8901,3.8901,3.8901,3.8721,0.0,0.0,0.0,0.0,0.0,0.0,0.0,5.5999,5.5904,5.631,5.5712,5.5501,5.6547,5.7678,5.8882,6.0265,6.1369,6.2332,6.2908,6.2492,6.1942,6.1454,6.1152,5.9955,5.726,5.7668,5.7214,5.515,5.5659,5.5566,5.4422,5.3252,5.2575,5.2575,5.1681,5.09,5.0196,4.9583,4.897,4.8267,4.7608,4.7309,4.7309,4.7309,4.7309,4.7309,4.7309,4.7309,4.7309,4.7309,4.7309,4.7309,4.7309,4.7309,4.7309,4.7309,4.7309,4.7309,4.7309,4.7309,4.7309,4.7309,4.7309,4.7309,4.7309,4.7309,4.7309,4.7309,4.7309,4.7279,4.716,4.6621,4.5963,4.5274,4.4586,4.3947,4.3409,4.329,4.329,4.329,4.329,4.329,4.329,4.329,4.329,4.329,4.329,4.329,4.329,4.288,4.259,4.259,4.1991,4.1265,4.0457,3.9798,3.9373,3.9373,3.9373,3.9373,3.9373,3.9373,3.9373,3.9373,3.9373,3.9373,3.9373,3.9373,3.9373,3.9373,3.9373,3.9373,5.4032,5.4256,5.4931,5.6081,5.6506,5.6945,0.0,5.848,5.8342,5.7834,5.8195,5.8581,5.8744,5.9356,6.0276,6.1557,6.241,6.2908,6.2972,6.2908,6.2252,6.0469,5.9166,5.804,5.7101,5.6134,5.521,5.4371,5.3886,5.329,5.2527,5.1777,5.1386,5.1386,5.1276,5.09,5.0196,4.9583,4.897,4.8267,4.7608,4.7309,4.7309,4.7309,4.7309,4.7309,4.7309,4.7309,4.7309,4.7309,4.7309,4.7309,4.7309,4.7309,4.7309,4.7309,4.7309,4.7309,4.7309,4.7309,4.7309,4.7309,4.7309,4.7309,4.7309,4.7309,4.7309,4.7309,4.7309,4.716,4.6591,4.5933,4.5244,4.4586,4.3888,4.3379,4.3319,4.329,4.329,4.329,4.329,4.329,4.329,4.329,4.329,4.329,4.329,4.329,4.329,4.323,4.32,4.32,4.2641,4.1782,4.0516,3.9798,3.9373,3.9373,3.9373,3.9373,3.9373,3.9373,3.9373,3.9373,3.9373,3.9373,3.9373,3.9373,3.9373,3.9373,3.9373,3.9373,5.6309,5.6023,5.6136,5.8389,5.9327,5.9955,6.1282,6.1369,6.1215,6.134,6.0454,5.9908,6.0643,6.0106,5.9826,6.0714,6.0818,6.0722,6.0722,6.0722,6.0167,5.8562,5.7821,5.7243,5.6605,5.5742,5.491,5.4251,5.3563,5.2905,5.2247,5.1558,5.1229,5.1229,5.1229,5.072,4.9673,4.9449,4.879,4.7698,4.7429,4.7309,4.7309,4.7309,4.7309,4.7309,4.7309,4.7309,4.7309,4.7309,4.7309,4.7309,4.7309,4.7309,4.7309,4.7309,4.7309,4.7309,4.7309,4.7309,4.7309,4.7309,4.7309,4.7309,4.7309,4.7309,4.7309,4.7309,4.704,4.6681,4.6339,4.5514,4.4646,4.4377,4.3768,4.329,4.329,4.329,4.329,4.329,4.329,4.329,4.329,4.329,4.329,4.329,4.329,4.329,4.329,4.329,4.329,4.329,4.2402,4.1602,4.1025,4.0008,3.9373,3.9373,3.9373,3.9373,3.9373,3.9373,3.9373,3.9373,3.9373,3.9373,3.9373,3.9373,3.9373,3.9373,3.9373,3.9373,5.7628,5.7512,5.772,6.0403,6.1816,6.2724,6.3566,6.3693,6.357,6.3326,6.1981,6.1002,6.1388,6.019,5.9308,5.9967,5.9548,5.9099,5.9099,5.8949,5.8471,5.7483,5.7064,5.6675,5.6226,5.5568,5.485,5.3982,5.3473,5.2815,5.1977,5.1468,5.1229,5.1229,5.1229,5.0601,4.9329,4.9299,4.864,4.7309,4.7309,4.7309,4.7309,4.7309,4.7309,4.7309,4.7309,4.7309,4.7309,4.7309,4.7309,4.7309,4.7309,4.7309,4.7309,4.7309,4.7309,4.7309,4.7309,4.7309,4.7309,4.7309,4.7309,4.7309,4.7309,4.7309,4.7309,4.7309,4.683,4.6249,4.6082,4.5185,4.4257,4.4077,4.3648,4.329,4.329,4.329,4.329,4.329,4.329,4.329,4.329,4.329,4.329,4.329,4.329,4.329,4.329,4.329,4.323,4.309,4.2043,4.1362,4.1115,4.0068,3.9373,3.9373,3.9373,3.9373,3.9373,3.9373,3.9373,3.9373,3.9373,3.9373,3.9373,3.9373,3.9373,3.9373,3.9373,3.9553,5.7407,5.8735,6.0198,6.1924,6.3423,6.4505,6.458,6.5121,6.4924,6.2432,6.2492,6.2365,6.0506,5.9602,5.9308,5.9967,5.9548,5.9099,5.9099,5.856,5.8141,5.8082,5.6974,5.6248,5.6218,5.5568,5.464,5.3324,5.3204,5.2606,5.1319,5.1229,5.1229,5.1229,5.1229,5.0601,4.9329,4.9299,4.864,4.7309,4.7309,4.7309,4.7309,4.7309,4.7309,4.7309,4.7309,4.7309,4.7309,4.7309,4.7309,4.7309,4.7309,4.7309,4.7309,4.7309,4.7309,4.7309,4.7309,4.7309,4.7309,4.7309,4.7309,4.7309,4.7309,4.7309,4.7309,4.7309,4.683,4.613,4.5514,4.4825,4.4167,4.3469,4.329,4.329,4.329,4.329,4.329,4.329,4.329,4.329,4.329,4.329,4.329,4.329,4.329,4.329,4.329,4.329,4.309,4.25,4.1811,4.1115,4.0487,3.9798,3.9373,3.9373,3.9373,3.9373,3.9373,3.9373,3.9373,3.9373,3.9373,3.9373,3.9373,3.9373,3.9373,3.9373,3.9373,3.9849,5.6792,5.7621,5.8639,6.1348,6.2436,6.2925,6.3414,6.3754,6.3687,6.2843,6.1785,6.1008,6.0751,5.9471,5.868,5.9338,5.9249,5.9099,5.9099,5.8919,5.8441,5.7543,5.7064,5.6466,5.5598,5.491,5.4162,5.3264,5.2785,5.2157,5.1259,5.1229,5.1229,5.1229,5.1229,5.0601,4.9329,4.9299,4.864,4.7309,4.7309,4.7309,4.7309,4.7309,4.7309,4.7309,4.7309,4.7309,4.7309,4.7309,4.7309,4.7309,4.7309,4.7309,4.7309,4.7309,4.7722,4.821,4.7538,4.7309,4.7309,4.7309,4.7309,4.7309,4.7309,4.7309,4.7309,4.7309,4.683,4.6172,4.5484,4.4796,4.4137,4.3439,4.329,4.329,4.329,4.329,4.329,4.329,4.329,4.329,4.329,4.329,4.329,4.329,4.329,4.329,4.329,4.329,4.309,4.247,4.1811,4.1115,4.0457,3.9798,3.9373,3.9373,3.9373,3.9373,3.9373,3.9373,3.9373,3.9373,3.9373,3.9373,3.9373,3.9373,3.9702,4.0239,3.9666,4.0449,5.6933,5.7303,5.8017,6.1138,6.1663,6.1724,6.278,6.3004,6.2764,6.2104,6.0957,5.9989,5.9666,5.8594,5.7962,5.865,5.874,5.883,5.9069,5.868,5.8082,5.7184,5.6705,5.6107,5.5269,5.4371,5.3653,5.3204,5.2785,5.2157,5.1259,5.1229,5.1229,5.1229,5.1229,5.0601,4.9329,4.9299,4.864,4.7309,4.7309,4.7309,4.7309,4.7309,4.7309,4.7309,4.7309,4.7309,4.7309,4.7309,4.7309,4.7309,4.7309,4.7309,4.7309,4.7309,4.7722,4.8168,4.7538,4.7538,4.7764,4.7409,4.7309,4.7309,4.7309,4.7309,4.7309,4.7309,4.683,4.6172,4.5484,4.4796,4.4137,4.3439,4.329,4.329,4.329,4.329,4.329,4.329,4.329,4.329,4.329,4.329,4.329,4.329,4.329,4.329,4.329,4.329,4.3,4.2141,4.1662,4.1025,4.0127,3.9679,3.9373,3.9373,3.9373,3.9373,3.9373,3.9373,3.9373,3.9373,3.9373,3.9373,3.9373,3.9373,3.9879,4.069,4.013,4.0993,5.7506,5.773,5.8247,6.0875,6.0876,6.0699,6.2326,6.265,6.2119,6.0353,5.9947,5.9296,5.7355,5.7064,5.7304,5.7932,5.8112,5.8381,5.9009,5.7992,5.7124,5.7094,5.5987,5.5239,5.5179,5.4012,5.3204,5.3174,5.3114,5.2546,5.1289,5.1229,5.1229,5.1229,5.1229,5.0601,4.9329,4.9239,4.8536,4.7309,4.7309,4.7309,4.7309,4.7309,4.7309,4.7309,4.7309,4.7309,4.7309,4.7309,4.7309,4.7309,4.7309,4.7309,4.7309,4.7309,4.7352,4.7396,4.7309,4.7904,4.8594,4.7722,4.7396,4.7309,4.7352,4.7352,4.7309,4.7309,4.686,4.6202,4.5514,4.4855,4.4197,4.3499,4.3319,4.329,4.329,4.329,4.329,4.329,4.329,4.329,4.329,4.329,4.329,4.329,4.329,4.329,4.329,4.329,4.2851,4.1564,4.1414,4.0876,3.9589,3.9403,3.9373,3.9373,3.9373,3.9373,3.9373,3.9373,3.9373,3.9373,3.9373,3.9373,3.9373,3.9373,3.9879,4.069,4.0656,4.1505,5.4988,5.5537,5.6287,5.633,5.6136,5.6364,5.793,5.7932,5.7821,5.8452,5.7876,5.6898,5.5879,5.6466,5.7004,5.6705,5.7902,5.8919,5.9069,5.8381,5.7663,5.7154,5.6406,5.5718,5.5239,5.4431,5.3743,5.3204,5.2276,5.1558,5.1229,5.1229,5.1229,5.1229,5.1229,5.0601,4.9329,4.8297,4.7638,4.7309,4.7309,4.7309,4.7309,4.7309,4.7309,4.7309,4.7309,4.7309,4.7309,4.7309,4.7309,4.7309,4.7309,4.7309,4.7309,4.7309,4.7764,4.8293,4.7581,4.7452,4.7892,4.9206,4.8543,4.7452,4.8168,4.7861,4.7309,4.7309,4.7189,4.689,4.6232,4.5574,4.4885,4.4227,4.3648,4.329,4.329,4.329,4.329,4.329,4.329,4.329,4.329,4.329,4.329,4.329,4.329,4.329,4.329,4.329,4.303,4.2231,4.1722,4.1055,4.0217,3.9709,3.9373,3.9373,3.9373,3.9373,3.9373,3.9373,3.9373,3.9373,3.9373,3.9373,3.9373,3.9373,3.9879,4.069,4.0025,4.1198,5.4989,5.4882,5.5021,5.454,5.3718,5.338,5.4964,5.5366,5.5458,5.58,5.602,5.5829,5.4551,5.5628,5.6585,5.6278,5.7573,5.877,5.9069,5.8291,5.7513,5.7124,5.6286,5.5598,5.5239,5.4311,5.3593,5.3204,5.2217,5.1528,5.1229,5.1229,5.1229,5.1229,5.1229,5.0601,4.9329,4.7967,4.7309,4.7309,4.7309,4.7309,4.7309,4.7309,4.7309,4.7309,4.7309,4.7309,4.7309,4.7309,4.7309,4.7309,4.7309,4.7309,4.7309,4.7309,4.7636,4.8126,4.7988,4.7679,4.7495,4.8666,4.824,4.7439,4.7946,4.7764,4.7309,4.7309,4.7309,4.716,4.6459,4.6022,4.5514,4.4556,4.3977,4.3648,4.3349,4.329,4.329,4.329,4.329,4.329,4.329,4.329,4.329,4.329,4.3654,4.381,4.3369,4.329,4.309,4.247,4.2081,4.1572,4.0876,4.0217,3.9858,3.9858,3.9589,3.9373,3.9373,3.9373,3.9373,3.9373,3.9373,3.9559,3.9955,3.9589,4.006,4.1262,4.0685,4.1498,5.5897,5.4907,5.4268,5.385,5.2332,5.13,5.2802,5.3782,5.407,5.3193,5.4495,5.5259,5.3384,5.47,5.6098,5.6098,5.7124,5.8261,5.9009,5.7872,5.7004,5.7094,5.5957,5.5179,5.5179,5.3982,5.3174,5.3174,5.2486,5.1828,5.1259,5.1229,5.1229,5.1229,5.105,5.0421,4.9329,4.7967,4.7309,4.7309,4.7309,4.7309,4.7309,4.7309,4.7309,4.7309,4.7309,4.7309,4.7309,4.7309,4.7309,4.7309,4.7309,4.7309,4.7309,4.7309,4.7366,4.7593,4.8335,4.8115,4.7538,4.7666,4.7538,4.7352,4.7624,4.7624,4.7495,4.7495,4.7495,4.7332,4.6591,4.6381,4.598,4.4855,4.4496,4.4257,4.3559,4.3349,4.329,4.329,4.329,4.329,4.329,4.329,4.329,4.329,4.4043,4.4312,4.3409,4.3409,4.3277,4.259,4.244,4.2171,4.1602,4.0905,4.0516,4.0516,4.0008,3.9679,3.9679,3.9679,3.9649,3.9523,3.9649,4.0056,4.0848,4.0168,4.0689,4.2269,4.2003,4.2204,5.4572,5.4093,5.373,5.1105,4.9837,4.9654,5.1205,5.1486,5.168,5.2779,5.3406,5.3414,5.2546,5.4012,5.5359,5.5359,5.6436,5.7693,5.8919,5.7513,5.6526,5.7034,5.5957,5.5179,5.5179,5.3982,5.3174,5.3174,5.2067,5.1349,5.1229,5.1229,5.1229,5.1229,5.0182,4.9539,4.9299,4.7967,4.7309,4.7309,4.7309,4.7309,4.7309,4.7309,4.7309,4.7309,4.7309,4.7309,4.7309,4.7309,4.7309,4.7309,4.7309,4.7309,4.7309,4.7309,4.7849,4.846,4.7807,4.7988,4.8677,4.9575,4.8708,4.7624,4.9367,4.9215,4.8553,4.8553,4.8553,4.8304,4.7345,4.6741,4.6219,4.598,4.5544,4.4945,4.4287,4.3678,4.329,4.329,4.329,4.329,4.329,4.329,4.329,4.329,4.3448,4.3488,4.3329,4.4043,4.4174,4.3259,4.2671,4.2351,4.2231,4.1632,4.1205,4.1205,4.1115,4.1025,4.1025,4.1025,4.0786,4.0247,4.0756,4.1243,4.1596,4.201,4.2751,4.3776,4.2981,4.2957,5.4762,5.4165,5.3637,5.0372,4.8962,4.8484,4.8922,0.0,0.0,5.0138,5.1286,5.2034,5.1715,5.3324,5.467,5.467,5.5478,5.6555,5.7872,5.6675,5.5897,5.6526,5.5777,5.5179,5.5179,5.3982,5.3174,5.3174,5.1977,5.1229,5.1229,5.1229,5.1229,5.1229,4.9942,4.9299,4.9299,4.7967,4.7309,4.7309,4.7309,4.7309,4.7309,4.7309,4.7309,4.7309,4.7309,4.7309,4.7309,4.7309,4.7309,4.7309,4.7309,4.7309,4.7309,4.7309,4.7624,4.7946,4.7452,4.7624,4.8115,4.8625,4.8115,4.7581,4.9125,4.9215,4.8891,4.9496,4.9215,4.8677,4.821,4.7437,4.6741,4.6369,4.5813,4.5125,4.4466,4.4077,4.3708,4.3349,4.329,4.329,4.329,4.329,4.329,4.329,4.4136,4.4631,4.4128,4.5342,4.5488,4.3497,4.3499,4.3441,4.289,4.2321,4.1931,4.1931,4.1602,4.1422,4.1422,4.1422,4.1235,4.0905,4.1735,4.2402,4.3005,4.3355,4.3992,4.4854,4.3822,4.349,5.5124,5.4386,5.3637,5.0372,4.8736,4.7782,4.7193,4.7287,4.7551,4.7857,4.9375,5.0793,5.1143,5.2636,5.3892,5.4162,5.464,5.5478,5.6885,5.5987,5.5448,5.6107,5.5598,5.5179,5.5179,5.4102,5.3324,5.3204,5.1977,5.1229,5.1229,5.1229,5.1229,5.1229,5.0092,4.9449,4.9299,4.8087,4.7429,4.7309,4.7309,4.7309,4.7309,4.7309,4.7309,4.7309,4.7309,4.7309,4.7309,4.7309,4.7309,4.7309,4.7309,4.7309,4.7309,4.7309,4.7409,4.7624,4.7366,4.7452,4.7581,4.7396,4.7309,4.7538,4.8759,4.9135,4.9296,5.0165,4.9813,4.9013,4.8594,4.7861,4.7189,4.6651,4.6022,4.5364,4.4855,4.4616,4.4317,4.3618,4.3499,4.3469,4.3319,4.329,4.3369,4.3576,4.4899,4.5706,4.5153,4.659,4.6662,4.4174,4.4434,4.4396,4.3369,4.288,4.262,4.262,4.2073,4.1803,4.1803,4.1803,4.1743,4.1632,4.2702,4.347,4.4042,4.4646,4.5277,4.5924,4.5016,4.4634,5.472,5.4386,5.3637,5.0372,4.8736,4.7782,4.7193,0.0,4.699,4.7775,4.8697,4.9746,5.0994,5.1858,5.2785,5.4012,5.4251,5.497,5.6825,5.5987,5.5448,5.6107,5.5598,5.5179,5.5179,5.4551,5.3862,5.3234,5.1977,5.1229,5.1229,5.1229,5.1229,5.1229,5.0495,4.9853,4.9329,4.8566,4.7908,4.7309,4.7309,4.7309,4.7309,4.7309,4.7309,4.7309,4.7309,4.7309,4.7309,4.7309,4.7309,4.7309,4.7309,4.7309,4.7309,4.7309,4.7861,4.8512,4.7624,4.7904,4.8512,4.7624,4.7309,4.7636,4.9655,5.0242,5.0281,5.0358,5.032,4.9813,4.7934,4.7396,4.7279,4.7219,4.6711,4.6202,4.6142,4.5633,4.5005,4.4347,4.4227,4.3977,4.3379,4.329,4.3606,4.451,4.4812,4.5227,4.5961,4.6968,4.7172,4.6032,4.5264,4.4396,4.3369,4.323,4.32,4.32,4.314,4.311,4.311,4.311,4.288,4.2321,4.3829,4.439,4.3847,4.6176,4.7309,4.7375,4.7308,4.7241,5.2723,5.2736,5.242,5.0142,4.8736,4.7682,4.6828,4.6045,4.5546,4.6035,4.7105,4.8339,4.9757,5.0887,5.2037,0.0,0.0,0.0,5.5089,5.4551,5.4221,5.491,5.5119,5.5179,5.5179,5.4581,5.3773,5.2665,5.1738,5.1229,5.1229,5.1229,5.1229,5.1229,5.0524,4.9912,4.9329,4.8626,4.7967,4.7309,4.7309,4.7309,4.7309,4.7309,4.7309,4.7309,4.7309,4.7309,4.7309,4.7309,4.7309,4.7309,4.7309,4.7309,4.7309,4.7309,4.7538,4.7849,4.7409,4.7581,4.7904,4.8157,4.821,4.8501,4.9931,5.0817,5.1303,5.1303,5.0855,5.0048,4.8584,4.7764,4.7309,4.7309,4.71,4.68,4.6369,4.6112,4.5723,4.5035,4.4586,4.4227,4.3917,4.4083,4.432,4.4737,4.5742,4.6625,4.7002,4.7868,4.8096,4.7138,4.6728,4.5885,4.432,4.4167,4.3966,4.3329,4.329,4.329,4.329,4.329,4.3455,4.3838,4.5034,4.5798,4.607,4.7671,4.845,4.845,4.7868,4.7572,5.1276,5.1496,5.1433,4.9964,4.8736,4.7631,4.6552,4.5447,4.4694,4.4907,4.582,4.707,4.8865,4.995,5.1101,0.0,0.0,5.2366,5.3982,5.3952,5.3952,5.4431,5.473,5.497,5.5179,5.4401,5.3503,5.2576,5.1708,5.1229,5.1229,5.1229,5.1229,5.1229,5.0734,5.0122,4.9329,4.8805,4.8147,4.7309,4.7309,4.7309,4.7309,4.7309,4.7309,4.7309,4.7309,4.7309,4.7309,4.7309,4.7309,4.7309,4.7309,4.7309,4.7309,4.7309,4.7309,4.7309,4.7309,4.7309,4.7452,4.847,4.88,4.8973,5.0087,5.0892,5.1451,5.1451,5.0512,4.9327,4.8553,4.7849,4.7309,4.7309,4.7309,4.7189,4.6711,4.6621,4.6496,4.6109,4.5677,4.5374,4.548,4.5525,4.562,4.5913,4.6892,4.7704,4.7966,4.8576,4.8767,4.8096,4.7998,4.7239,4.5374,4.5227,4.4781,4.381,4.3732,4.3606,4.3329,4.3606,4.3927,4.4358,4.5597,4.6384,4.6763,4.7966,4.8576,4.8576,4.8193,4.7998,5.0756,5.1231,5.0961,4.9888,4.8736,4.7631,4.6552,4.5447,4.4694,4.4907,4.4994,4.5872,4.8688,4.921,4.9882,5.1876,0.0,0.0,5.4102,5.476,5.5179,5.5179,5.461,5.4491,5.5119,5.3982,5.3174,5.3174,5.1947,5.1229,5.1229,5.1229,5.1229,5.1229,5.1199,5.0571,4.9329,4.9299,4.8596,4.7309,4.7309,4.7309,4.7309,4.7309,4.7309,4.7309,4.7309,4.7309,4.7309,4.7309,4.7309,4.7309,4.7309,4.7309,4.7309,4.7309,4.7309,4.7309,4.7309,4.7309,4.7452,4.847,4.88,4.8973,5.0087,5.0397,5.0397,5.0397,4.8922,4.7352,4.7309,4.7309,4.7309,4.7309,4.7309,4.7309,4.7309,4.7309,4.7413,4.77,4.7747,4.7887,4.8307,4.775,4.7587,4.8524,4.8067,4.7933,4.8861,4.8984,4.9018,4.9018,4.9018,4.8225,4.6349,4.6173,4.5778,4.4849,4.4774,4.432,4.3329,4.4274,4.432,4.3329,4.5201,4.5742,4.4849,4.6728,4.7605,4.7638,4.8545,4.9018,4.7189,4.7819,4.8258,4.7503,4.7819,4.8035,4.6835,4.6347,4.5943,4.5178,4.4994,4.5555,4.7402,4.8539,5.0028,5.2472,5.2665,0.0,5.4042,5.4401,5.4521,5.4521,5.473,5.497,5.5179,5.3982,5.3174,5.3174,5.1977,5.1229,5.1229,5.1229,5.1229,5.1229,5.1229,5.0601,4.9329,4.9299,4.864,4.7309,4.7309,4.7309,4.7309,4.7309,4.7309,4.7309,4.7309,4.7309,4.7309,4.7309,4.7309,4.7309,4.7309,4.7309,4.7309,4.7309,4.7309,4.7309,4.7309,4.7309,4.7452,4.847,4.88,4.8973,5.0087,5.0397,5.0242,4.9496,4.8335,4.7309,4.7309,4.7309,4.7452,4.8126,4.7807,4.7495,4.8168,4.7807,4.7533,4.8317,4.8128,4.8082,4.8946,4.9033,4.8944,4.8725,4.906,4.9243,4.9021,4.9018,4.9018,4.9018,4.9018,4.8513,4.7273,4.7172,4.673,4.5814,4.5778,4.5634,4.5306,4.5597,4.5889,4.6244,4.6833,4.7306,4.7671,4.8257,4.8545,4.8576,4.8861,4.9018,4.5641,4.5999,4.6476,4.6351,4.7203,4.7894,4.6919,4.6992,4.6974,4.6008,4.582,4.6213,4.7605,4.8589,4.9892,5.2085,5.2306,5.2576,5.3653,5.4042,5.4221,5.4221,5.479,5.5089,5.485,5.4072,5.3473,5.3204,5.2187,5.1468,5.1229,5.1229,5.1229,5.1229,5.0913,5.0331,4.9329,4.906,4.8356,4.7309,4.7309,4.7309,4.7309,4.7309,4.7309,4.7309,4.7309,4.7309,0.0,4.7309,4.7309,4.7309,4.7309,4.7309,4.7309,4.7309,4.7309,4.7309,4.7309,4.7309,4.7452,4.847,4.88,4.8851,4.9166,4.9527,4.9575,4.8512,4.7807,4.7309,4.7309,4.7309,4.7538,4.8553,4.803,4.7581,4.8594,4.803,4.7722,4.9135,4.9071,4.9226,5.0688,5.0812,5.0592,5.0126,5.032,5.0236,4.9492,4.9424,4.9323,4.9052,4.9018,4.8767,4.8193,4.8129,4.7737,4.6765,4.673,4.6558,4.6208,4.6523,4.6833,4.707,4.7406,4.7868,4.8482,4.8829,4.9018,4.9018,4.9018,4.9018,0.0,4.5557,4.5649,4.6247,4.6947,4.74,4.6986,4.746,0.0,4.7387,4.7146,4.7503,4.8964,4.919,4.9659,5.1024,5.1828,5.2516,5.3174,5.3832,5.4281,5.4281,5.482,5.494,5.4341,5.4251,5.3922,5.3234,5.2576,5.1917,5.1259,5.1229,5.1229,5.1229,5.0495,4.9883,4.9329,4.8626,4.7967,4.7309,4.7309,4.7309,4.7309,4.7309,4.7309,4.7309,4.7309,4.7309,4.7309,4.7309,4.7309,4.7309,4.7309,4.7309,4.7309,4.7309,4.7309,4.7309,4.7309,4.7309,4.7452,4.8418,4.8677,4.8512,4.7551,4.7946,4.847,4.7581,4.7309,4.7309,4.7309,4.7309,4.7581,4.8636,4.8115,4.7624,4.8677,4.8072,4.7934,5.0009,5.0397,5.1075,5.3144,5.2875,5.2367,5.23,5.1725,5.1014,5.027,5.0135,4.983,4.9154,4.9052,4.9018,4.9018,4.9018,4.8608,4.7671,4.7572,4.7172,4.6244,4.7036,4.7138,4.6314,4.7239,4.7704,4.7704,4.8576,4.9018,4.9018,4.9018,4.9018,4.7151,0.0,4.5957,4.6733,4.7457,4.8043,0.0,4.9149,4.9487,4.8831,4.7859,4.7503,4.8964,4.921,4.9776,5.1667,5.2516,5.3204,5.3862,5.4551,5.497,5.497,5.5089,5.5119,5.497,5.4491,5.3922,5.3234,5.2576,5.1917,5.1259,5.1229,5.1229,5.1229,5.0092,4.9404,4.9299,4.8626,4.7967,4.7309,4.7309,4.7309,4.7309,4.7309,4.7309,4.7309,4.7309,4.7309,4.7309,4.7309,4.7309,4.7309,4.7309,4.7309,4.7309,4.7309,4.7309,4.7309,4.7309,4.7309,4.7352,4.7581,4.7636,4.7624,4.7366,4.7452,4.7624,4.7396,4.7309,4.7309,4.7309,4.7309,4.7764,4.9575,4.8625,4.7807,4.9615,4.8584,4.7934,5.0009,5.0397,5.1075,5.3144,5.3348,5.301,5.2401,5.2164,5.1792,5.1048,5.0439,5.0033,4.9864,4.9323,4.9018,4.9018,4.9018,4.8608,4.7671,4.7572,4.7172,4.6244,4.6419,4.6765,4.7273,4.8193,4.8671,4.8671,4.8892,4.9018,4.9018,4.9018,4.9018,4.921,4.7754,4.6541,4.6971,4.7857,4.8685,4.912,4.997,5.0583,5.0202,4.9504,4.921,4.9969,5.0143,5.0541,5.1972,5.2486,5.3084,5.4072,5.479,5.5179,5.5179,5.5179,5.5179,5.5179,5.488,5.4251,5.3264,5.2845,5.2247,5.1259,5.1229,5.1229,5.1229,5.0242,4.9583,4.9299,4.8327,4.7668,4.7309,4.7309,4.7309,4.7309,4.7309,4.7309,4.7309,4.7309,4.7309,4.7309,4.7309,4.7309,4.7309,4.7309,4.7309,4.7309,4.7309,4.7309,4.7309,4.7309,4.7309,4.7309,4.7309,4.7309,4.7309,4.7309,4.7309,4.7309,4.7309,4.7309,4.7309,4.7309,4.7636,4.8252,4.9376,4.88,4.8293,4.9416,4.8418,4.7764,4.9336,5.0048,5.0892,5.2487,5.3179,5.3348,5.2909,5.2841,5.257,5.1826,5.1352,5.098,5.0642,4.9932,4.9492,4.9492,4.9187,4.8608,4.7671,4.7572,4.7172,4.6244,4.6208,4.6419,4.6968,4.7868,4.8353,4.8353,4.8798,4.9018,4.9018,4.9018,4.9018,5.1169,4.9504,4.7707,4.7707,4.8489,4.9259,4.9455,0.0,5.1229,5.1229,5.1229,5.1229,5.1229,5.1289,5.1558,5.2127,5.2366,5.2935,5.4192,5.485,5.5179,5.5179,5.5179,5.5179,5.5179,5.5089,5.4521,5.3264,5.3084,5.2516,5.1289,5.1229,5.1229,5.1229,5.0524,4.9912,4.9329,4.8057,4.7399,4.7309,4.7309,4.7309,4.7309,4.7309,4.7309,4.7309,4.7309,4.7309,4.7309,4.7309,4.7309,4.7309,4.7309,4.7309,4.7309,4.7309,4.7309,4.7309,4.7309,4.7309,4.7309,4.7309,4.7309,4.7309,4.7309,4.7309,4.7309,4.7309,4.7309,4.7352,4.7495,4.8126,4.8851,4.9215,4.9175,4.9094,4.9256,4.8501,4.803,4.8882,4.9773,5.0703,5.174,5.2662,5.3314,5.3484,5.3518,5.3247,5.257,5.2367,5.2063,5.1454,5.071,5.027,5.027,4.9593,4.8776,4.7836,4.7638,4.7104,4.6032,4.6244,4.6349,4.6208,4.7138,4.7572,4.7572,4.8257,4.8576,4.8576,4.8576,4.8576,5.093,5.0917,5.0555,5.0555,4.9873,4.9504,5.065,5.1058,5.1229,5.1229,5.1229,5.1229,5.1229,5.1678,5.2067,5.2187,5.3144,5.4162,5.494,5.5119,5.5179,5.5179,5.5179,5.5179,5.5179,5.47,5.4042,5.3234,5.2665,5.2007,5.1259,5.1229,5.1229,5.1229,5.0524,4.9912,4.9329,4.8506,4.7848,4.7309,4.7309,4.7309,4.7309,4.7309,4.7309,4.7309,4.7309,4.7309,4.7309,4.7309,4.7309,4.7309,4.7309,4.7309,4.7309,4.7309,4.7309,4.7309,4.7309,4.7309,4.7309,4.7309,4.7309,4.7309,4.7309,4.7309,4.7309,4.7309,4.7309,4.7495,4.8335,4.8677,4.9256,5.1005,5.0779,5.0397,5.1229,5.0627,4.997,5.0126,5.0281,5.0703,5.174,5.2029,5.2418,5.3348,5.3518,5.345,5.3348,5.2739,5.2266,5.2131,5.1488,5.1048,5.1048,5.0371,4.9549,4.8595,4.7935,4.6831,4.5079,4.6555,4.7036,4.6208,4.7138,4.7572,4.7572,4.6968,4.6627,4.6627,4.6627,4.6627,5.0002,5.0421,5.0644,5.0644,5.0745,5.0873,5.1148,5.1229,5.1229,5.1229,5.1229,5.1386,5.2018,5.2673,5.3622,5.5021,5.6062,5.6555,5.6219,5.6183,5.5967,5.528,5.5179,5.5179,5.5179,5.4581,5.3922,5.3234,5.2576,5.1917,5.1259,5.1229,5.1229,5.1229,5.0883,5.0272,4.9329,4.9,4.8297,4.7309,4.7309,4.7309,4.7309,4.7309,4.7309,4.7309,4.7309,4.7309,4.7309,4.7309,4.7309,4.7309,4.7309,4.7309,4.7309,4.7309,4.7309,4.7309,4.7309,4.7309,4.7309,4.7309,4.7309,4.7309,4.7309,4.7679,4.8115,4.8115,4.8115,4.821,4.8677,4.9623,5.0557,5.1005,5.1155,5.1192,5.1117,5.0741,5.0242,4.9655,5.0009,5.0358,5.0249,5.0703,5.1262,5.174,5.1846,5.1846,5.1846,5.1978,5.2094,5.2094,5.19,5.1792,5.1792,5.1116,4.9952,4.8199,4.7301,4.624,4.4849,4.6134,4.6138,4.4637,4.6103,4.6558,4.6099,4.6138,4.6208,4.6208,4.6208,4.6208,4.9404,4.9733,4.9986,5.0136,5.0943,5.1678,5.1498,5.1319,5.1259,5.1409,5.1439,5.1753,5.2709,5.385,5.5354,5.7668,5.846,5.836,5.715,5.6991,5.6541,5.533,5.5179,5.5179,5.5179,5.4461,5.3743,5.3204,5.2426,5.1738,5.1259,5.1229,5.1229,5.1229,5.1229,5.0601,4.9329,4.9299,4.864,4.7309,4.7309,4.7309,4.7309,4.7309,4.7309,4.7309,4.7309,4.7309,4.7309,4.7309,4.7309,4.7309,4.7309,4.7309,4.7309,4.7309,4.7309,4.7309,4.7309,4.7309,4.7309,4.7309,4.7309,4.7309,4.7309,4.7988,4.88,4.88,4.9135,4.9536,4.9536,5.0709,5.1776,5.1262,5.1704,5.2029,5.1299,5.115,5.0741,4.9416,5.0048,5.0435,4.9376,4.9852,5.0474,5.0703,5.055,5.0397,5.0397,5.108,5.1667,5.1885,5.2094,5.2236,5.2267,5.1562,5.0259,4.8199,4.7422,4.655,4.544,4.6067,4.5599,4.3895,4.5303,4.5803,4.5239,4.5803,4.6171,4.6398,4.6422,4.6561,4.9777,4.9763,4.9494,5.0046,5.0255,5.0644,5.1858,5.1648,5.1379,5.2007,5.2127,5.2296,5.2802,5.4888,5.6997,5.8492,5.878,5.836,5.715,5.6991,5.6541,5.533,5.5179,5.5179,5.5179,5.4012,5.3234,5.3174,5.2007,5.1259,5.1229,5.1229,5.1229,5.1229,5.1229,5.0601,4.9329,4.9299,4.864,4.7309,4.7309,4.7309,4.7309,4.7309,4.7309,4.7309,4.7309,4.7309,4.7309,4.7309,4.7309,4.7309,4.7309,4.7309,4.7309,4.7309,4.7309,4.7309,4.7309,4.7309,4.7309,4.7309,4.7309,4.7309,4.7309,4.7988,4.88,4.88,5.0172,5.1704,5.1704,5.1813,5.2101,5.3076,5.3348,5.3348,5.3314,5.328,5.2696,5.0665,5.108,5.1451,5.0474,5.0358,5.0703,5.1634,5.1005,5.0397,5.0397,5.0435,5.0855,5.1813,5.1891,5.2018,5.2301,5.1392,5.0441,4.9613,4.9511,4.8765,4.7197,4.7125,4.6618,4.5557,4.5641,4.599,4.6562,4.599,4.6136,4.6874,4.712,4.759,4.8297,4.8835,4.9269,4.9075,5.0168,5.1495,5.2458,5.3383,5.4197,5.493,5.5055,5.5317,5.623,5.7732,5.9179,6.0166,6.0738,6.0628,5.9434,5.8555,5.7668,5.6445,5.5651,5.5179,5.5179,5.3982,5.3174,5.3174,5.1977,5.1229,5.1229,5.1229,5.1229,5.1229,5.1229,5.0601,4.9329,4.9299,4.864,4.7309,4.7309,4.7309,4.7309,4.7309,4.7309,4.7309,4.7309,4.7309,4.7309,4.7309,4.7309,4.7309,4.7309,4.7309,4.7309,4.7309,4.7309,4.7309,4.7309,4.7309,4.7309,4.7309,4.7309,4.7309,4.7309,4.7988,4.8932,4.9615,5.0817,5.1921,5.1921,5.2383,5.3007,5.3382,5.3518,5.3518,5.3518,5.3518,5.3076,5.1631,5.1667,5.1561,5.055,4.9852,4.9536,4.9899,4.9125,4.846,4.846,4.9004,4.9575,4.9938,5.0589,5.128,5.1984,5.1671,5.1074,5.0191,4.9244,4.8194,4.6969,4.7463,4.7045,4.5465,4.6032,4.6155,4.5819,4.6234,4.6586,4.6913,4.7628,4.8107,4.7938,4.8446,4.9029,4.9082,5.0629,5.2502,5.4062,5.5081,5.5879,5.6627,5.6894,5.7293,5.8338,5.9393,6.0351,6.1163,6.1907,6.1991,6.0787,5.987,5.8767,5.7181,5.628,5.556,5.496,5.3862,5.3084,5.2875,5.1858,5.1229,5.1229,5.1229,5.1229,5.1229,5.1229,5.0601,4.9329,4.9299,4.864,4.7309,4.7309,4.7309,4.7309,4.7309,4.7309,4.7309,4.7309,4.7309,4.7309,4.7309,4.7309,4.7309,4.7309,4.7309,4.7309,4.7309,4.7309,4.7309,4.7309,4.7309,4.7309,4.7309,4.7309,4.7309,4.7309,4.7988,4.9013,5.0087,5.1117,5.1993,5.2312,5.2939,5.3518,5.3518,5.3518,5.3518,5.3518,5.3518,5.3179,5.2101,5.2137,5.2098,5.1043,5.0249,4.9663,4.9336,4.8418,4.7636,4.7352,4.7904,4.8553,4.9215,4.997,5.0817,5.1813,5.1303,5.0627,4.9931,4.8616,4.7598,4.7066,4.738,4.6938,4.5645,4.6244,4.6499,4.6414,4.7269,4.7939,4.8504,4.9252,4.9752,4.9299,4.882,4.8725,5.0456,5.1786,5.3495,5.6751,5.6564,5.5954,5.6616,5.7116,5.7628,5.8393,5.9393,6.0385,6.1163,6.1907,6.1991,6.0787,6.0586,5.9697,5.7292,5.6991,5.6265,5.4351,5.3593,5.2905,5.2247,5.1588,5.1229,5.1229,5.1229,5.1229,5.1229,5.1229,5.0601,4.9329,4.9299,4.864,4.7309,4.7309,4.7309,4.7309,4.7309,4.7309,4.7309,4.7309,4.7309,4.7309,4.7309,4.7309,4.7309,4.7309,4.7309,4.7309,4.7309,4.7309,4.7309,4.7309,4.7309,4.7309,4.7309,4.7309,4.7309,4.7309,4.7988,4.9013,5.0087,5.108,5.2101,5.3179,5.345,5.3518,5.3518,5.3518,5.3518,5.3518,5.3518,5.3179,5.2101,5.28,5.3144,5.2101,5.1921,5.1561,5.055,4.9496,4.846,4.7409,4.7309,4.8072,5.0165,5.0358,5.0779,5.1776,4.9977,4.88,4.88,4.7892,4.7462,4.7769,4.6849,4.6279,4.6279,4.6322,4.7141,4.88,4.9156,5.0181,5.1888,5.2168,5.2739,4.8027,4.8637,4.9505,5.008,5.2707,5.5431,5.648,5.7825,5.9158,6.0424,6.0397,6.0231,6.0432,6.0733,6.1028,6.1264,6.1907,6.2302,6.1951,6.1152,6.0,5.8451,5.7121,5.5743,5.4321,5.3174,5.2396,5.2217,5.1588,5.1229,5.1229,5.1229,5.1229,5.1229,5.1229,5.0601,4.9329,4.9299,4.864,4.7309,4.7309,4.7309,4.7309,4.7309,4.7309,4.7309,4.7309,4.7309,4.7309,4.7309,4.7309,4.7309,4.7309,4.7309,4.7309,4.7309,4.7309,4.7309,4.7309,4.7309,4.7309,4.7309,4.7309,4.7309,4.7309,4.7495,4.7946,4.9004,4.9496,5.0133,5.1921,5.2348,5.2557,5.3314,5.3518,5.3518,5.3518,5.3518,5.3416,5.3076,5.328,5.3382,5.3076,5.2383,5.1813,5.1488,4.9938,4.846,4.7409,4.7309,4.7807,4.9135,4.8666,4.8625,4.9623,4.9135,4.847,4.7807,4.8157,4.8076,4.7462,4.7152,4.701,4.701,4.7684,4.8286,4.8769,5.0364,5.1401,5.1921,5.2739,5.3281,4.8283,4.9309,5.0548,5.1863,5.4269,5.6663,5.8019,5.9497,6.0926,6.2144,6.1806,6.1298,6.1298,6.1298,6.1298,6.1298,6.1907,6.2381,6.2381,6.1358,6.0161,5.8947,5.7164,5.5404,5.395,5.2845,5.2097,5.1828,5.1439,5.1229,5.1229,5.1229,5.1229,5.1229,5.1229,5.0601,4.9329,4.9299,4.864,4.7309,4.7309,4.7309,4.7309,4.7309,4.7309,4.7309,4.7309,4.7309,4.7309,4.7309,4.7309,4.7339,4.7578,4.7698,4.7728,4.7997,4.8087,4.8087,4.8087,4.8087,4.8087,4.8087,4.7908,4.7698,4.7698,4.7519,4.7495,4.8512,4.88,4.9296,5.1377,5.1921,5.217,5.3213,5.3518,5.3518,5.3518,5.3518,5.3518,5.3518,5.3518,5.3518,5.3518,5.2939,5.2383,5.1957,5.0133,4.8594,4.7988,4.7538,4.7679,4.8677,4.7904,4.7722,4.8718,4.846,4.7946,4.7352,4.7892,4.7904,4.7352,4.7309,4.7495,4.7892,4.847,4.9215,5.0016,5.1303,5.2101,5.2557,5.3179,5.3518,4.9383,5.0449,5.163,5.4826,5.6222,5.7637,6.07,6.14,6.1603,6.2245,6.1873,6.14,6.14,6.14,6.14,6.14,6.1941,6.2381,6.2381,6.1439,6.0256,5.8851,5.713,5.53,5.329,5.2486,5.1858,5.1259,5.1229,5.1229,5.1229,5.1229,5.1229,5.1229,5.1169,5.0541,4.9329,4.9239,4.8536,4.7309,4.7309,4.7309,4.7309,4.7309,4.7309,4.7309,4.7309,4.7309,4.7309,4.7309,4.7309,4.7369,4.8027,4.8297,4.8356,4.906,4.9299,4.9299,4.9299,4.9299,4.9299,4.9299,4.891,4.8356,4.8297,4.7878,4.7585,4.8418,4.8677,4.9135,5.1117,5.1671,5.2029,5.311,5.3416,5.3518,5.3518,5.3518,5.3518,5.3518,5.3518,5.3518,5.3518,5.3518,5.3144,5.2065,5.0288,4.9013,4.881,4.7988,4.7764,4.8553,4.7849,4.7679,4.8594,4.7849,4.7309,4.7309,4.7309,4.7309,4.7309,4.7309,4.7764,4.88,4.8922,4.9899,5.1921,5.1993,5.2557,5.3518,5.3518,5.345,4.8283,4.9735,5.1494,5.423,5.7613,6.0593,6.1868,6.2144,6.2212,6.2347,6.2245,6.2144,6.2144,6.2144,6.2144,6.2144,6.2279,6.2381,6.2381,6.215,6.1002,5.8321,5.7209,5.5534,5.2695,5.1828,5.1379,5.1229,5.1229,5.1229,5.1229,5.1229,5.1229,5.1229,5.0674,5.0062,4.9329,4.879,4.8087,4.7309,4.7309,4.7309,4.7309,4.7309,4.7309,4.7309,4.7309,4.7309,4.7309,4.7309,4.7309,4.7369,4.8027,4.8297,4.8356,4.906,4.9299,4.9299,4.9299,4.9299,4.9299,4.9299,4.9209,4.9,4.8446,4.8177,4.8011,4.7731,4.7593,4.7904,4.9135,5.0087,5.0968,5.1993,5.2904,5.3518,5.3518,5.3518,5.3518,5.3518,5.3518,5.3518,5.3518,5.3518,5.3144,5.2065,5.1525,5.0633,4.9013,4.8594,4.8252,4.7679,4.7409,4.7366,4.7593,4.7409,4.7309,4.7309,4.7309,4.7309,4.7309,4.7309,4.7764,4.88,4.9615,5.0665,5.1921,5.2765,5.328,5.3518,5.3518,5.3076,4.7683,4.9551,5.1789,5.5569,5.8756,6.1207,6.2161,6.211,6.1873,6.1873,6.2144,6.2279,6.1941,6.1873,6.1738,6.1366,6.1298,6.1298,6.1298,6.0802,5.9842,5.8222,5.6475,5.4791,5.3192,5.1887,5.1229,5.1229,5.1229,5.1229,5.1229,5.1229,5.1229,5.1229,5.0524,4.9912,4.9329,4.8626,4.7967,4.7309,4.7309,4.7309,4.7309,4.7309,4.7309,4.7309,4.7309,4.7309,4.7309,4.7309,4.7489,4.7848,4.8506,4.8955,4.9314,4.9972,5.0212,5.0212,5.0212,5.0212,5.0212,5.0212,4.9972,4.9673,4.9314,4.8775,4.8207,4.7878,4.7549,4.7538,4.8553,4.9215,5.0048,5.1525,5.2697,5.3518,5.3518,5.3518,5.3518,5.3518,5.3518,5.3518,5.3518,5.3518,5.3314,5.2765,5.1813,5.0968,5.0365,4.9004,4.8072,4.803,4.7581,4.7309,4.7309,4.7309,4.7309,4.7309,4.7309,4.7538,4.7988,4.7581,4.7764,4.88,5.0358,5.1377,5.1921,5.2973,5.3518,5.3518,5.3518,5.2904,4.71,4.9599,5.2343,5.6908,5.9124,6.043,6.1629,6.143,6.0998,6.1091,6.1569,6.1806,6.1197,6.1095,6.0858,6.0216,6.0114,6.0114,6.0114,5.9243,5.8507,5.8173,5.5965,5.4397,5.405,5.2687,5.1819,5.1819,5.1588,5.1479,5.1479,5.1293,5.1229,5.1229,5.0524,4.9912,4.9329,4.8626,4.7967,4.7309,4.7309,4.7309,4.7309,4.7429,4.7429,4.7309,4.7309,4.7309,4.7309,4.7429,4.7788,4.8356,4.9134,4.9763,5.0255,5.0913,5.1229,5.1229,5.1229,5.1229,5.1229,5.1229,5.0794,5.0345,5.0226,4.9494,4.8566,4.8356,4.7908,4.7645,4.8366,4.8677,4.9256,5.0968,5.2312,5.328,5.345,5.3518,5.3518,5.3518,5.3518,5.3518,5.3518,5.3518,5.3518,5.3518,5.2026,5.108,5.1561,4.9416,4.7988,4.847,4.7807,4.7309,4.7309,4.7309,4.7309,4.7309,4.7309,4.7679,4.8512,4.7904,4.7946,4.8769,5.0671,5.174,5.1921,5.2973,5.3518,5.3518,5.3518,5.2904,4.5779,4.9614,5.3295,5.5715,5.7235,5.8497,5.963,5.9845,5.9857,6.0194,6.0351,6.0385,6.0283,6.025,6.0216,6.0114,6.0114,6.0114,6.0114,5.9967,5.9275,5.7707,5.7149,5.6295,5.4655,5.4317,5.4168,5.4168,5.3253,5.2634,5.2634,5.1727,5.1229,5.1229,5.0524,4.9912,4.9329,4.8626,4.7967,4.7309,4.7309,4.7309,4.7339,4.7908,4.7848,4.7309,4.7309,4.7309,4.7369,4.7908,4.8207,4.8416,4.9643,5.0106,5.0255,5.0913,5.1229,5.1229,5.1229,5.1229,5.1229,5.1229,5.1169,5.0943,5.0375,5.0076,4.9687,4.8596,4.8237,4.8071,4.7602,4.8157,4.8851,4.9135,5.0671,5.2348,5.3314,5.3518,5.3518,5.3518,5.3518,5.3518,5.3518,5.3518,5.3518,5.3518,5.328,5.2487,5.0817,5.0242,4.9367,4.7679,4.7366,4.7309,4.7309,4.7309,4.7309,4.7309,4.7309,4.7352,4.7495,4.821,4.8677,4.88,5.0009,5.1005,5.1921,5.2973,5.3518,5.3518,5.3518,5.2904,4.5052,4.8304,5.1383,5.3294,5.5008,5.6709,5.8543,5.8617,5.8535,5.9313,5.9133,5.8998,5.9404,5.9471,5.937,5.893,5.8863,5.8863,5.8863,5.8863,5.8579,5.7758,5.7122,5.6409,5.5603,5.4961,5.4589,5.4589,5.3526,5.29,5.29,5.1819,5.1229,5.1229,5.0212,4.9553,4.9299,4.8237,4.7578,4.7309,4.7309,4.7489,4.7878,4.8147,4.8117,4.7878,4.8237,4.8416,4.8416,4.876,4.9045,4.9434,4.9956,5.0405,5.0794,5.1109,5.1229,5.1229,5.1229,5.1229,5.1229,5.1229,5.1229,5.1122,5.0823,5.0495,4.9986,4.9105,4.8566,4.8147,4.7489,4.7624,4.8115,4.8677,4.997,5.134,5.2383,5.3076,5.3518,5.3518,5.3518,5.3518,5.3518,5.3518,5.3518,5.3518,5.2973,5.2487,5.217,5.0589,4.9615,4.9852,4.8335,4.7538,4.8115,4.7593,4.7309,4.7309,4.7309,4.7538,4.8115,4.8553,4.9094,4.9694,5.0165,5.0892,5.1921,5.2348,5.2904,5.3518,5.3518,5.2904,4.4063,4.6336,4.8614,5.0792,5.2446,5.4236,5.6733,5.7119,5.7211,5.8093,5.8069,5.8051,5.8626,5.8727,5.8558,5.7983,5.7881,5.7881,5.7881,5.7881,5.7881,5.7881,5.7151,5.6624,5.6624,5.5889,5.545,5.545,5.4126,5.3246,5.3059,5.1729,5.0913,5.0913,4.9853,4.9299,4.9299,4.7967,4.7309,4.7309,4.7309,4.7638,4.8297,4.8446,4.8626,4.8805,4.9179,4.9299,4.9329,4.9464,4.9793,5.0196,5.0375,5.0734,5.1229,5.1229,5.1229,5.1229,5.1229,5.1229,5.1229,5.1229,5.1229,5.1229,5.1229,5.0823,5.0315,4.9703,4.9164,4.8626,4.7967,4.7668,4.7735,4.8496,4.934,5.0435,5.1957,5.2939,5.3518,5.3518,5.3518,5.3518,5.3518,5.3518,5.3518,5.3518,5.2835,5.2522,5.3041,5.1043,4.9977,5.0973,4.9054,4.7861,4.8377,4.7722,4.7309,4.7309,4.7309,4.7666,4.8418,4.8677,4.9175,4.997,5.0242,5.0892,5.1921,5.2137,5.2731,5.3518,5.3518,5.3076,4.2531,4.3715,4.5504,4.8632,4.9513,5.0415,5.3437,5.4944,5.5831,5.6244,5.7147,5.7915,5.7949,5.7949,5.7915,5.7881,5.7881,5.7881,5.7881,5.7881,5.7881,5.7881,5.7845,5.7808,5.7808,5.7772,5.7735,5.7735,5.573,5.4259,5.3588,5.1444,5.0255,5.0255,4.9613,4.9299,4.9299,4.7967,4.7309,4.7309,4.7309,4.7638,4.8297,4.897,4.9553,5.0046,4.9523,4.9299,4.9359,4.9942,5.0166,5.0255,5.0883,5.1199,5.1229,5.1229,5.1229,5.1229,5.1229,5.1229,5.1229,5.1229,5.1229,5.1229,5.1229,5.1199,5.0973,5.0315,5.0106,4.9927,4.9344,4.8686,4.8281,4.8325,4.8614,4.9734,5.2765,5.345,5.3518,5.3518,5.3518,5.3518,5.3518,5.3518,5.3518,5.3518,5.345,5.3076,5.2134,5.1849,5.1043,4.9175,4.8841,4.8377,4.7452,4.7352,4.7309,4.7309,4.7309,4.7309,4.7396,4.8293,4.8841,4.8851,4.9891,5.0892,5.1921,5.2904,5.345,5.3518,5.3518,5.345,4.0568,4.1997,4.3571,4.472,4.6855,4.9164,5.0969,5.2661,5.4143,5.4994,5.6047,5.6816,5.6816,5.7409,5.7881,5.7881,5.7881,5.7881,5.7881,5.7881,5.7881,5.7881,5.7881,5.7881,5.7881,5.7881,5.7591,5.6854,5.545,5.42,5.3224,5.1257,5.0196,5.0196,4.9194,4.8446,4.8027,4.7549,4.7519,4.7938,4.7938,4.8506,4.9553,4.9793,5.0242,5.0794,5.0631,5.0511,5.0541,5.078,5.0823,5.09,5.1139,5.1229,5.1229,5.1229,5.1229,5.1229,5.1229,5.1229,5.1229,5.1229,5.1229,5.1229,5.1229,5.1229,5.1079,5.0375,5.0196,5.0046,4.9434,4.9149,4.9265,5.0683,5.0206,5.0156,5.265,5.2786,5.2454,5.2454,5.2454,5.2697,5.3382,5.3518,5.3518,5.3518,5.3518,5.3348,5.2973,5.2312,5.1885,5.1813,5.0009,4.8963,4.9247,4.8072,4.7309,4.7309,4.7309,4.7309,4.7309,4.8252,4.9135,4.9813,5.0855,5.1525,5.1921,5.2277,5.2835,5.3518,5.3518,5.3518,3.932,4.0492,4.1822,4.2647,4.4666,4.6874,4.8642,5.0513,5.2175,5.3153,5.4576,5.5658,5.5658,5.6586,5.7446,5.7845,5.7881,5.7881,5.7881,5.7881,5.7881,5.7881,5.7881,5.7881,5.7881,5.7881,5.7591,5.6816,5.541,5.42,5.3212,5.1257,5.0106,4.9912,4.9284,4.8626,4.7967,4.7967,4.8177,4.8626,4.8626,4.9194,5.0196,5.0196,5.0554,5.1229,5.1229,5.1229,5.1229,5.1229,5.1229,5.1229,5.1229,5.1229,5.1229,5.1229,5.1229,5.1229,5.1229,5.1229,5.1229,5.1229,5.1229,5.1229,5.1229,5.1229,5.1139,5.0644,5.0524,5.0435,5.0032,4.9763,4.9988,5.1601,5.1027,5.0518,5.1977,5.2067,5.1921,5.1921,5.2205,5.2662,5.3382,5.3518,5.3518,5.3518,5.3518,5.3518,5.3518,5.287,5.2451,5.2451,5.0589,4.9336,4.9367,4.8072,4.7309,4.7309,4.7309,4.7309,4.7309,4.8625,4.9496,4.9852,5.1557,5.2277,5.1921,5.2277,5.28,5.3518,5.3518,5.3314,0.0,0.0,0.0,4.2682,4.296,4.3392,4.6319,4.849,5.0032,5.0598,5.2683,5.4473,5.4473,5.5377,5.6547,5.7665,5.7881,5.7881,5.7881,5.7881,5.7881,5.7881,5.7881,5.7881,5.7881,5.7881,5.7881,5.7845,5.585,5.431,5.3597,5.1458,4.9942,4.9329,4.9883,4.9912,4.9329,4.9299,4.9329,4.9329,4.9329,4.9643,5.0226,5.0226,5.0554,5.1229,5.1229,5.1229,5.1229,5.1229,5.1229,5.1229,5.1229,5.1229,5.1229,5.1229,5.1229,5.1229,5.1229,5.1229,5.1229,5.1229,5.1229,5.1229,5.1229,5.1229,5.1229,5.1229,5.1229,5.1229,5.1229,5.0704,5.0336,5.0901,5.0886,5.0801,5.094,5.1428,5.1846,5.1882,5.2731,5.345,5.3518,5.3518,5.3518,5.3518,5.3518,5.3518,5.3518,5.3518,5.2731,5.0665,5.0397,4.9567,4.7538,4.7309,4.7309,4.7309,4.7309,4.7309,4.7309,4.9287,4.9891,4.8882,5.1885,5.2939,5.1957,5.2973,5.3518,5.3518,5.3518,5.2904,3.8241,0.0,0.0,0.0,0.0,0.0,4.3654,4.5348,4.6906,4.7433,4.955,5.1389,5.1788,5.3616,5.541,5.6509,5.7372,5.7881,5.7881,5.7881,5.7881,5.7881,5.7881,5.7881,5.7881,5.7881,5.7554,5.6739,5.6087,5.4987,5.3189,5.1242,4.9942,4.9329,4.9434,4.9464,4.9299,4.9299,4.9494,4.9972,4.9972,5.0301,5.0913,5.0913,5.1003,5.1229,5.1229,5.1229,5.1229,5.1229,5.1229,5.1229,5.1229,5.1229,5.1229,5.1229,5.1229,5.1229,5.1229,5.1229,5.1229,5.1229,5.1229,5.1229,5.1229,5.1229,5.1229,5.1229,5.1229,5.1229,5.1229,5.1079,5.1348,5.3164,5.1927,5.0828,5.2503,5.1932,5.1182,5.1495,5.1782,5.229,5.3314,5.3518,5.3518,5.3518,5.3518,5.3518,5.3518,5.3518,5.2973,5.1631,5.0817,4.9852,4.8501,4.7722,4.7309,4.7309,4.7309,4.7309,4.7309,4.8543,4.9456,4.9931,5.1557,5.2592,5.3076,5.3348,5.3518,5.3518,5.3518,5.2904,0.0,0.0,0.0,3.9572,0.0,0.0,4.1983,4.324,4.4543,4.5285,4.7045,4.8595,4.9136,5.1302,5.3239,5.3851,5.5393,5.6849,5.7772,5.7881,5.7881,5.7881,5.7881,5.7881,5.7881,5.7881,5.7628,5.6963,5.6047,5.4557,5.2305,5.118,5.0481,5.0092,5.0092,5.0092,5.0092,5.0092,5.0272,5.0614,5.0614,5.0794,5.1229,5.1229,5.1229,5.1229,5.1229,5.1229,5.1229,5.1229,5.1229,5.1229,5.1229,5.1229,5.1229,5.1229,5.1229,5.1229,5.1229,5.1229,5.1229,5.1229,5.1229,5.1229,5.1229,5.1229,5.1229,5.1229,5.1229,5.1229,5.1229,5.1229,5.1773,5.4041,5.2546,5.1213,5.3523,5.2403,5.101,5.1161,5.1645,5.2286,5.3126,5.338,5.3518,5.3518,5.3518,5.3518,5.3518,5.3518,5.3076,5.1993,5.1005,4.997,4.8891,4.7861,4.7309,4.7309,4.7309,4.7309,4.7309,4.8252,4.9296,5.0358,5.1377,5.2418,5.3518,5.3518,5.3518,5.3518,5.3518,5.3144,0.0,0.0,0.0,4.0352,4.0049,0.0,4.0874,4.1698,4.2571,4.3572,4.49,4.6031,4.6586,4.8612,5.0258,5.0368,5.2546,5.5052,5.7506,5.7836,5.7907,5.8118,5.8051,5.8017,5.8017,5.7949,5.7845,5.7701,5.5651,5.3526,5.1526,5.1246,5.1229,5.1229,5.1229,5.1229,5.1229,5.1229,5.1229,5.1229,5.1229,5.1229,5.1229,5.1229,5.1229,5.1229,5.1229,5.1229,5.1229,5.1229,5.1229,5.1229,5.1229,5.1229,5.1229,5.1229,5.1229,5.1229,5.1229,5.1229,5.1229,5.1229,5.1229,5.1229,5.1229,5.1229,5.1229,5.1229,5.1229,5.1229,5.1229,5.1229,5.1727,5.3913,5.2856,5.1972,5.4126,5.29,5.1364,5.1234,5.2045,5.2763,5.281,5.3223,5.3551,5.3551,5.3653,5.3754,5.3754,5.3687,5.3211,5.2161,5.1145,5.0087,4.8891,4.7988,4.7409,4.7309,4.7309,4.7309,4.7309,4.8377,4.9416,5.0358,5.1488,5.2487,5.3314,5.3416,5.3518,5.3518,5.3518,5.3518,4.0698,4.0824,4.1021,4.0081,3.9772,0.0,3.9973,4.013,4.0413,4.1098,4.2344,4.3472,4.4008,4.5453,4.6821,4.7648,5.0,5.3046,5.6948,5.7475,5.8019,5.9532,5.9167,5.8795,5.8795,5.8254,5.7517,5.6624,5.4473,5.3033,5.262,5.1681,5.1229,5.1229,5.1229,5.1229,5.1229,5.1229,5.1229,5.1229,5.1229,5.1229,5.1229,5.1229,5.1229,5.1229,5.1229,5.1229,5.1229,5.1229,5.1229,5.1229,5.1229,5.1229,5.1229,5.1229,5.1229,5.1229,5.1229,5.1229,5.1229,5.1229,5.1229,5.1229,5.1229,5.1229,5.1229,5.1229,5.1229,5.1229,5.1229,5.1229,5.1542,5.29,5.29,5.2945,5.4295,5.3526,5.2807,5.3693,5.2881,5.2094,5.2389,5.3248,5.3927,5.3927,5.468,5.5277,5.5277,5.4769,5.3984,5.2887,5.2068,5.0855,4.8973,4.8636,4.8126,4.7352,4.7309,4.7309,4.7309,4.9085,5.0204,5.0397,5.2238,5.287,5.2205,5.3076,5.3518,5.3518,5.3518,5.3518,4.2304,4.1892,4.1468,4.0794,4.016,0.0,0.0,3.9697,3.9848,4.04,4.1051,4.1699,4.2266,4.3512,4.4706,4.5548,4.734,4.9728,5.2829,5.5378,5.7256,5.8223,5.8482,5.8536,5.813,5.784,5.6789,5.4713,5.3526,5.2664,5.2109,5.1526,5.1229,5.1229,5.1229,5.1229,5.1229,5.1229,5.1229,5.1229,5.1229,5.1229,5.1229,5.1229,5.1229,5.1229,5.1229,5.1229,5.1229,5.1229,5.1229,5.1229,5.1229,5.1229,5.1229,5.1229,5.1229,5.1229,5.1229,5.1229,5.1229,5.1229,5.1229,5.1229,5.1229,5.1229,5.1229,5.1229,5.1229,5.1229,5.1229,5.1229,5.1635,5.3309,5.3309,5.3352,5.5011,5.4515,5.3913,5.4505,5.3841,5.3281,5.3639,5.3383,5.3536,5.4685,5.4831,5.5046,5.5646,5.5378,5.4933,5.4405,5.3533,5.2441,5.1025,4.9927,4.8975,4.8072,4.7581,4.7538,4.803,4.9044,4.9852,5.0397,5.1918,5.2418,5.1921,5.1954,5.2205,5.2697,5.3247,5.3518,4.3929,4.3122,4.223,4.1739,4.0844,3.9981,0.0,0.0,0.0,4.0275,4.035,4.0501,4.0899,4.1903,4.2839,4.3258,4.4714,4.6328,4.7856,5.1904,5.505,5.5903,5.7084,5.7618,5.7151,5.6735,5.5554,5.325,5.2647,5.2047,5.1246,5.1229,5.1229,5.1229,5.1229,5.1229,5.1229,5.1229,5.1229,5.1229,5.1229,5.1229,5.1229,5.1229,5.1229,5.1229,5.1229,5.1229,5.1229,5.1229,5.1229,5.1229,5.1229,5.1229,5.1229,5.1229,5.1229,5.1229,5.1229,5.1229,5.1229,5.1229,5.1229,5.1229,5.1229,5.1229,5.1229,5.1229,5.1229,5.1229,5.1229,5.1229,5.1681,5.3483,5.3396,5.3396,5.5174,5.5052,5.4672,5.4879,5.4589,5.4355,5.463,5.3768,5.3617,5.5229,5.5048,5.5085,5.6016,5.6021,5.5919,5.5919,5.5004,5.4088,5.3276,5.166,5.0307,4.9285,4.8527,4.8382,4.8986,4.9237,4.9931,5.1,5.1776,5.2134,5.1921,5.1266,5.1336,5.1921,5.28,5.3179,4.5508,4.507,4.4442,4.2181,4.1518,4.1069,3.9981,0.0,3.9722,3.9772,0.0,3.9798,3.9873,0.0,0.0,4.0207,4.2318,4.3977,4.4157,4.6639,4.9902,5.3748,5.5271,5.621,5.6713,5.4723,5.3552,5.3768,5.1759,5.0739,5.1199,5.1229,5.1229,5.1229,5.1229,5.1229,5.1229,5.1229,5.1229,5.1229,5.1229,5.1229,5.1229,5.1229,5.1229,5.1229,5.1229,5.1229,5.1229,5.1229,5.1229,5.1229,5.1229,5.1229,5.1229,5.1229,5.1229,5.1229,5.1229,5.1229,5.1229,5.1229,5.1229,5.1229,5.1229,5.1229,5.1229,5.1229,5.1229,5.1229,5.1229,5.1229,5.1276,5.1496,5.226,5.2989,5.3221,5.3956,5.4879,5.5817,5.4431,5.309,5.3128,5.4613,5.5509,5.4858,5.6277,5.7502,5.7645,5.707,5.6697,5.6697,5.5982,5.5118,5.4076,5.3743,5.2792,5.0818,5.0884,5.065,4.9739,5.0878,5.2029,5.311,5.328,5.287,5.1921,5.2765,5.2731,5.1921,5.2029,5.2065,4.6638,4.625,4.562,4.4153,4.3009,4.1963,4.1023,4.0211,3.9697,3.9697,0.0,0.0,0.0,0.0,0.0,0.0,4.1102,4.1801,4.1801,4.3673,4.6349,4.9747,5.1834,5.345,5.443,5.3221,5.2312,5.2337,5.1028,5.0465,5.1169,5.1229,5.1229,5.1229,5.1229,5.1229,5.1229,5.1229,5.1229,5.1229,5.1229,5.1229,5.1229,5.1229,5.1229,5.1229,5.1229,5.1229,5.1229,5.1229,5.1229,5.1229,5.1229,5.1229,5.1229,5.1229,5.1229,5.1229,5.1229,5.1229,5.1229,5.1229,5.1229,5.1229,5.1229,5.1229,5.1229,5.1229,5.1229,5.1229,5.1229,5.1229,5.1386,5.2018,5.2575,5.3077,5.3742,5.4723,5.5658,5.6126,5.5458,5.464,5.3999,5.3569,5.3796,5.5296,5.577,5.6237,5.6816,5.7248,5.7442,5.7442,5.656,5.5638,5.4759,5.3527,5.227,5.0898,5.0996,5.1181,5.1344,5.1859,5.2496,5.3225,5.2617,5.2167,5.1921,5.174,5.1776,5.1921,5.1921,5.1921,4.7369,4.7111,4.6683,4.5652,4.4405,4.3084,4.1895,4.0998,4.0312,3.9825,3.9823,0.0,0.0,0.0,3.9823,4.0224,0.0,4.03,4.03,4.1517,4.333,4.5782,4.8428,5.0461,5.1572,5.0849,5.0483,5.0905,4.9999,4.9931,5.1122,5.1229,5.1229,5.1229,5.1229,5.1229,5.1229,5.1229,5.1229,5.1229,5.1229,5.1229,5.1229,5.1229,5.1229,5.1229,5.1229,5.1229,5.1229,5.1229,5.1229,5.1229,5.1229,5.1229,5.1229,5.1229,5.1229,5.1229,5.1229,5.1229,5.1229,5.1229,5.1229,5.1229,5.1229,5.1229,5.1229,5.1229,5.1229,5.1229,5.1229,5.1229,5.1386,5.2245,5.244,5.2664,5.3483,5.4764,5.577,5.577,5.577,5.5611,5.5125,5.3699,5.3309,5.5417,5.5611,5.577,5.6586,5.7372,5.7881,5.7881,5.7185,5.6316,5.5479,5.3953,5.266,5.159,5.1262,5.1507,5.2397,5.2644,5.2929,5.3272,5.2823,5.2707,5.2945,5.222,5.1941,5.2185,5.1696,5.1488,4.7489,4.7744,4.7778,4.5908,4.5372,4.4656,4.2181,4.1989,4.1848,4.003,4.0124,4.0325,3.9798,3.9697,3.9697,0.0,3.9722,0.0,0.0,3.9774,4.0542,4.2512,4.5489,4.7652,4.8208,4.7179,4.7516,5.0025,4.8529,4.8606,5.1046,5.1229,5.1229,5.1229,5.1229,5.1229,5.1229,5.1229,5.1229,5.1229,5.1229,5.1229,5.1229,5.1229,5.1229,5.1229,5.1229,5.1229,5.1229,5.1229,5.1229,5.1229,5.1229,5.1229,5.1229,5.1229,5.1229,5.1229,5.1229,5.1229,5.1229,5.1229,5.1229,5.1229,5.1229,5.1229,5.1229,5.1229,5.1229,5.1229,5.1229,5.1229,5.1229,5.1276,5.1246,5.1246,5.1293,5.3077,5.4672,5.4672,5.4672,5.5002,5.5968,5.6087,5.5698,5.4796,5.6432,5.7808,5.7845,5.7881,5.7881,5.7881,5.7881,5.7409,5.6249,5.6093,5.5292,5.3524,5.2363,5.1923,5.2316,5.335,5.3954,5.3992,5.5013,5.5543,5.5579,5.5543,5.4647,5.291,5.1253,5.0435,4.8027,4.8745,4.9224,4.7688,4.7011,4.6286,4.45,4.3248,4.2152,4.1149,4.0721,4.035,3.9798,3.9697,0.0,0.0,0.0,3.9697,0.0,3.9697,4.0105,4.1079,4.3281,4.4993,4.563,4.5962,4.6929,4.8796,4.8317,4.8872,5.1075,5.1229,5.1229,5.1229,5.1229,5.1229,5.1229,5.1229,5.1229,5.1229,5.1229,5.1229,5.1229,5.1229,5.1229,5.1229,5.1229,5.1229,5.1229,5.1229,5.1229,5.1229,5.1229,5.1229,5.1229,5.1229,5.1229,5.1229,5.1229,5.1498,5.1858,5.1858,5.2157,5.2516,5.2516,5.2516,5.2516,5.2516,5.2516,5.2516,5.2516,5.2516,5.2516,5.2516,5.2187,5.1858,5.1858,5.3672,5.5335,5.5335,5.6349,5.729,5.7654,5.7694,5.676,5.3911,5.4755,5.5691,5.5691,5.6354,5.7076,5.7808,5.6619,5.585,5.6165,5.4847,5.3432,5.2088,5.2325,5.2915,5.377,5.418,5.4861,5.5856,5.5492,5.5405,5.5681,5.5681,5.5372,5.4749,5.347,5.1988,4.8686,4.9434,4.9927,4.8895,4.8354,4.7636,4.6102,4.49,4.367,4.2163,4.1516,4.1,4.0404,3.9948,3.9747,0.0,0.0,0.0,0.0,3.9697,3.9823,4.0174,4.1491,4.2682,4.3603,4.3924,4.4942,4.6963,4.7172,4.8191,5.0353,5.0964,5.1229,5.1229,5.1229,5.1229,5.1229,5.1229,5.1229,5.1229,5.1229,5.1229,5.1229,5.1229,5.1229,5.1229,5.1229,5.1229,5.1229,5.1229,5.1229,5.1229,5.1468,5.1558,5.1528,5.1319,5.1379,5.1588,5.1828,5.2187,5.2546,5.2546,5.2845,5.3174,5.3174,5.3174,5.3174,5.3174,5.3174,5.3174,5.3174,5.3174,5.3174,5.3174,5.2845,5.2546,5.2546,5.4067,5.5554,5.5986,5.7019,5.8002,5.8411,5.8167,5.7122,5.4836,5.514,5.5621,5.5763,5.6008,5.6476,5.7222,5.6008,5.5134,5.5052,5.3352,5.1972,5.1246,5.188,5.2812,5.3956,5.4379,5.5222,5.6556,5.6263,5.6211,5.6494,5.6494,5.6359,5.6053,5.5011,5.3308]}]]